<?xml version="1.0" encoding="UTF-8" standalone="no" ?>
<gpx xmlns="http://www.topografix.com/GPX/1/1" xmlns:xsi="http://www.w3.org/2001/XMLSchema-instance" xsi:schemaLocation="http://www.topografix.com/GPX/1/1 http://www.topografix.com/GPX/1/1/gpx.xsd" version="1.1" creator="VisuGPX - https://www.visugpx.com">
  <metadata>
    <name>GRP tour des monts du lyonnais (moitié haute)</name>
    <desc><![CDATA[GRP tour des monts du lyonnais (moitié haute)]]></desc>
  </metadata>
  <trk>
    <name><![CDATA[DEMI HAUT TML]]></name>
    <trkseg>
      <trkpt lat="45.77746" lon="4.63994">
        <ele>602.88</ele>
        <time>2013-01-19T08:31:36Z</time>
      </trkpt>
      <trkpt lat="45.77746" lon="4.63992">
        <ele>599.04</ele>
        <time>2013-01-19T08:31:52Z</time>
      </trkpt>
      <trkpt lat="45.77743" lon="4.63991">
        <ele>598.56</ele>
        <time>2013-01-19T08:32:01Z</time>
      </trkpt>
      <trkpt lat="45.77739" lon="4.6399">
        <ele>599.04</ele>
        <time>2013-01-19T08:32:15Z</time>
      </trkpt>
      <trkpt lat="45.7774" lon="4.63991">
        <ele>599.04</ele>
        <time>2013-01-19T08:32:21Z</time>
      </trkpt>
      <trkpt lat="45.7774" lon="4.63992">
        <ele>599.04</ele>
        <time>2013-01-19T08:32:28Z</time>
      </trkpt>
      <trkpt lat="45.7774" lon="4.63995">
        <ele>599.04</ele>
        <time>2013-01-19T08:32:38Z</time>
      </trkpt>
      <trkpt lat="45.77741" lon="4.63996">
        <ele>599.52</ele>
        <time>2013-01-19T08:32:41Z</time>
      </trkpt>
      <trkpt lat="45.77741" lon="4.63994">
        <ele>599.52</ele>
        <time>2013-01-19T08:32:46Z</time>
      </trkpt>
      <trkpt lat="45.77742" lon="4.63994">
        <ele>599.04</ele>
        <time>2013-01-19T08:32:52Z</time>
      </trkpt>
      <trkpt lat="45.77751" lon="4.63997">
        <ele>599.52</ele>
        <time>2013-01-19T08:32:56Z</time>
      </trkpt>
      <trkpt lat="45.77767" lon="4.64001">
        <ele>600.96</ele>
        <time>2013-01-19T08:33:02Z</time>
      </trkpt>
      <trkpt lat="45.77784" lon="4.63999">
        <ele>601.92</ele>
        <time>2013-01-19T08:33:08Z</time>
      </trkpt>
      <trkpt lat="45.77791" lon="4.63996">
        <ele>602.4</ele>
        <time>2013-01-19T08:33:13Z</time>
      </trkpt>
      <trkpt lat="45.77793" lon="4.63995">
        <ele>603.36</ele>
        <time>2013-01-19T08:33:21Z</time>
      </trkpt>
      <trkpt lat="45.77792" lon="4.63993">
        <ele>603.36</ele>
        <time>2013-01-19T08:33:31Z</time>
      </trkpt>
      <trkpt lat="45.77793" lon="4.63992">
        <ele>603.36</ele>
        <time>2013-01-19T08:33:38Z</time>
      </trkpt>
      <trkpt lat="45.77786" lon="4.63978">
        <ele>603.36</ele>
        <time>2013-01-19T08:33:44Z</time>
      </trkpt>
      <trkpt lat="45.77783" lon="4.63973">
        <ele>603.85</ele>
        <time>2013-01-19T08:33:46Z</time>
      </trkpt>
      <trkpt lat="45.7777" lon="4.63962">
        <ele>603.85</ele>
        <time>2013-01-19T08:33:52Z</time>
      </trkpt>
      <trkpt lat="45.77756" lon="4.63947">
        <ele>603.85</ele>
        <time>2013-01-19T08:33:58Z</time>
      </trkpt>
      <trkpt lat="45.77744" lon="4.63935">
        <ele>604.33</ele>
        <time>2013-01-19T08:34:04Z</time>
      </trkpt>
      <trkpt lat="45.77724" lon="4.63927">
        <ele>606.25</ele>
        <time>2013-01-19T08:34:12Z</time>
      </trkpt>
      <trkpt lat="45.77717" lon="4.63929">
        <ele>606.73</ele>
        <time>2013-01-19T08:34:15Z</time>
      </trkpt>
      <trkpt lat="45.77703" lon="4.6392">
        <ele>607.69</ele>
        <time>2013-01-19T08:34:22Z</time>
      </trkpt>
      <trkpt lat="45.77688" lon="4.6391">
        <ele>608.65</ele>
        <time>2013-01-19T08:34:29Z</time>
      </trkpt>
      <trkpt lat="45.77676" lon="4.63902">
        <ele>609.13</ele>
        <time>2013-01-19T08:34:34Z</time>
      </trkpt>
      <trkpt lat="45.77661" lon="4.63894">
        <ele>608.17</ele>
        <time>2013-01-19T08:34:40Z</time>
      </trkpt>
      <trkpt lat="45.77642" lon="4.63882">
        <ele>608.65</ele>
        <time>2013-01-19T08:34:47Z</time>
      </trkpt>
      <trkpt lat="45.77625" lon="4.63872">
        <ele>607.69</ele>
        <time>2013-01-19T08:34:53Z</time>
      </trkpt>
      <trkpt lat="45.7761" lon="4.6386">
        <ele>607.21</ele>
        <time>2013-01-19T08:34:59Z</time>
      </trkpt>
      <trkpt lat="45.77596" lon="4.63848">
        <ele>606.73</ele>
        <time>2013-01-19T08:35:05Z</time>
      </trkpt>
      <trkpt lat="45.7759" lon="4.63841">
        <ele>606.25</ele>
        <time>2013-01-19T08:35:09Z</time>
      </trkpt>
      <trkpt lat="45.77586" lon="4.6384">
        <ele>605.77</ele>
        <time>2013-01-19T08:35:12Z</time>
      </trkpt>
      <trkpt lat="45.77584" lon="4.63838">
        <ele>605.77</ele>
        <time>2013-01-19T08:35:14Z</time>
      </trkpt>
      <trkpt lat="45.77577" lon="4.63822">
        <ele>607.21</ele>
        <time>2013-01-19T08:35:22Z</time>
      </trkpt>
      <trkpt lat="45.77569" lon="4.63811">
        <ele>609.61</ele>
        <time>2013-01-19T08:35:29Z</time>
      </trkpt>
      <trkpt lat="45.77555" lon="4.638">
        <ele>611.54</ele>
        <time>2013-01-19T08:35:37Z</time>
      </trkpt>
      <trkpt lat="45.77541" lon="4.63791">
        <ele>615.38</ele>
        <time>2013-01-19T08:35:45Z</time>
      </trkpt>
      <trkpt lat="45.77534" lon="4.63786">
        <ele>618.75</ele>
        <time>2013-01-19T08:35:53Z</time>
      </trkpt>
      <trkpt lat="45.77527" lon="4.63781">
        <ele>621.15</ele>
        <time>2013-01-19T08:36:01Z</time>
      </trkpt>
      <trkpt lat="45.77522" lon="4.63774">
        <ele>624.51</ele>
        <time>2013-01-19T08:36:08Z</time>
      </trkpt>
      <trkpt lat="45.77518" lon="4.63769">
        <ele>626.92</ele>
        <time>2013-01-19T08:36:14Z</time>
      </trkpt>
      <trkpt lat="45.77515" lon="4.63764">
        <ele>628.84</ele>
        <time>2013-01-19T08:36:18Z</time>
      </trkpt>
      <trkpt lat="45.77506" lon="4.63756">
        <ele>632.68</ele>
        <time>2013-01-19T08:36:28Z</time>
      </trkpt>
      <trkpt lat="45.77504" lon="4.63755">
        <ele>633.17</ele>
        <time>2013-01-19T08:36:30Z</time>
      </trkpt>
      <trkpt lat="45.77498" lon="4.63754">
        <ele>633.17</ele>
        <time>2013-01-19T08:36:34Z</time>
      </trkpt>
      <trkpt lat="45.77486" lon="4.63745">
        <ele>635.57</ele>
        <time>2013-01-19T08:36:44Z</time>
      </trkpt>
      <trkpt lat="45.77483" lon="4.6374">
        <ele>637.97</ele>
        <time>2013-01-19T08:36:50Z</time>
      </trkpt>
      <trkpt lat="45.77475" lon="4.63735">
        <ele>639.89</ele>
        <time>2013-01-19T08:36:57Z</time>
      </trkpt>
      <trkpt lat="45.77465" lon="4.63738">
        <ele>640.86</ele>
        <time>2013-01-19T08:37:05Z</time>
      </trkpt>
      <trkpt lat="45.77465" lon="4.63737">
        <ele>640.38</ele>
        <time>2013-01-19T08:37:18Z</time>
      </trkpt>
      <trkpt lat="45.77462" lon="4.63738">
        <ele>640.86</ele>
        <time>2013-01-19T08:37:26Z</time>
      </trkpt>
      <trkpt lat="45.77452" lon="4.63741">
        <ele>641.34</ele>
        <time>2013-01-19T08:37:34Z</time>
      </trkpt>
      <trkpt lat="45.77443" lon="4.6375">
        <ele>643.26</ele>
        <time>2013-01-19T08:37:42Z</time>
      </trkpt>
      <trkpt lat="45.77442" lon="4.63751">
        <ele>642.78</ele>
        <time>2013-01-19T08:37:43Z</time>
      </trkpt>
      <trkpt lat="45.77433" lon="4.63762">
        <ele>645.66</ele>
        <time>2013-01-19T08:37:53Z</time>
      </trkpt>
      <trkpt lat="45.77428" lon="4.63764">
        <ele>645.18</ele>
        <time>2013-01-19T08:37:57Z</time>
      </trkpt>
      <trkpt lat="45.77417" lon="4.63771">
        <ele>646.62</ele>
        <time>2013-01-19T08:38:07Z</time>
      </trkpt>
      <trkpt lat="45.77409" lon="4.63777">
        <ele>648.55</ele>
        <time>2013-01-19T08:38:15Z</time>
      </trkpt>
      <trkpt lat="45.77394" lon="4.63786">
        <ele>650.47</ele>
        <time>2013-01-19T08:38:26Z</time>
      </trkpt>
      <trkpt lat="45.77381" lon="4.63796">
        <ele>649.99</ele>
        <time>2013-01-19T08:38:33Z</time>
      </trkpt>
      <trkpt lat="45.77366" lon="4.63808">
        <ele>650.47</ele>
        <time>2013-01-19T08:38:41Z</time>
      </trkpt>
      <trkpt lat="45.77349" lon="4.6382">
        <ele>652.39</ele>
        <time>2013-01-19T08:38:49Z</time>
      </trkpt>
      <trkpt lat="45.77337" lon="4.63823">
        <ele>654.8</ele>
        <time>2013-01-19T08:38:56Z</time>
      </trkpt>
      <trkpt lat="45.77325" lon="4.63827">
        <ele>656.72</ele>
        <time>2013-01-19T08:39:03Z</time>
      </trkpt>
      <trkpt lat="45.77313" lon="4.6382">
        <ele>659.6</ele>
        <time>2013-01-19T08:39:11Z</time>
      </trkpt>
      <trkpt lat="45.77304" lon="4.63812">
        <ele>662.01</ele>
        <time>2013-01-19T08:39:18Z</time>
      </trkpt>
      <trkpt lat="45.77294" lon="4.63806">
        <ele>663.93</ele>
        <time>2013-01-19T08:39:27Z</time>
      </trkpt>
      <trkpt lat="45.77282" lon="4.63805">
        <ele>665.37</ele>
        <time>2013-01-19T08:39:35Z</time>
      </trkpt>
      <trkpt lat="45.77266" lon="4.63796">
        <ele>666.81</ele>
        <time>2013-01-19T08:39:44Z</time>
      </trkpt>
      <trkpt lat="45.77257" lon="4.63786">
        <ele>667.29</ele>
        <time>2013-01-19T08:39:53Z</time>
      </trkpt>
      <trkpt lat="45.77252" lon="4.63771">
        <ele>669.22</ele>
        <time>2013-01-19T08:40:03Z</time>
      </trkpt>
      <trkpt lat="45.77249" lon="4.63759">
        <ele>672.1</ele>
        <time>2013-01-19T08:40:10Z</time>
      </trkpt>
      <trkpt lat="45.77245" lon="4.63745">
        <ele>676.42</ele>
        <time>2013-01-19T08:40:20Z</time>
      </trkpt>
      <trkpt lat="45.77239" lon="4.63729">
        <ele>679.79</ele>
        <time>2013-01-19T08:40:30Z</time>
      </trkpt>
      <trkpt lat="45.77227" lon="4.63721">
        <ele>680.75</ele>
        <time>2013-01-19T08:40:38Z</time>
      </trkpt>
      <trkpt lat="45.77214" lon="4.63716">
        <ele>681.71</ele>
        <time>2013-01-19T08:40:47Z</time>
      </trkpt>
      <trkpt lat="45.772" lon="4.63709">
        <ele>683.15</ele>
        <time>2013-01-19T08:40:57Z</time>
      </trkpt>
      <trkpt lat="45.77189" lon="4.63705">
        <ele>684.6</ele>
        <time>2013-01-19T08:41:06Z</time>
      </trkpt>
      <trkpt lat="45.77179" lon="4.637">
        <ele>686.52</ele>
        <time>2013-01-19T08:41:16Z</time>
      </trkpt>
      <trkpt lat="45.77167" lon="4.63694">
        <ele>689.88</ele>
        <time>2013-01-19T08:41:26Z</time>
      </trkpt>
      <trkpt lat="45.77156" lon="4.63693">
        <ele>689.88</ele>
        <time>2013-01-19T08:41:34Z</time>
      </trkpt>
      <trkpt lat="45.77141" lon="4.63692">
        <ele>690.84</ele>
        <time>2013-01-19T08:41:43Z</time>
      </trkpt>
      <trkpt lat="45.7713" lon="4.63694">
        <ele>690.84</ele>
        <time>2013-01-19T08:41:51Z</time>
      </trkpt>
      <trkpt lat="45.77119" lon="4.63694">
        <ele>697.09</ele>
        <time>2013-01-19T08:42:02Z</time>
      </trkpt>
      <trkpt lat="45.77106" lon="4.6369">
        <ele>699.5</ele>
        <time>2013-01-19T08:42:10Z</time>
      </trkpt>
      <trkpt lat="45.77091" lon="4.63682">
        <ele>701.9</ele>
        <time>2013-01-19T08:42:20Z</time>
      </trkpt>
      <trkpt lat="45.77085" lon="4.63679">
        <ele>701.9</ele>
        <time>2013-01-19T08:42:26Z</time>
      </trkpt>
      <trkpt lat="45.77077" lon="4.63677">
        <ele>701.42</ele>
        <time>2013-01-19T08:42:35Z</time>
      </trkpt>
      <trkpt lat="45.77066" lon="4.63678">
        <ele>702.38</ele>
        <time>2013-01-19T08:42:42Z</time>
      </trkpt>
      <trkpt lat="45.77052" lon="4.6368">
        <ele>704.3</ele>
        <time>2013-01-19T08:42:50Z</time>
      </trkpt>
      <trkpt lat="45.77039" lon="4.6368">
        <ele>707.19</ele>
        <time>2013-01-19T08:42:59Z</time>
      </trkpt>
      <trkpt lat="45.77023" lon="4.63678">
        <ele>709.59</ele>
        <time>2013-01-19T08:43:09Z</time>
      </trkpt>
      <trkpt lat="45.77012" lon="4.63679">
        <ele>710.55</ele>
        <time>2013-01-19T08:43:17Z</time>
      </trkpt>
      <trkpt lat="45.77009" lon="4.63676">
        <ele>710.55</ele>
        <time>2013-01-19T08:43:21Z</time>
      </trkpt>
      <trkpt lat="45.77003" lon="4.6367">
        <ele>711.99</ele>
        <time>2013-01-19T08:43:29Z</time>
      </trkpt>
      <trkpt lat="45.76992" lon="4.63662">
        <ele>712.95</ele>
        <time>2013-01-19T08:43:38Z</time>
      </trkpt>
      <trkpt lat="45.7699" lon="4.6366">
        <ele>712.47</ele>
        <time>2013-01-19T08:43:40Z</time>
      </trkpt>
      <trkpt lat="45.76973" lon="4.6365">
        <ele>712.95</ele>
        <time>2013-01-19T08:43:51Z</time>
      </trkpt>
      <trkpt lat="45.76961" lon="4.6364">
        <ele>712.95</ele>
        <time>2013-01-19T08:44:00Z</time>
      </trkpt>
      <trkpt lat="45.76955" lon="4.63631">
        <ele>711.99</ele>
        <time>2013-01-19T08:44:07Z</time>
      </trkpt>
      <trkpt lat="45.76951" lon="4.63619">
        <ele>711.99</ele>
        <time>2013-01-19T08:44:15Z</time>
      </trkpt>
      <trkpt lat="45.76943" lon="4.63607">
        <ele>713.44</ele>
        <time>2013-01-19T08:44:23Z</time>
      </trkpt>
      <trkpt lat="45.76934" lon="4.63593">
        <ele>715.36</ele>
        <time>2013-01-19T08:44:30Z</time>
      </trkpt>
      <trkpt lat="45.7693" lon="4.63587">
        <ele>717.28</ele>
        <time>2013-01-19T08:44:38Z</time>
      </trkpt>
      <trkpt lat="45.7693" lon="4.63585">
        <ele>716.32</ele>
        <time>2013-01-19T08:44:56Z</time>
      </trkpt>
      <trkpt lat="45.76928" lon="4.6358">
        <ele>718.24</ele>
        <time>2013-01-19T08:45:11Z</time>
      </trkpt>
      <trkpt lat="45.76923" lon="4.63579">
        <ele>719.2</ele>
        <time>2013-01-19T08:45:14Z</time>
      </trkpt>
      <trkpt lat="45.76912" lon="4.63556">
        <ele>721.13</ele>
        <time>2013-01-19T08:45:23Z</time>
      </trkpt>
      <trkpt lat="45.76911" lon="4.63554">
        <ele>721.61</ele>
        <time>2013-01-19T08:45:29Z</time>
      </trkpt>
      <trkpt lat="45.7691" lon="4.63553">
        <ele>722.09</ele>
        <time>2013-01-19T08:45:40Z</time>
      </trkpt>
      <trkpt lat="45.76909" lon="4.63552">
        <ele>723.05</ele>
        <time>2013-01-19T08:45:54Z</time>
      </trkpt>
      <trkpt lat="45.76903" lon="4.63535">
        <ele>724.49</ele>
        <time>2013-01-19T08:46:01Z</time>
      </trkpt>
      <trkpt lat="45.76896" lon="4.63517">
        <ele>728.34</ele>
        <time>2013-01-19T08:46:09Z</time>
      </trkpt>
      <trkpt lat="45.76888" lon="4.63493">
        <ele>731.22</ele>
        <time>2013-01-19T08:46:17Z</time>
      </trkpt>
      <trkpt lat="45.76876" lon="4.63469">
        <ele>734.1</ele>
        <time>2013-01-19T08:46:26Z</time>
      </trkpt>
      <trkpt lat="45.76868" lon="4.63446">
        <ele>737.47</ele>
        <time>2013-01-19T08:46:34Z</time>
      </trkpt>
      <trkpt lat="45.76858" lon="4.6341">
        <ele>742.76</ele>
        <time>2013-01-19T08:46:43Z</time>
      </trkpt>
      <trkpt lat="45.76843" lon="4.63378">
        <ele>744.68</ele>
        <time>2013-01-19T08:46:51Z</time>
      </trkpt>
      <trkpt lat="45.76831" lon="4.63349">
        <ele>745.64</ele>
        <time>2013-01-19T08:47:00Z</time>
      </trkpt>
      <trkpt lat="45.76819" lon="4.63324">
        <ele>745.16</ele>
        <time>2013-01-19T08:47:07Z</time>
      </trkpt>
      <trkpt lat="45.76804" lon="4.63301">
        <ele>744.2</ele>
        <time>2013-01-19T08:47:15Z</time>
      </trkpt>
      <trkpt lat="45.76792" lon="4.6328">
        <ele>742.76</ele>
        <time>2013-01-19T08:47:23Z</time>
      </trkpt>
      <trkpt lat="45.76781" lon="4.63261">
        <ele>741.79</ele>
        <time>2013-01-19T08:47:31Z</time>
      </trkpt>
      <trkpt lat="45.76771" lon="4.63236">
        <ele>739.39</ele>
        <time>2013-01-19T08:47:39Z</time>
      </trkpt>
      <trkpt lat="45.76759" lon="4.63214">
        <ele>739.39</ele>
        <time>2013-01-19T08:47:48Z</time>
      </trkpt>
      <trkpt lat="45.76744" lon="4.63197">
        <ele>741.79</ele>
        <time>2013-01-19T08:47:56Z</time>
      </trkpt>
      <trkpt lat="45.76731" lon="4.63172">
        <ele>742.76</ele>
        <time>2013-01-19T08:48:04Z</time>
      </trkpt>
      <trkpt lat="45.76716" lon="4.63149">
        <ele>743.24</ele>
        <time>2013-01-19T08:48:12Z</time>
      </trkpt>
      <trkpt lat="45.76702" lon="4.6313">
        <ele>743.72</ele>
        <time>2013-01-19T08:48:19Z</time>
      </trkpt>
      <trkpt lat="45.76688" lon="4.63116">
        <ele>742.28</ele>
        <time>2013-01-19T08:48:25Z</time>
      </trkpt>
      <trkpt lat="45.7667" lon="4.63099">
        <ele>741.31</ele>
        <time>2013-01-19T08:48:33Z</time>
      </trkpt>
      <trkpt lat="45.76647" lon="4.63086">
        <ele>739.87</ele>
        <time>2013-01-19T08:48:42Z</time>
      </trkpt>
      <trkpt lat="45.76625" lon="4.63071">
        <ele>737.47</ele>
        <time>2013-01-19T08:48:51Z</time>
      </trkpt>
      <trkpt lat="45.76607" lon="4.63064">
        <ele>736.99</ele>
        <time>2013-01-19T08:48:59Z</time>
      </trkpt>
      <trkpt lat="45.7659" lon="4.63057">
        <ele>736.99</ele>
        <time>2013-01-19T08:49:07Z</time>
      </trkpt>
      <trkpt lat="45.76588" lon="4.63056">
        <ele>737.47</ele>
        <time>2013-01-19T08:49:09Z</time>
      </trkpt>
      <trkpt lat="45.7657" lon="4.6306">
        <ele>737.95</ele>
        <time>2013-01-19T08:49:17Z</time>
      </trkpt>
      <trkpt lat="45.76552" lon="4.63066">
        <ele>738.43</ele>
        <time>2013-01-19T08:49:25Z</time>
      </trkpt>
      <trkpt lat="45.76535" lon="4.63069">
        <ele>737.95</ele>
        <time>2013-01-19T08:49:33Z</time>
      </trkpt>
      <trkpt lat="45.76514" lon="4.63069">
        <ele>737.95</ele>
        <time>2013-01-19T08:49:41Z</time>
      </trkpt>
      <trkpt lat="45.76493" lon="4.63067">
        <ele>738.43</ele>
        <time>2013-01-19T08:49:49Z</time>
      </trkpt>
      <trkpt lat="45.7647" lon="4.63063">
        <ele>738.91</ele>
        <time>2013-01-19T08:49:57Z</time>
      </trkpt>
      <trkpt lat="45.7645" lon="4.63055">
        <ele>736.99</ele>
        <time>2013-01-19T08:50:05Z</time>
      </trkpt>
      <trkpt lat="45.76445" lon="4.63052">
        <ele>736.51</ele>
        <time>2013-01-19T08:50:08Z</time>
      </trkpt>
      <trkpt lat="45.76437" lon="4.6304">
        <ele>736.99</ele>
        <time>2013-01-19T08:50:13Z</time>
      </trkpt>
      <trkpt lat="45.76423" lon="4.63026">
        <ele>738.43</ele>
        <time>2013-01-19T08:50:21Z</time>
      </trkpt>
      <trkpt lat="45.76412" lon="4.63019">
        <ele>740.35</ele>
        <time>2013-01-19T08:50:27Z</time>
      </trkpt>
      <trkpt lat="45.76393" lon="4.63003">
        <ele>742.28</ele>
        <time>2013-01-19T08:50:35Z</time>
      </trkpt>
      <trkpt lat="45.76376" lon="4.62988">
        <ele>741.79</ele>
        <time>2013-01-19T08:50:42Z</time>
      </trkpt>
      <trkpt lat="45.76357" lon="4.62973">
        <ele>739.87</ele>
        <time>2013-01-19T08:50:49Z</time>
      </trkpt>
      <trkpt lat="45.7634" lon="4.6296">
        <ele>738.43</ele>
        <time>2013-01-19T08:50:56Z</time>
      </trkpt>
      <trkpt lat="45.76324" lon="4.62945">
        <ele>736.51</ele>
        <time>2013-01-19T08:51:03Z</time>
      </trkpt>
      <trkpt lat="45.76304" lon="4.62934">
        <ele>733.14</ele>
        <time>2013-01-19T08:51:11Z</time>
      </trkpt>
      <trkpt lat="45.76301" lon="4.62931">
        <ele>732.66</ele>
        <time>2013-01-19T08:51:13Z</time>
      </trkpt>
      <trkpt lat="45.76295" lon="4.62909">
        <ele>729.78</ele>
        <time>2013-01-19T08:51:20Z</time>
      </trkpt>
      <trkpt lat="45.7629" lon="4.6289">
        <ele>729.3</ele>
        <time>2013-01-19T08:51:26Z</time>
      </trkpt>
      <trkpt lat="45.7628" lon="4.62871">
        <ele>730.26</ele>
        <time>2013-01-19T08:51:34Z</time>
      </trkpt>
      <trkpt lat="45.76276" lon="4.62866">
        <ele>731.22</ele>
        <time>2013-01-19T08:51:41Z</time>
      </trkpt>
      <trkpt lat="45.76268" lon="4.62867">
        <ele>730.26</ele>
        <time>2013-01-19T08:51:49Z</time>
      </trkpt>
      <trkpt lat="45.7626" lon="4.62866">
        <ele>729.78</ele>
        <time>2013-01-19T08:51:53Z</time>
      </trkpt>
      <trkpt lat="45.76235" lon="4.62862">
        <ele>726.89</ele>
        <time>2013-01-19T08:52:03Z</time>
      </trkpt>
      <trkpt lat="45.76215" lon="4.62861">
        <ele>725.45</ele>
        <time>2013-01-19T08:52:12Z</time>
      </trkpt>
      <trkpt lat="45.76214" lon="4.62859">
        <ele>725.45</ele>
        <time>2013-01-19T08:52:25Z</time>
      </trkpt>
      <trkpt lat="45.76213" lon="4.62858">
        <ele>725.45</ele>
        <time>2013-01-19T08:52:28Z</time>
      </trkpt>
      <trkpt lat="45.76201" lon="4.62854">
        <ele>725.45</ele>
        <time>2013-01-19T08:52:36Z</time>
      </trkpt>
      <trkpt lat="45.76193" lon="4.6285">
        <ele>725.93</ele>
        <time>2013-01-19T08:52:41Z</time>
      </trkpt>
      <trkpt lat="45.76172" lon="4.62842">
        <ele>725.45</ele>
        <time>2013-01-19T08:52:50Z</time>
      </trkpt>
      <trkpt lat="45.76152" lon="4.62836">
        <ele>725.93</ele>
        <time>2013-01-19T08:52:56Z</time>
      </trkpt>
      <trkpt lat="45.76142" lon="4.62842">
        <ele>724.49</ele>
        <time>2013-01-19T08:53:01Z</time>
      </trkpt>
      <trkpt lat="45.76118" lon="4.62875">
        <ele>722.57</ele>
        <time>2013-01-19T08:53:11Z</time>
      </trkpt>
      <trkpt lat="45.76105" lon="4.62901">
        <ele>718.72</ele>
        <time>2013-01-19T08:53:18Z</time>
      </trkpt>
      <trkpt lat="45.76101" lon="4.62929">
        <ele>716.32</ele>
        <time>2013-01-19T08:53:24Z</time>
      </trkpt>
      <trkpt lat="45.76099" lon="4.62958">
        <ele>714.4</ele>
        <time>2013-01-19T08:53:32Z</time>
      </trkpt>
      <trkpt lat="45.7609" lon="4.62983">
        <ele>712.95</ele>
        <time>2013-01-19T08:53:40Z</time>
      </trkpt>
      <trkpt lat="45.76077" lon="4.63011">
        <ele>711.51</ele>
        <time>2013-01-19T08:53:48Z</time>
      </trkpt>
      <trkpt lat="45.76068" lon="4.63044">
        <ele>710.55</ele>
        <time>2013-01-19T08:53:58Z</time>
      </trkpt>
      <trkpt lat="45.76046" lon="4.6308">
        <ele>709.59</ele>
        <time>2013-01-19T08:54:09Z</time>
      </trkpt>
      <trkpt lat="45.76032" lon="4.63089">
        <ele>710.55</ele>
        <time>2013-01-19T08:54:17Z</time>
      </trkpt>
      <trkpt lat="45.76017" lon="4.6309">
        <ele>712.95</ele>
        <time>2013-01-19T08:54:25Z</time>
      </trkpt>
      <trkpt lat="45.76001" lon="4.63089">
        <ele>714.4</ele>
        <time>2013-01-19T08:54:33Z</time>
      </trkpt>
      <trkpt lat="45.75985" lon="4.6308">
        <ele>714.88</ele>
        <time>2013-01-19T08:54:41Z</time>
      </trkpt>
      <trkpt lat="45.7597" lon="4.63065">
        <ele>714.88</ele>
        <time>2013-01-19T08:54:49Z</time>
      </trkpt>
      <trkpt lat="45.75957" lon="4.63051">
        <ele>715.84</ele>
        <time>2013-01-19T08:54:57Z</time>
      </trkpt>
      <trkpt lat="45.75943" lon="4.63037">
        <ele>715.84</ele>
        <time>2013-01-19T08:55:05Z</time>
      </trkpt>
      <trkpt lat="45.75939" lon="4.63034">
        <ele>716.32</ele>
        <time>2013-01-19T08:55:14Z</time>
      </trkpt>
      <trkpt lat="45.75925" lon="4.6302">
        <ele>716.32</ele>
        <time>2013-01-19T08:55:22Z</time>
      </trkpt>
      <trkpt lat="45.75901" lon="4.63006">
        <ele>714.4</ele>
        <time>2013-01-19T08:55:31Z</time>
      </trkpt>
      <trkpt lat="45.75883" lon="4.62994">
        <ele>712.47</ele>
        <time>2013-01-19T08:55:38Z</time>
      </trkpt>
      <trkpt lat="45.75863" lon="4.62983">
        <ele>710.07</ele>
        <time>2013-01-19T08:55:45Z</time>
      </trkpt>
      <trkpt lat="45.75845" lon="4.62959">
        <ele>707.19</ele>
        <time>2013-01-19T08:55:54Z</time>
      </trkpt>
      <trkpt lat="45.7583" lon="4.62946">
        <ele>705.75</ele>
        <time>2013-01-19T08:56:01Z</time>
      </trkpt>
      <trkpt lat="45.75806" lon="4.62935">
        <ele>703.82</ele>
        <time>2013-01-19T08:56:10Z</time>
      </trkpt>
      <trkpt lat="45.75774" lon="4.62924">
        <ele>703.82</ele>
        <time>2013-01-19T08:56:21Z</time>
      </trkpt>
      <trkpt lat="45.75751" lon="4.62913">
        <ele>702.38</ele>
        <time>2013-01-19T08:56:30Z</time>
      </trkpt>
      <trkpt lat="45.75727" lon="4.62901">
        <ele>700.46</ele>
        <time>2013-01-19T08:56:40Z</time>
      </trkpt>
      <trkpt lat="45.75706" lon="4.62888">
        <ele>697.57</ele>
        <time>2013-01-19T08:56:48Z</time>
      </trkpt>
      <trkpt lat="45.75687" lon="4.62877">
        <ele>694.69</ele>
        <time>2013-01-19T08:56:56Z</time>
      </trkpt>
      <trkpt lat="45.75667" lon="4.62861">
        <ele>691.33</ele>
        <time>2013-01-19T08:57:04Z</time>
      </trkpt>
      <trkpt lat="45.75648" lon="4.62844">
        <ele>689.88</ele>
        <time>2013-01-19T08:57:12Z</time>
      </trkpt>
      <trkpt lat="45.75628" lon="4.62829">
        <ele>685.56</ele>
        <time>2013-01-19T08:57:20Z</time>
      </trkpt>
      <trkpt lat="45.75606" lon="4.62819">
        <ele>682.67</ele>
        <time>2013-01-19T08:57:28Z</time>
      </trkpt>
      <trkpt lat="45.75586" lon="4.6282">
        <ele>680.27</ele>
        <time>2013-01-19T08:57:34Z</time>
      </trkpt>
      <trkpt lat="45.75564" lon="4.62824">
        <ele>678.83</ele>
        <time>2013-01-19T08:57:41Z</time>
      </trkpt>
      <trkpt lat="45.75542" lon="4.6283">
        <ele>677.87</ele>
        <time>2013-01-19T08:57:49Z</time>
      </trkpt>
      <trkpt lat="45.7552" lon="4.62836">
        <ele>681.71</ele>
        <time>2013-01-19T08:57:57Z</time>
      </trkpt>
      <trkpt lat="45.75502" lon="4.62846">
        <ele>684.6</ele>
        <time>2013-01-19T08:58:04Z</time>
      </trkpt>
      <trkpt lat="45.75498" lon="4.62843">
        <ele>686.04</ele>
        <time>2013-01-19T08:58:07Z</time>
      </trkpt>
      <trkpt lat="45.75503" lon="4.62821">
        <ele>687.48</ele>
        <time>2013-01-19T08:58:15Z</time>
      </trkpt>
      <trkpt lat="45.75509" lon="4.62802">
        <ele>687.96</ele>
        <time>2013-01-19T08:58:22Z</time>
      </trkpt>
      <trkpt lat="45.75516" lon="4.62783">
        <ele>691.81</ele>
        <time>2013-01-19T08:58:28Z</time>
      </trkpt>
      <trkpt lat="45.75522" lon="4.62761">
        <ele>693.73</ele>
        <time>2013-01-19T08:58:35Z</time>
      </trkpt>
      <trkpt lat="45.75529" lon="4.62744">
        <ele>694.69</ele>
        <time>2013-01-19T08:58:40Z</time>
      </trkpt>
      <trkpt lat="45.7553" lon="4.62731">
        <ele>696.13</ele>
        <time>2013-01-19T08:58:44Z</time>
      </trkpt>
      <trkpt lat="45.7554" lon="4.62704">
        <ele>700.46</ele>
        <time>2013-01-19T08:58:54Z</time>
      </trkpt>
      <trkpt lat="45.7555" lon="4.6268">
        <ele>703.82</ele>
        <time>2013-01-19T08:59:03Z</time>
      </trkpt>
      <trkpt lat="45.75557" lon="4.62661">
        <ele>706.23</ele>
        <time>2013-01-19T08:59:12Z</time>
      </trkpt>
      <trkpt lat="45.7556" lon="4.62655">
        <ele>707.19</ele>
        <time>2013-01-19T08:59:15Z</time>
      </trkpt>
      <trkpt lat="45.75568" lon="4.62639">
        <ele>710.07</ele>
        <time>2013-01-19T08:59:24Z</time>
      </trkpt>
      <trkpt lat="45.75572" lon="4.62629">
        <ele>712.47</ele>
        <time>2013-01-19T08:59:30Z</time>
      </trkpt>
      <trkpt lat="45.75575" lon="4.62621">
        <ele>712.47</ele>
        <time>2013-01-19T08:59:34Z</time>
      </trkpt>
      <trkpt lat="45.75578" lon="4.62615">
        <ele>712.95</ele>
        <time>2013-01-19T08:59:38Z</time>
      </trkpt>
      <trkpt lat="45.75585" lon="4.62604">
        <ele>714.88</ele>
        <time>2013-01-19T08:59:46Z</time>
      </trkpt>
      <trkpt lat="45.75585" lon="4.62603">
        <ele>715.36</ele>
        <time>2013-01-19T08:59:47Z</time>
      </trkpt>
      <trkpt lat="45.75595" lon="4.62579">
        <ele>719.68</ele>
        <time>2013-01-19T09:00:01Z</time>
      </trkpt>
      <trkpt lat="45.75598" lon="4.62554">
        <ele>721.61</ele>
        <time>2013-01-19T09:00:12Z</time>
      </trkpt>
      <trkpt lat="45.75601" lon="4.62533">
        <ele>724.01</ele>
        <time>2013-01-19T09:00:20Z</time>
      </trkpt>
      <trkpt lat="45.75606" lon="4.62505">
        <ele>725.45</ele>
        <time>2013-01-19T09:00:30Z</time>
      </trkpt>
      <trkpt lat="45.75607" lon="4.62472">
        <ele>727.86</ele>
        <time>2013-01-19T09:00:39Z</time>
      </trkpt>
      <trkpt lat="45.7561" lon="4.62438">
        <ele>730.26</ele>
        <time>2013-01-19T09:00:50Z</time>
      </trkpt>
      <trkpt lat="45.75611" lon="4.62417">
        <ele>731.7</ele>
        <time>2013-01-19T09:00:59Z</time>
      </trkpt>
      <trkpt lat="45.75614" lon="4.62393">
        <ele>734.58</ele>
        <time>2013-01-19T09:01:09Z</time>
      </trkpt>
      <trkpt lat="45.75613" lon="4.62362">
        <ele>737.47</ele>
        <time>2013-01-19T09:01:19Z</time>
      </trkpt>
      <trkpt lat="45.75611" lon="4.62314">
        <ele>738.91</ele>
        <time>2013-01-19T09:01:30Z</time>
      </trkpt>
      <trkpt lat="45.75604" lon="4.62278">
        <ele>742.28</ele>
        <time>2013-01-19T09:01:40Z</time>
      </trkpt>
      <trkpt lat="45.75599" lon="4.62253">
        <ele>745.64</ele>
        <time>2013-01-19T09:01:49Z</time>
      </trkpt>
      <trkpt lat="45.75598" lon="4.6222">
        <ele>746.12</ele>
        <time>2013-01-19T09:01:59Z</time>
      </trkpt>
      <trkpt lat="45.75598" lon="4.6219">
        <ele>747.08</ele>
        <time>2013-01-19T09:02:08Z</time>
      </trkpt>
      <trkpt lat="45.75599" lon="4.6216">
        <ele>747.56</ele>
        <time>2013-01-19T09:02:16Z</time>
      </trkpt>
      <trkpt lat="45.756" lon="4.62128">
        <ele>748.52</ele>
        <time>2013-01-19T09:02:25Z</time>
      </trkpt>
      <trkpt lat="45.75601" lon="4.62113">
        <ele>750.45</ele>
        <time>2013-01-19T09:02:34Z</time>
      </trkpt>
      <trkpt lat="45.75603" lon="4.6209">
        <ele>752.37</ele>
        <time>2013-01-19T09:02:45Z</time>
      </trkpt>
      <trkpt lat="45.75601" lon="4.62068">
        <ele>755.25</ele>
        <time>2013-01-19T09:02:55Z</time>
      </trkpt>
      <trkpt lat="45.756" lon="4.62052">
        <ele>753.81</ele>
        <time>2013-01-19T09:03:02Z</time>
      </trkpt>
      <trkpt lat="45.75601" lon="4.62042">
        <ele>752.85</ele>
        <time>2013-01-19T09:03:07Z</time>
      </trkpt>
      <trkpt lat="45.75601" lon="4.62039">
        <ele>752.85</ele>
        <time>2013-01-19T09:03:09Z</time>
      </trkpt>
      <trkpt lat="45.75598" lon="4.62013">
        <ele>755.25</ele>
        <time>2013-01-19T09:03:20Z</time>
      </trkpt>
      <trkpt lat="45.75598" lon="4.61973">
        <ele>756.21</ele>
        <time>2013-01-19T09:03:31Z</time>
      </trkpt>
      <trkpt lat="45.75599" lon="4.61925">
        <ele>757.18</ele>
        <time>2013-01-19T09:03:42Z</time>
      </trkpt>
      <trkpt lat="45.75599" lon="4.61892">
        <ele>757.66</ele>
        <time>2013-01-19T09:03:51Z</time>
      </trkpt>
      <trkpt lat="45.75598" lon="4.61849">
        <ele>757.66</ele>
        <time>2013-01-19T09:04:01Z</time>
      </trkpt>
      <trkpt lat="45.75603" lon="4.61813">
        <ele>757.66</ele>
        <time>2013-01-19T09:04:12Z</time>
      </trkpt>
      <trkpt lat="45.75605" lon="4.61789">
        <ele>760.06</ele>
        <time>2013-01-19T09:04:21Z</time>
      </trkpt>
      <trkpt lat="45.75599" lon="4.61787">
        <ele>759.58</ele>
        <time>2013-01-19T09:04:24Z</time>
      </trkpt>
      <trkpt lat="45.75584" lon="4.61772">
        <ele>762.46</ele>
        <time>2013-01-19T09:04:36Z</time>
      </trkpt>
      <trkpt lat="45.75579" lon="4.6176">
        <ele>764.87</ele>
        <time>2013-01-19T09:04:44Z</time>
      </trkpt>
      <trkpt lat="45.75568" lon="4.61744">
        <ele>765.83</ele>
        <time>2013-01-19T09:04:55Z</time>
      </trkpt>
      <trkpt lat="45.75551" lon="4.61724">
        <ele>769.19</ele>
        <time>2013-01-19T09:05:07Z</time>
      </trkpt>
      <trkpt lat="45.75541" lon="4.61715">
        <ele>767.75</ele>
        <time>2013-01-19T09:05:13Z</time>
      </trkpt>
      <trkpt lat="45.75534" lon="4.61707">
        <ele>767.75</ele>
        <time>2013-01-19T09:05:21Z</time>
      </trkpt>
      <trkpt lat="45.75527" lon="4.61698">
        <ele>767.27</ele>
        <time>2013-01-19T09:05:27Z</time>
      </trkpt>
      <trkpt lat="45.75518" lon="4.61687">
        <ele>767.75</ele>
        <time>2013-01-19T09:05:34Z</time>
      </trkpt>
      <trkpt lat="45.7551" lon="4.61679">
        <ele>768.71</ele>
        <time>2013-01-19T09:05:42Z</time>
      </trkpt>
      <trkpt lat="45.75502" lon="4.61672">
        <ele>770.15</ele>
        <time>2013-01-19T09:05:49Z</time>
      </trkpt>
      <trkpt lat="45.75496" lon="4.61668">
        <ele>771.11</ele>
        <time>2013-01-19T09:05:53Z</time>
      </trkpt>
      <trkpt lat="45.75486" lon="4.61661">
        <ele>771.6</ele>
        <time>2013-01-19T09:06:00Z</time>
      </trkpt>
      <trkpt lat="45.75478" lon="4.61654">
        <ele>772.56</ele>
        <time>2013-01-19T09:06:07Z</time>
      </trkpt>
      <trkpt lat="45.75471" lon="4.61647">
        <ele>774.48</ele>
        <time>2013-01-19T09:06:17Z</time>
      </trkpt>
      <trkpt lat="45.75461" lon="4.6164">
        <ele>779.29</ele>
        <time>2013-01-19T09:06:28Z</time>
      </trkpt>
      <trkpt lat="45.75449" lon="4.61634">
        <ele>782.17</ele>
        <time>2013-01-19T09:06:36Z</time>
      </trkpt>
      <trkpt lat="45.75422" lon="4.61623">
        <ele>785.53</ele>
        <time>2013-01-19T09:06:47Z</time>
      </trkpt>
      <trkpt lat="45.75388" lon="4.61601">
        <ele>788.42</ele>
        <time>2013-01-19T09:07:00Z</time>
      </trkpt>
      <trkpt lat="45.75362" lon="4.61587">
        <ele>792.26</ele>
        <time>2013-01-19T09:07:11Z</time>
      </trkpt>
      <trkpt lat="45.75334" lon="4.61579">
        <ele>796.11</ele>
        <time>2013-01-19T09:07:21Z</time>
      </trkpt>
      <trkpt lat="45.75307" lon="4.61574">
        <ele>796.11</ele>
        <time>2013-01-19T09:07:30Z</time>
      </trkpt>
      <trkpt lat="45.75295" lon="4.61551">
        <ele>795.15</ele>
        <time>2013-01-19T09:07:38Z</time>
      </trkpt>
      <trkpt lat="45.75291" lon="4.61513">
        <ele>791.78</ele>
        <time>2013-01-19T09:07:47Z</time>
      </trkpt>
      <trkpt lat="45.75285" lon="4.61467">
        <ele>788.42</ele>
        <time>2013-01-19T09:07:58Z</time>
      </trkpt>
      <trkpt lat="45.7528" lon="4.61427">
        <ele>784.57</ele>
        <time>2013-01-19T09:08:07Z</time>
      </trkpt>
      <trkpt lat="45.75277" lon="4.61396">
        <ele>784.09</ele>
        <time>2013-01-19T09:08:15Z</time>
      </trkpt>
      <trkpt lat="45.75274" lon="4.61363">
        <ele>783.61</ele>
        <time>2013-01-19T09:08:24Z</time>
      </trkpt>
      <trkpt lat="45.75266" lon="4.61327">
        <ele>782.65</ele>
        <time>2013-01-19T09:08:33Z</time>
      </trkpt>
      <trkpt lat="45.75259" lon="4.61282">
        <ele>781.21</ele>
        <time>2013-01-19T09:08:43Z</time>
      </trkpt>
      <trkpt lat="45.75253" lon="4.61241">
        <ele>777.84</ele>
        <time>2013-01-19T09:08:53Z</time>
      </trkpt>
      <trkpt lat="45.75242" lon="4.61199">
        <ele>774</ele>
        <time>2013-01-19T09:09:03Z</time>
      </trkpt>
      <trkpt lat="45.7523" lon="4.61175">
        <ele>772.08</ele>
        <time>2013-01-19T09:09:09Z</time>
      </trkpt>
      <trkpt lat="45.75205" lon="4.61147">
        <ele>769.67</ele>
        <time>2013-01-19T09:09:19Z</time>
      </trkpt>
      <trkpt lat="45.75178" lon="4.61106">
        <ele>771.11</ele>
        <time>2013-01-19T09:09:32Z</time>
      </trkpt>
      <trkpt lat="45.75162" lon="4.6108">
        <ele>772.56</ele>
        <time>2013-01-19T09:09:41Z</time>
      </trkpt>
      <trkpt lat="45.7515" lon="4.61055">
        <ele>775.44</ele>
        <time>2013-01-19T09:09:49Z</time>
      </trkpt>
      <trkpt lat="45.75136" lon="4.61034">
        <ele>774.96</ele>
        <time>2013-01-19T09:09:57Z</time>
      </trkpt>
      <trkpt lat="45.75111" lon="4.61023">
        <ele>773.52</ele>
        <time>2013-01-19T09:10:06Z</time>
      </trkpt>
      <trkpt lat="45.75086" lon="4.61023">
        <ele>773.52</ele>
        <time>2013-01-19T09:10:15Z</time>
      </trkpt>
      <trkpt lat="45.75064" lon="4.61023">
        <ele>774</ele>
        <time>2013-01-19T09:10:23Z</time>
      </trkpt>
      <trkpt lat="45.75039" lon="4.61024">
        <ele>775.92</ele>
        <time>2013-01-19T09:10:32Z</time>
      </trkpt>
      <trkpt lat="45.75014" lon="4.61032">
        <ele>774.96</ele>
        <time>2013-01-19T09:10:41Z</time>
      </trkpt>
      <trkpt lat="45.74991" lon="4.61036">
        <ele>774.96</ele>
        <time>2013-01-19T09:10:49Z</time>
      </trkpt>
      <trkpt lat="45.74973" lon="4.61053">
        <ele>772.08</ele>
        <time>2013-01-19T09:10:58Z</time>
      </trkpt>
      <trkpt lat="45.74956" lon="4.61063">
        <ele>771.11</ele>
        <time>2013-01-19T09:11:05Z</time>
      </trkpt>
      <trkpt lat="45.74938" lon="4.61073">
        <ele>769.67</ele>
        <time>2013-01-19T09:11:12Z</time>
      </trkpt>
      <trkpt lat="45.74911" lon="4.61091">
        <ele>765.83</ele>
        <time>2013-01-19T09:11:21Z</time>
      </trkpt>
      <trkpt lat="45.74893" lon="4.61101">
        <ele>763.9</ele>
        <time>2013-01-19T09:11:29Z</time>
      </trkpt>
      <trkpt lat="45.74888" lon="4.611">
        <ele>764.39</ele>
        <time>2013-01-19T09:11:35Z</time>
      </trkpt>
      <trkpt lat="45.74887" lon="4.611">
        <ele>762.46</ele>
        <time>2013-01-19T09:11:47Z</time>
      </trkpt>
      <trkpt lat="45.74885" lon="4.61102">
        <ele>757.66</ele>
        <time>2013-01-19T09:12:01Z</time>
      </trkpt>
      <trkpt lat="45.74886" lon="4.61102">
        <ele>756.21</ele>
        <time>2013-01-19T09:12:11Z</time>
      </trkpt>
      <trkpt lat="45.74884" lon="4.611">
        <ele>755.73</ele>
        <time>2013-01-19T09:12:19Z</time>
      </trkpt>
      <trkpt lat="45.74874" lon="4.61097">
        <ele>755.73</ele>
        <time>2013-01-19T09:12:26Z</time>
      </trkpt>
      <trkpt lat="45.74865" lon="4.61098">
        <ele>755.25</ele>
        <time>2013-01-19T09:12:30Z</time>
      </trkpt>
      <trkpt lat="45.74832" lon="4.61111">
        <ele>751.41</ele>
        <time>2013-01-19T09:12:41Z</time>
      </trkpt>
      <trkpt lat="45.74813" lon="4.61131">
        <ele>747.08</ele>
        <time>2013-01-19T09:12:50Z</time>
      </trkpt>
      <trkpt lat="45.74797" lon="4.61148">
        <ele>744.68</ele>
        <time>2013-01-19T09:12:57Z</time>
      </trkpt>
      <trkpt lat="45.7479" lon="4.61148">
        <ele>741.79</ele>
        <time>2013-01-19T09:13:05Z</time>
      </trkpt>
      <trkpt lat="45.74778" lon="4.6115">
        <ele>740.35</ele>
        <time>2013-01-19T09:13:11Z</time>
      </trkpt>
      <trkpt lat="45.7477" lon="4.61156">
        <ele>739.87</ele>
        <time>2013-01-19T09:13:15Z</time>
      </trkpt>
      <trkpt lat="45.74764" lon="4.61149">
        <ele>739.87</ele>
        <time>2013-01-19T09:13:19Z</time>
      </trkpt>
      <trkpt lat="45.74748" lon="4.61132">
        <ele>739.87</ele>
        <time>2013-01-19T09:13:28Z</time>
      </trkpt>
      <trkpt lat="45.74724" lon="4.61127">
        <ele>739.87</ele>
        <time>2013-01-19T09:13:38Z</time>
      </trkpt>
      <trkpt lat="45.74702" lon="4.61131">
        <ele>741.79</ele>
        <time>2013-01-19T09:13:48Z</time>
      </trkpt>
      <trkpt lat="45.74681" lon="4.61132">
        <ele>743.72</ele>
        <time>2013-01-19T09:13:59Z</time>
      </trkpt>
      <trkpt lat="45.74668" lon="4.61134">
        <ele>746.12</ele>
        <time>2013-01-19T09:14:10Z</time>
      </trkpt>
      <trkpt lat="45.74657" lon="4.6114">
        <ele>750.93</ele>
        <time>2013-01-19T09:14:22Z</time>
      </trkpt>
      <trkpt lat="45.74643" lon="4.61144">
        <ele>756.21</ele>
        <time>2013-01-19T09:14:34Z</time>
      </trkpt>
      <trkpt lat="45.74632" lon="4.61147">
        <ele>761.02</ele>
        <time>2013-01-19T09:14:45Z</time>
      </trkpt>
      <trkpt lat="45.74623" lon="4.61147">
        <ele>763.9</ele>
        <time>2013-01-19T09:14:55Z</time>
      </trkpt>
      <trkpt lat="45.74616" lon="4.61147">
        <ele>768.71</ele>
        <time>2013-01-19T09:15:06Z</time>
      </trkpt>
      <trkpt lat="45.746" lon="4.61146">
        <ele>771.11</ele>
        <time>2013-01-19T09:15:15Z</time>
      </trkpt>
      <trkpt lat="45.74586" lon="4.61146">
        <ele>773.52</ele>
        <time>2013-01-19T09:15:26Z</time>
      </trkpt>
      <trkpt lat="45.74577" lon="4.61146">
        <ele>775.92</ele>
        <time>2013-01-19T09:15:36Z</time>
      </trkpt>
      <trkpt lat="45.7457" lon="4.61146">
        <ele>777.36</ele>
        <time>2013-01-19T09:15:40Z</time>
      </trkpt>
      <trkpt lat="45.74556" lon="4.61149">
        <ele>779.29</ele>
        <time>2013-01-19T09:15:51Z</time>
      </trkpt>
      <trkpt lat="45.74545" lon="4.61156">
        <ele>782.65</ele>
        <time>2013-01-19T09:16:02Z</time>
      </trkpt>
      <trkpt lat="45.74534" lon="4.61162">
        <ele>785.53</ele>
        <time>2013-01-19T09:16:14Z</time>
      </trkpt>
      <trkpt lat="45.7453" lon="4.61161">
        <ele>786.98</ele>
        <time>2013-01-19T09:16:24Z</time>
      </trkpt>
      <trkpt lat="45.74513" lon="4.61154">
        <ele>789.38</ele>
        <time>2013-01-19T09:16:34Z</time>
      </trkpt>
      <trkpt lat="45.74502" lon="4.6115">
        <ele>791.3</ele>
        <time>2013-01-19T09:16:43Z</time>
      </trkpt>
      <trkpt lat="45.74494" lon="4.61146">
        <ele>792.26</ele>
        <time>2013-01-19T09:16:54Z</time>
      </trkpt>
      <trkpt lat="45.74476" lon="4.6114">
        <ele>795.63</ele>
        <time>2013-01-19T09:17:03Z</time>
      </trkpt>
      <trkpt lat="45.74463" lon="4.61133">
        <ele>800.92</ele>
        <time>2013-01-19T09:17:16Z</time>
      </trkpt>
      <trkpt lat="45.74452" lon="4.61127">
        <ele>804.28</ele>
        <time>2013-01-19T09:17:26Z</time>
      </trkpt>
      <trkpt lat="45.74435" lon="4.61124">
        <ele>806.68</ele>
        <time>2013-01-19T09:17:36Z</time>
      </trkpt>
      <trkpt lat="45.74418" lon="4.61125">
        <ele>808.61</ele>
        <time>2013-01-19T09:17:47Z</time>
      </trkpt>
      <trkpt lat="45.74406" lon="4.61119">
        <ele>810.53</ele>
        <time>2013-01-19T09:17:57Z</time>
      </trkpt>
      <trkpt lat="45.74405" lon="4.61118">
        <ele>810.53</ele>
        <time>2013-01-19T09:17:58Z</time>
      </trkpt>
      <trkpt lat="45.74387" lon="4.61104">
        <ele>813.89</ele>
        <time>2013-01-19T09:18:09Z</time>
      </trkpt>
      <trkpt lat="45.74367" lon="4.61081">
        <ele>812.93</ele>
        <time>2013-01-19T09:18:18Z</time>
      </trkpt>
      <trkpt lat="45.74343" lon="4.61065">
        <ele>814.85</ele>
        <time>2013-01-19T09:18:28Z</time>
      </trkpt>
      <trkpt lat="45.74316" lon="4.61058">
        <ele>815.82</ele>
        <time>2013-01-19T09:18:37Z</time>
      </trkpt>
      <trkpt lat="45.74284" lon="4.6106">
        <ele>815.82</ele>
        <time>2013-01-19T09:18:48Z</time>
      </trkpt>
      <trkpt lat="45.74259" lon="4.61072">
        <ele>813.89</ele>
        <time>2013-01-19T09:18:57Z</time>
      </trkpt>
      <trkpt lat="45.74244" lon="4.6109">
        <ele>813.89</ele>
        <time>2013-01-19T09:19:06Z</time>
      </trkpt>
      <trkpt lat="45.74222" lon="4.61123">
        <ele>814.37</ele>
        <time>2013-01-19T09:19:17Z</time>
      </trkpt>
      <trkpt lat="45.74193" lon="4.61146">
        <ele>810.53</ele>
        <time>2013-01-19T09:19:28Z</time>
      </trkpt>
      <trkpt lat="45.74176" lon="4.61177">
        <ele>809.09</ele>
        <time>2013-01-19T09:19:38Z</time>
      </trkpt>
      <trkpt lat="45.74166" lon="4.61204">
        <ele>806.68</ele>
        <time>2013-01-19T09:19:46Z</time>
      </trkpt>
      <trkpt lat="45.74147" lon="4.61239">
        <ele>803.8</ele>
        <time>2013-01-19T09:19:57Z</time>
      </trkpt>
      <trkpt lat="45.74142" lon="4.61244">
        <ele>803.8</ele>
        <time>2013-01-19T09:20:03Z</time>
      </trkpt>
      <trkpt lat="45.74136" lon="4.61249">
        <ele>802.84</ele>
        <time>2013-01-19T09:20:13Z</time>
      </trkpt>
      <trkpt lat="45.74111" lon="4.61275">
        <ele>793.22</ele>
        <time>2013-01-19T09:20:24Z</time>
      </trkpt>
      <trkpt lat="45.74106" lon="4.61279">
        <ele>791.78</ele>
        <time>2013-01-19T09:20:31Z</time>
      </trkpt>
      <trkpt lat="45.74092" lon="4.61293">
        <ele>791.78</ele>
        <time>2013-01-19T09:20:39Z</time>
      </trkpt>
      <trkpt lat="45.74078" lon="4.61317">
        <ele>790.82</ele>
        <time>2013-01-19T09:20:49Z</time>
      </trkpt>
      <trkpt lat="45.74067" lon="4.61348">
        <ele>789.86</ele>
        <time>2013-01-19T09:20:58Z</time>
      </trkpt>
      <trkpt lat="45.74047" lon="4.61382">
        <ele>786.02</ele>
        <time>2013-01-19T09:21:07Z</time>
      </trkpt>
      <trkpt lat="45.74019" lon="4.61411">
        <ele>779.29</ele>
        <time>2013-01-19T09:21:17Z</time>
      </trkpt>
      <trkpt lat="45.73993" lon="4.61424">
        <ele>776.88</ele>
        <time>2013-01-19T09:21:28Z</time>
      </trkpt>
      <trkpt lat="45.73965" lon="4.61424">
        <ele>773.04</ele>
        <time>2013-01-19T09:21:38Z</time>
      </trkpt>
      <trkpt lat="45.73939" lon="4.61427">
        <ele>768.71</ele>
        <time>2013-01-19T09:21:48Z</time>
      </trkpt>
      <trkpt lat="45.73913" lon="4.61441">
        <ele>766.79</ele>
        <time>2013-01-19T09:21:59Z</time>
      </trkpt>
      <trkpt lat="45.73901" lon="4.61475">
        <ele>766.79</ele>
        <time>2013-01-19T09:22:08Z</time>
      </trkpt>
      <trkpt lat="45.73889" lon="4.61501">
        <ele>771.11</ele>
        <time>2013-01-19T09:22:16Z</time>
      </trkpt>
      <trkpt lat="45.73864" lon="4.61528">
        <ele>773.52</ele>
        <time>2013-01-19T09:22:25Z</time>
      </trkpt>
      <trkpt lat="45.73835" lon="4.61551">
        <ele>762.94</ele>
        <time>2013-01-19T09:22:35Z</time>
      </trkpt>
      <trkpt lat="45.73807" lon="4.61558">
        <ele>758.14</ele>
        <time>2013-01-19T09:22:44Z</time>
      </trkpt>
      <trkpt lat="45.73794" lon="4.61557">
        <ele>755.25</ele>
        <time>2013-01-19T09:22:51Z</time>
      </trkpt>
      <trkpt lat="45.73795" lon="4.61556">
        <ele>754.77</ele>
        <time>2013-01-19T09:22:55Z</time>
      </trkpt>
      <trkpt lat="45.73779" lon="4.61551">
        <ele>752.37</ele>
        <time>2013-01-19T09:23:03Z</time>
      </trkpt>
      <trkpt lat="45.73747" lon="4.6155">
        <ele>748.04</ele>
        <time>2013-01-19T09:23:14Z</time>
      </trkpt>
      <trkpt lat="45.73721" lon="4.61559">
        <ele>744.2</ele>
        <time>2013-01-19T09:23:23Z</time>
      </trkpt>
      <trkpt lat="45.73707" lon="4.61579">
        <ele>740.35</ele>
        <time>2013-01-19T09:23:30Z</time>
      </trkpt>
      <trkpt lat="45.73691" lon="4.61613">
        <ele>735.07</ele>
        <time>2013-01-19T09:23:39Z</time>
      </trkpt>
      <trkpt lat="45.73675" lon="4.61631">
        <ele>730.26</ele>
        <time>2013-01-19T09:23:46Z</time>
      </trkpt>
      <trkpt lat="45.73658" lon="4.61636">
        <ele>727.86</ele>
        <time>2013-01-19T09:23:53Z</time>
      </trkpt>
      <trkpt lat="45.73637" lon="4.61624">
        <ele>726.41</ele>
        <time>2013-01-19T09:24:01Z</time>
      </trkpt>
      <trkpt lat="45.73612" lon="4.61607">
        <ele>726.41</ele>
        <time>2013-01-19T09:24:11Z</time>
      </trkpt>
      <trkpt lat="45.73597" lon="4.6158">
        <ele>726.41</ele>
        <time>2013-01-19T09:24:20Z</time>
      </trkpt>
      <trkpt lat="45.73585" lon="4.6155">
        <ele>727.37</ele>
        <time>2013-01-19T09:24:29Z</time>
      </trkpt>
      <trkpt lat="45.73578" lon="4.61517">
        <ele>728.34</ele>
        <time>2013-01-19T09:24:38Z</time>
      </trkpt>
      <trkpt lat="45.73576" lon="4.61483">
        <ele>728.34</ele>
        <time>2013-01-19T09:24:47Z</time>
      </trkpt>
      <trkpt lat="45.73573" lon="4.61452">
        <ele>726.89</ele>
        <time>2013-01-19T09:24:55Z</time>
      </trkpt>
      <trkpt lat="45.73568" lon="4.61416">
        <ele>725.93</ele>
        <time>2013-01-19T09:25:04Z</time>
      </trkpt>
      <trkpt lat="45.73567" lon="4.61377">
        <ele>724.97</ele>
        <time>2013-01-19T09:25:15Z</time>
      </trkpt>
      <trkpt lat="45.73558" lon="4.61348">
        <ele>724.97</ele>
        <time>2013-01-19T09:25:23Z</time>
      </trkpt>
      <trkpt lat="45.7354" lon="4.61317">
        <ele>724.49</ele>
        <time>2013-01-19T09:25:34Z</time>
      </trkpt>
      <trkpt lat="45.73522" lon="4.61296">
        <ele>720.65</ele>
        <time>2013-01-19T09:25:43Z</time>
      </trkpt>
      <trkpt lat="45.73512" lon="4.61281">
        <ele>716.8</ele>
        <time>2013-01-19T09:25:51Z</time>
      </trkpt>
      <trkpt lat="45.73509" lon="4.6128">
        <ele>713.92</ele>
        <time>2013-01-19T09:25:59Z</time>
      </trkpt>
      <trkpt lat="45.73509" lon="4.61278">
        <ele>713.44</ele>
        <time>2013-01-19T09:26:04Z</time>
      </trkpt>
      <trkpt lat="45.73504" lon="4.61264">
        <ele>711.51</ele>
        <time>2013-01-19T09:26:11Z</time>
      </trkpt>
      <trkpt lat="45.73498" lon="4.61243">
        <ele>711.51</ele>
        <time>2013-01-19T09:26:18Z</time>
      </trkpt>
      <trkpt lat="45.73484" lon="4.61216">
        <ele>710.55</ele>
        <time>2013-01-19T09:26:26Z</time>
      </trkpt>
      <trkpt lat="45.73474" lon="4.61194">
        <ele>710.07</ele>
        <time>2013-01-19T09:26:33Z</time>
      </trkpt>
      <trkpt lat="45.73473" lon="4.61169">
        <ele>709.11</ele>
        <time>2013-01-19T09:26:40Z</time>
      </trkpt>
      <trkpt lat="45.73472" lon="4.61147">
        <ele>709.11</ele>
        <time>2013-01-19T09:26:46Z</time>
      </trkpt>
      <trkpt lat="45.73469" lon="4.61119">
        <ele>707.19</ele>
        <time>2013-01-19T09:26:54Z</time>
      </trkpt>
      <trkpt lat="45.73467" lon="4.61109">
        <ele>707.67</ele>
        <time>2013-01-19T09:27:00Z</time>
      </trkpt>
      <trkpt lat="45.73459" lon="4.61094">
        <ele>706.71</ele>
        <time>2013-01-19T09:27:07Z</time>
      </trkpt>
      <trkpt lat="45.73453" lon="4.61092">
        <ele>706.23</ele>
        <time>2013-01-19T09:27:09Z</time>
      </trkpt>
      <trkpt lat="45.73426" lon="4.61091">
        <ele>706.71</ele>
        <time>2013-01-19T09:27:18Z</time>
      </trkpt>
      <trkpt lat="45.73407" lon="4.61083">
        <ele>707.19</ele>
        <time>2013-01-19T09:27:26Z</time>
      </trkpt>
      <trkpt lat="45.73392" lon="4.61075">
        <ele>707.67</ele>
        <time>2013-01-19T09:27:34Z</time>
      </trkpt>
      <trkpt lat="45.73383" lon="4.61069">
        <ele>707.19</ele>
        <time>2013-01-19T09:27:40Z</time>
      </trkpt>
      <trkpt lat="45.73367" lon="4.61061">
        <ele>708.15</ele>
        <time>2013-01-19T09:27:47Z</time>
      </trkpt>
      <trkpt lat="45.73363" lon="4.6106">
        <ele>708.63</ele>
        <time>2013-01-19T09:27:50Z</time>
      </trkpt>
      <trkpt lat="45.73343" lon="4.6105">
        <ele>710.07</ele>
        <time>2013-01-19T09:28:00Z</time>
      </trkpt>
      <trkpt lat="45.73329" lon="4.61042">
        <ele>711.51</ele>
        <time>2013-01-19T09:28:07Z</time>
      </trkpt>
      <trkpt lat="45.73312" lon="4.61024">
        <ele>711.99</ele>
        <time>2013-01-19T09:28:16Z</time>
      </trkpt>
      <trkpt lat="45.73304" lon="4.61014">
        <ele>711.03</ele>
        <time>2013-01-19T09:28:23Z</time>
      </trkpt>
      <trkpt lat="45.73297" lon="4.60999">
        <ele>711.99</ele>
        <time>2013-01-19T09:28:30Z</time>
      </trkpt>
      <trkpt lat="45.73295" lon="4.60994">
        <ele>712.95</ele>
        <time>2013-01-19T09:28:41Z</time>
      </trkpt>
      <trkpt lat="45.73291" lon="4.60979">
        <ele>712.47</ele>
        <time>2013-01-19T09:28:49Z</time>
      </trkpt>
      <trkpt lat="45.73283" lon="4.60941">
        <ele>713.44</ele>
        <time>2013-01-19T09:29:01Z</time>
      </trkpt>
      <trkpt lat="45.73276" lon="4.6091">
        <ele>713.92</ele>
        <time>2013-01-19T09:29:10Z</time>
      </trkpt>
      <trkpt lat="45.73273" lon="4.60897">
        <ele>713.92</ele>
        <time>2013-01-19T09:29:16Z</time>
      </trkpt>
      <trkpt lat="45.73267" lon="4.60876">
        <ele>715.36</ele>
        <time>2013-01-19T09:29:24Z</time>
      </trkpt>
      <trkpt lat="45.7326" lon="4.60843">
        <ele>718.72</ele>
        <time>2013-01-19T09:29:34Z</time>
      </trkpt>
      <trkpt lat="45.73251" lon="4.60808">
        <ele>723.53</ele>
        <time>2013-01-19T09:29:45Z</time>
      </trkpt>
      <trkpt lat="45.7324" lon="4.60775">
        <ele>726.89</ele>
        <time>2013-01-19T09:29:55Z</time>
      </trkpt>
      <trkpt lat="45.73229" lon="4.60759">
        <ele>728.82</ele>
        <time>2013-01-19T09:30:02Z</time>
      </trkpt>
      <trkpt lat="45.73216" lon="4.60743">
        <ele>730.74</ele>
        <time>2013-01-19T09:30:10Z</time>
      </trkpt>
      <trkpt lat="45.73206" lon="4.60727">
        <ele>733.62</ele>
        <time>2013-01-19T09:30:19Z</time>
      </trkpt>
      <trkpt lat="45.73199" lon="4.60706">
        <ele>736.99</ele>
        <time>2013-01-19T09:30:30Z</time>
      </trkpt>
      <trkpt lat="45.73189" lon="4.6069">
        <ele>738.43</ele>
        <time>2013-01-19T09:30:40Z</time>
      </trkpt>
      <trkpt lat="45.73175" lon="4.60671">
        <ele>740.83</ele>
        <time>2013-01-19T09:30:52Z</time>
      </trkpt>
      <trkpt lat="45.73169" lon="4.60664">
        <ele>741.31</ele>
        <time>2013-01-19T09:31:00Z</time>
      </trkpt>
      <trkpt lat="45.73169" lon="4.60664">
        <ele>741.79</ele>
        <time>2013-01-19T09:31:11Z</time>
      </trkpt>
      <trkpt lat="45.73169" lon="4.60665">
        <ele>742.28</ele>
        <time>2013-01-19T09:31:30Z</time>
      </trkpt>
      <trkpt lat="45.73169" lon="4.60665">
        <ele>742.28</ele>
        <time>2013-01-19T09:31:52Z</time>
      </trkpt>
      <trkpt lat="45.73169" lon="4.60665">
        <ele>742.28</ele>
        <time>2013-01-19T09:32:07Z</time>
      </trkpt>
      <trkpt lat="45.73169" lon="4.60666">
        <ele>742.28</ele>
        <time>2013-01-19T09:32:25Z</time>
      </trkpt>
      <trkpt lat="45.73168" lon="4.60665">
        <ele>742.28</ele>
        <time>2013-01-19T09:32:32Z</time>
      </trkpt>
      <trkpt lat="45.73161" lon="4.60651">
        <ele>743.24</ele>
        <time>2013-01-19T09:32:42Z</time>
      </trkpt>
      <trkpt lat="45.73152" lon="4.60638">
        <ele>744.2</ele>
        <time>2013-01-19T09:32:52Z</time>
      </trkpt>
      <trkpt lat="45.73144" lon="4.60632">
        <ele>742.28</ele>
        <time>2013-01-19T09:32:57Z</time>
      </trkpt>
      <trkpt lat="45.7314" lon="4.60627">
        <ele>740.35</ele>
        <time>2013-01-19T09:33:04Z</time>
      </trkpt>
      <trkpt lat="45.73139" lon="4.60628">
        <ele>740.83</ele>
        <time>2013-01-19T09:33:13Z</time>
      </trkpt>
      <trkpt lat="45.7314" lon="4.6063">
        <ele>739.87</ele>
        <time>2013-01-19T09:33:24Z</time>
      </trkpt>
      <trkpt lat="45.7314" lon="4.60629">
        <ele>739.87</ele>
        <time>2013-01-19T09:33:43Z</time>
      </trkpt>
      <trkpt lat="45.73139" lon="4.60629">
        <ele>740.35</ele>
        <time>2013-01-19T09:33:59Z</time>
      </trkpt>
      <trkpt lat="45.73139" lon="4.60629">
        <ele>739.87</ele>
        <time>2013-01-19T09:34:11Z</time>
      </trkpt>
      <trkpt lat="45.73141" lon="4.60629">
        <ele>740.35</ele>
        <time>2013-01-19T09:34:17Z</time>
      </trkpt>
      <trkpt lat="45.73141" lon="4.60629">
        <ele>740.35</ele>
        <time>2013-01-19T09:34:27Z</time>
      </trkpt>
      <trkpt lat="45.73141" lon="4.60629">
        <ele>740.35</ele>
        <time>2013-01-19T09:34:29Z</time>
      </trkpt>
      <trkpt lat="45.73137" lon="4.60623">
        <ele>741.31</ele>
        <time>2013-01-19T09:34:33Z</time>
      </trkpt>
      <trkpt lat="45.73128" lon="4.6061">
        <ele>743.72</ele>
        <time>2013-01-19T09:34:42Z</time>
      </trkpt>
      <trkpt lat="45.73115" lon="4.60593">
        <ele>746.12</ele>
        <time>2013-01-19T09:34:54Z</time>
      </trkpt>
      <trkpt lat="45.73112" lon="4.60591">
        <ele>747.56</ele>
        <time>2013-01-19T09:34:59Z</time>
      </trkpt>
      <trkpt lat="45.73106" lon="4.60577">
        <ele>749.49</ele>
        <time>2013-01-19T09:35:08Z</time>
      </trkpt>
      <trkpt lat="45.731" lon="4.60569">
        <ele>752.85</ele>
        <time>2013-01-19T09:35:18Z</time>
      </trkpt>
      <trkpt lat="45.731" lon="4.60569">
        <ele>752.85</ele>
        <time>2013-01-19T09:35:27Z</time>
      </trkpt>
      <trkpt lat="45.731" lon="4.60572">
        <ele>752.37</ele>
        <time>2013-01-19T09:35:36Z</time>
      </trkpt>
      <trkpt lat="45.731" lon="4.60572">
        <ele>751.89</ele>
        <time>2013-01-19T09:35:55Z</time>
      </trkpt>
      <trkpt lat="45.73097" lon="4.60564">
        <ele>749</ele>
        <time>2013-01-19T09:36:03Z</time>
      </trkpt>
      <trkpt lat="45.7309" lon="4.60555">
        <ele>749.97</ele>
        <time>2013-01-19T09:36:09Z</time>
      </trkpt>
      <trkpt lat="45.73072" lon="4.60527">
        <ele>753.81</ele>
        <time>2013-01-19T09:36:25Z</time>
      </trkpt>
      <trkpt lat="45.7305" lon="4.60512">
        <ele>752.85</ele>
        <time>2013-01-19T09:36:40Z</time>
      </trkpt>
      <trkpt lat="45.73039" lon="4.60512">
        <ele>752.37</ele>
        <time>2013-01-19T09:36:54Z</time>
      </trkpt>
      <trkpt lat="45.7303" lon="4.60518">
        <ele>753.33</ele>
        <time>2013-01-19T09:37:07Z</time>
      </trkpt>
      <trkpt lat="45.73026" lon="4.60522">
        <ele>753.81</ele>
        <time>2013-01-19T09:37:11Z</time>
      </trkpt>
      <trkpt lat="45.73012" lon="4.6055">
        <ele>755.73</ele>
        <time>2013-01-19T09:37:27Z</time>
      </trkpt>
      <trkpt lat="45.72997" lon="4.60572">
        <ele>759.1</ele>
        <time>2013-01-19T09:37:42Z</time>
      </trkpt>
      <trkpt lat="45.72996" lon="4.60573">
        <ele>759.58</ele>
        <time>2013-01-19T09:37:43Z</time>
      </trkpt>
      <trkpt lat="45.72995" lon="4.60572">
        <ele>761.5</ele>
        <time>2013-01-19T09:37:59Z</time>
      </trkpt>
      <trkpt lat="45.7299" lon="4.60562">
        <ele>762.94</ele>
        <time>2013-01-19T09:38:16Z</time>
      </trkpt>
      <trkpt lat="45.72983" lon="4.60537">
        <ele>768.71</ele>
        <time>2013-01-19T09:38:32Z</time>
      </trkpt>
      <trkpt lat="45.72976" lon="4.60512">
        <ele>774.48</ele>
        <time>2013-01-19T09:38:48Z</time>
      </trkpt>
      <trkpt lat="45.72968" lon="4.60485">
        <ele>780.25</ele>
        <time>2013-01-19T09:39:04Z</time>
      </trkpt>
      <trkpt lat="45.72961" lon="4.6047">
        <ele>782.65</ele>
        <time>2013-01-19T09:39:21Z</time>
      </trkpt>
      <trkpt lat="45.72946" lon="4.60448">
        <ele>784.09</ele>
        <time>2013-01-19T09:39:40Z</time>
      </trkpt>
      <trkpt lat="45.72942" lon="4.60442">
        <ele>786.98</ele>
        <time>2013-01-19T09:40:00Z</time>
      </trkpt>
      <trkpt lat="45.72941" lon="4.6044">
        <ele>787.94</ele>
        <time>2013-01-19T09:40:03Z</time>
      </trkpt>
      <trkpt lat="45.72933" lon="4.6043">
        <ele>794.67</ele>
        <time>2013-01-19T09:40:19Z</time>
      </trkpt>
      <trkpt lat="45.72923" lon="4.60418">
        <ele>800.44</ele>
        <time>2013-01-19T09:40:32Z</time>
      </trkpt>
      <trkpt lat="45.72911" lon="4.60409">
        <ele>804.28</ele>
        <time>2013-01-19T09:40:42Z</time>
      </trkpt>
      <trkpt lat="45.72904" lon="4.60402">
        <ele>806.2</ele>
        <time>2013-01-19T09:40:50Z</time>
      </trkpt>
      <trkpt lat="45.72891" lon="4.60386">
        <ele>808.13</ele>
        <time>2013-01-19T09:41:05Z</time>
      </trkpt>
      <trkpt lat="45.72877" lon="4.60371">
        <ele>813.89</ele>
        <time>2013-01-19T09:41:22Z</time>
      </trkpt>
      <trkpt lat="45.72863" lon="4.60357">
        <ele>816.3</ele>
        <time>2013-01-19T09:41:36Z</time>
      </trkpt>
      <trkpt lat="45.72846" lon="4.60337">
        <ele>817.26</ele>
        <time>2013-01-19T09:41:51Z</time>
      </trkpt>
      <trkpt lat="45.72831" lon="4.60309">
        <ele>820.14</ele>
        <time>2013-01-19T09:42:07Z</time>
      </trkpt>
      <trkpt lat="45.72814" lon="4.60294">
        <ele>821.1</ele>
        <time>2013-01-19T09:42:20Z</time>
      </trkpt>
      <trkpt lat="45.72809" lon="4.6029">
        <ele>819.18</ele>
        <time>2013-01-19T09:42:27Z</time>
      </trkpt>
      <trkpt lat="45.72804" lon="4.60284">
        <ele>818.7</ele>
        <time>2013-01-19T09:42:39Z</time>
      </trkpt>
      <trkpt lat="45.72802" lon="4.60283">
        <ele>817.26</ele>
        <time>2013-01-19T09:42:50Z</time>
      </trkpt>
      <trkpt lat="45.72789" lon="4.60266">
        <ele>816.3</ele>
        <time>2013-01-19T09:43:05Z</time>
      </trkpt>
      <trkpt lat="45.72776" lon="4.60246">
        <ele>814.85</ele>
        <time>2013-01-19T09:43:23Z</time>
      </trkpt>
      <trkpt lat="45.72765" lon="4.60231">
        <ele>816.3</ele>
        <time>2013-01-19T09:43:35Z</time>
      </trkpt>
      <trkpt lat="45.72743" lon="4.6021">
        <ele>817.74</ele>
        <time>2013-01-19T09:43:54Z</time>
      </trkpt>
      <trkpt lat="45.72735" lon="4.60199">
        <ele>818.22</ele>
        <time>2013-01-19T09:44:02Z</time>
      </trkpt>
      <trkpt lat="45.72732" lon="4.6018">
        <ele>820.14</ele>
        <time>2013-01-19T09:44:15Z</time>
      </trkpt>
      <trkpt lat="45.7274" lon="4.60151">
        <ele>820.62</ele>
        <time>2013-01-19T09:44:31Z</time>
      </trkpt>
      <trkpt lat="45.72751" lon="4.6013">
        <ele>823.03</ele>
        <time>2013-01-19T09:44:46Z</time>
      </trkpt>
      <trkpt lat="45.72765" lon="4.60105">
        <ele>824.47</ele>
        <time>2013-01-19T09:45:04Z</time>
      </trkpt>
      <trkpt lat="45.72768" lon="4.601">
        <ele>824.95</ele>
        <time>2013-01-19T09:45:07Z</time>
      </trkpt>
      <trkpt lat="45.72762" lon="4.60092">
        <ele>825.43</ele>
        <time>2013-01-19T09:45:18Z</time>
      </trkpt>
      <trkpt lat="45.72764" lon="4.60093">
        <ele>825.43</ele>
        <time>2013-01-19T09:45:20Z</time>
      </trkpt>
      <trkpt lat="45.7274" lon="4.60095">
        <ele>826.39</ele>
        <time>2013-01-19T09:45:30Z</time>
      </trkpt>
      <trkpt lat="45.7271" lon="4.60098">
        <ele>827.35</ele>
        <time>2013-01-19T09:45:41Z</time>
      </trkpt>
      <trkpt lat="45.72673" lon="4.60095">
        <ele>827.35</ele>
        <time>2013-01-19T09:45:54Z</time>
      </trkpt>
      <trkpt lat="45.72635" lon="4.60088">
        <ele>828.79</ele>
        <time>2013-01-19T09:46:07Z</time>
      </trkpt>
      <trkpt lat="45.72603" lon="4.60074">
        <ele>829.27</ele>
        <time>2013-01-19T09:46:20Z</time>
      </trkpt>
      <trkpt lat="45.72584" lon="4.60054">
        <ele>829.27</ele>
        <time>2013-01-19T09:46:30Z</time>
      </trkpt>
      <trkpt lat="45.72561" lon="4.60021">
        <ele>830.72</ele>
        <time>2013-01-19T09:46:44Z</time>
      </trkpt>
      <trkpt lat="45.7254" lon="4.59998">
        <ele>834.08</ele>
        <time>2013-01-19T09:46:58Z</time>
      </trkpt>
      <trkpt lat="45.72511" lon="4.59963">
        <ele>838.89</ele>
        <time>2013-01-19T09:47:13Z</time>
      </trkpt>
      <trkpt lat="45.72486" lon="4.59926">
        <ele>841.77</ele>
        <time>2013-01-19T09:47:28Z</time>
      </trkpt>
      <trkpt lat="45.72473" lon="4.59914">
        <ele>839.85</ele>
        <time>2013-01-19T09:47:41Z</time>
      </trkpt>
      <trkpt lat="45.7247" lon="4.5991">
        <ele>840.33</ele>
        <time>2013-01-19T09:47:55Z</time>
      </trkpt>
      <trkpt lat="45.72461" lon="4.59897">
        <ele>839.37</ele>
        <time>2013-01-19T09:48:13Z</time>
      </trkpt>
      <trkpt lat="45.72441" lon="4.59869">
        <ele>837.93</ele>
        <time>2013-01-19T09:48:24Z</time>
      </trkpt>
      <trkpt lat="45.72418" lon="4.59825">
        <ele>836</ele>
        <time>2013-01-19T09:48:38Z</time>
      </trkpt>
      <trkpt lat="45.72399" lon="4.59789">
        <ele>836.48</ele>
        <time>2013-01-19T09:48:49Z</time>
      </trkpt>
      <trkpt lat="45.72373" lon="4.5974">
        <ele>838.41</ele>
        <time>2013-01-19T09:49:04Z</time>
      </trkpt>
      <trkpt lat="45.72353" lon="4.59699">
        <ele>839.85</ele>
        <time>2013-01-19T09:49:17Z</time>
      </trkpt>
      <trkpt lat="45.72333" lon="4.59659">
        <ele>840.81</ele>
        <time>2013-01-19T09:49:29Z</time>
      </trkpt>
      <trkpt lat="45.72309" lon="4.59611">
        <ele>839.85</ele>
        <time>2013-01-19T09:49:44Z</time>
      </trkpt>
      <trkpt lat="45.72294" lon="4.59592">
        <ele>836.48</ele>
        <time>2013-01-19T09:49:56Z</time>
      </trkpt>
      <trkpt lat="45.72282" lon="4.59576">
        <ele>831.68</ele>
        <time>2013-01-19T09:50:05Z</time>
      </trkpt>
      <trkpt lat="45.7228" lon="4.59566">
        <ele>830.72</ele>
        <time>2013-01-19T09:50:10Z</time>
      </trkpt>
      <trkpt lat="45.72279" lon="4.59552">
        <ele>827.83</ele>
        <time>2013-01-19T09:50:19Z</time>
      </trkpt>
      <trkpt lat="45.72281" lon="4.59544">
        <ele>826.87</ele>
        <time>2013-01-19T09:50:24Z</time>
      </trkpt>
      <trkpt lat="45.72285" lon="4.59516">
        <ele>829.76</ele>
        <time>2013-01-19T09:50:40Z</time>
      </trkpt>
      <trkpt lat="45.72285" lon="4.59485">
        <ele>831.68</ele>
        <time>2013-01-19T09:50:56Z</time>
      </trkpt>
      <trkpt lat="45.7228" lon="4.59435">
        <ele>834.56</ele>
        <time>2013-01-19T09:51:10Z</time>
      </trkpt>
      <trkpt lat="45.7228" lon="4.5943">
        <ele>835.04</ele>
        <time>2013-01-19T09:51:26Z</time>
      </trkpt>
      <trkpt lat="45.72275" lon="4.59395">
        <ele>836</ele>
        <time>2013-01-19T09:51:35Z</time>
      </trkpt>
      <trkpt lat="45.72277" lon="4.5933">
        <ele>838.41</ele>
        <time>2013-01-19T09:51:50Z</time>
      </trkpt>
      <trkpt lat="45.72287" lon="4.59284">
        <ele>839.85</ele>
        <time>2013-01-19T09:52:05Z</time>
      </trkpt>
      <trkpt lat="45.72294" lon="4.59256">
        <ele>837.93</ele>
        <time>2013-01-19T09:52:18Z</time>
      </trkpt>
      <trkpt lat="45.72302" lon="4.59208">
        <ele>832.16</ele>
        <time>2013-01-19T09:52:34Z</time>
      </trkpt>
      <trkpt lat="45.72311" lon="4.59147">
        <ele>830.24</ele>
        <time>2013-01-19T09:52:50Z</time>
      </trkpt>
      <trkpt lat="45.72329" lon="4.59103">
        <ele>829.76</ele>
        <time>2013-01-19T09:53:03Z</time>
      </trkpt>
      <trkpt lat="45.7236" lon="4.59061">
        <ele>828.31</ele>
        <time>2013-01-19T09:53:21Z</time>
      </trkpt>
      <trkpt lat="45.72363" lon="4.59053">
        <ele>827.35</ele>
        <time>2013-01-19T09:53:38Z</time>
      </trkpt>
      <trkpt lat="45.72369" lon="4.59045">
        <ele>827.83</ele>
        <time>2013-01-19T09:54:00Z</time>
      </trkpt>
      <trkpt lat="45.72371" lon="4.59041">
        <ele>827.83</ele>
        <time>2013-01-19T09:54:04Z</time>
      </trkpt>
      <trkpt lat="45.72377" lon="4.59029">
        <ele>825.43</ele>
        <time>2013-01-19T09:54:15Z</time>
      </trkpt>
      <trkpt lat="45.72392" lon="4.59001">
        <ele>824.47</ele>
        <time>2013-01-19T09:54:32Z</time>
      </trkpt>
      <trkpt lat="45.72423" lon="4.5895">
        <ele>823.51</ele>
        <time>2013-01-19T09:54:47Z</time>
      </trkpt>
      <trkpt lat="45.72447" lon="4.58898">
        <ele>823.99</ele>
        <time>2013-01-19T09:55:01Z</time>
      </trkpt>
      <trkpt lat="45.72464" lon="4.58839">
        <ele>824.95</ele>
        <time>2013-01-19T09:55:16Z</time>
      </trkpt>
      <trkpt lat="45.72469" lon="4.58789">
        <ele>826.87</ele>
        <time>2013-01-19T09:55:30Z</time>
      </trkpt>
      <trkpt lat="45.72463" lon="4.58746">
        <ele>828.79</ele>
        <time>2013-01-19T09:55:45Z</time>
      </trkpt>
      <trkpt lat="45.72446" lon="4.5869">
        <ele>833.6</ele>
        <time>2013-01-19T09:56:01Z</time>
      </trkpt>
      <trkpt lat="45.72424" lon="4.58632">
        <ele>841.29</ele>
        <time>2013-01-19T09:56:18Z</time>
      </trkpt>
      <trkpt lat="45.72403" lon="4.5858">
        <ele>851.38</ele>
        <time>2013-01-19T09:56:35Z</time>
      </trkpt>
      <trkpt lat="45.72395" lon="4.58513">
        <ele>856.19</ele>
        <time>2013-01-19T09:56:52Z</time>
      </trkpt>
      <trkpt lat="45.72389" lon="4.58445">
        <ele>853.79</ele>
        <time>2013-01-19T09:57:09Z</time>
      </trkpt>
      <trkpt lat="45.72378" lon="4.58377">
        <ele>843.69</ele>
        <time>2013-01-19T09:57:23Z</time>
      </trkpt>
      <trkpt lat="45.72371" lon="4.58315">
        <ele>842.25</ele>
        <time>2013-01-19T09:57:39Z</time>
      </trkpt>
      <trkpt lat="45.72358" lon="4.58265">
        <ele>837.93</ele>
        <time>2013-01-19T09:57:55Z</time>
      </trkpt>
      <trkpt lat="45.72344" lon="4.58243">
        <ele>832.16</ele>
        <time>2013-01-19T09:58:07Z</time>
      </trkpt>
      <trkpt lat="45.7234" lon="4.58223">
        <ele>829.27</ele>
        <time>2013-01-19T09:58:20Z</time>
      </trkpt>
      <trkpt lat="45.72339" lon="4.58218">
        <ele>829.76</ele>
        <time>2013-01-19T09:58:23Z</time>
      </trkpt>
      <trkpt lat="45.72338" lon="4.58209">
        <ele>830.72</ele>
        <time>2013-01-19T09:58:28Z</time>
      </trkpt>
      <trkpt lat="45.72327" lon="4.58186">
        <ele>830.72</ele>
        <time>2013-01-19T09:58:41Z</time>
      </trkpt>
      <trkpt lat="45.72329" lon="4.58169">
        <ele>834.56</ele>
        <time>2013-01-19T09:58:49Z</time>
      </trkpt>
      <trkpt lat="45.72329" lon="4.5813">
        <ele>836.96</ele>
        <time>2013-01-19T09:59:06Z</time>
      </trkpt>
      <trkpt lat="45.72329" lon="4.58126">
        <ele>836.96</ele>
        <time>2013-01-19T09:59:08Z</time>
      </trkpt>
      <trkpt lat="45.72322" lon="4.58097">
        <ele>837.93</ele>
        <time>2013-01-19T09:59:24Z</time>
      </trkpt>
      <trkpt lat="45.7232" lon="4.58078">
        <ele>841.77</ele>
        <time>2013-01-19T09:59:33Z</time>
      </trkpt>
      <trkpt lat="45.72317" lon="4.58071">
        <ele>843.69</ele>
        <time>2013-01-19T09:59:37Z</time>
      </trkpt>
      <trkpt lat="45.72315" lon="4.58052">
        <ele>849.46</ele>
        <time>2013-01-19T09:59:51Z</time>
      </trkpt>
      <trkpt lat="45.72309" lon="4.58052">
        <ele>848.5</ele>
        <time>2013-01-19T10:00:05Z</time>
      </trkpt>
      <trkpt lat="45.72308" lon="4.58053">
        <ele>848.98</ele>
        <time>2013-01-19T10:00:25Z</time>
      </trkpt>
      <trkpt lat="45.72307" lon="4.58053">
        <ele>848.98</ele>
        <time>2013-01-19T10:00:56Z</time>
      </trkpt>
      <trkpt lat="45.72307" lon="4.58053">
        <ele>848.98</ele>
        <time>2013-01-19T10:01:15Z</time>
      </trkpt>
      <trkpt lat="45.72304" lon="4.58051">
        <ele>848.5</ele>
        <time>2013-01-19T10:01:31Z</time>
      </trkpt>
      <trkpt lat="45.72302" lon="4.58046">
        <ele>851.38</ele>
        <time>2013-01-19T10:01:37Z</time>
      </trkpt>
      <trkpt lat="45.72296" lon="4.58023">
        <ele>854.75</ele>
        <time>2013-01-19T10:01:52Z</time>
      </trkpt>
      <trkpt lat="45.7229" lon="4.57992">
        <ele>858.11</ele>
        <time>2013-01-19T10:02:09Z</time>
      </trkpt>
      <trkpt lat="45.72274" lon="4.57947">
        <ele>861.96</ele>
        <time>2013-01-19T10:02:23Z</time>
      </trkpt>
      <trkpt lat="45.72257" lon="4.57918">
        <ele>864.36</ele>
        <time>2013-01-19T10:02:41Z</time>
      </trkpt>
      <trkpt lat="45.72249" lon="4.57898">
        <ele>863.88</ele>
        <time>2013-01-19T10:02:54Z</time>
      </trkpt>
      <trkpt lat="45.72218" lon="4.57851">
        <ele>866.77</ele>
        <time>2013-01-19T10:03:11Z</time>
      </trkpt>
      <trkpt lat="45.72179" lon="4.57784">
        <ele>864.36</ele>
        <time>2013-01-19T10:03:30Z</time>
      </trkpt>
      <trkpt lat="45.72148" lon="4.5772">
        <ele>857.15</ele>
        <time>2013-01-19T10:03:50Z</time>
      </trkpt>
      <trkpt lat="45.7213" lon="4.57647">
        <ele>847.06</ele>
        <time>2013-01-19T10:04:08Z</time>
      </trkpt>
      <trkpt lat="45.72117" lon="4.57598">
        <ele>836.96</ele>
        <time>2013-01-19T10:04:21Z</time>
      </trkpt>
      <trkpt lat="45.72109" lon="4.57554">
        <ele>835.04</ele>
        <time>2013-01-19T10:04:33Z</time>
      </trkpt>
      <trkpt lat="45.72095" lon="4.57496">
        <ele>826.39</ele>
        <time>2013-01-19T10:04:48Z</time>
      </trkpt>
      <trkpt lat="45.7208" lon="4.57443">
        <ele>822.06</ele>
        <time>2013-01-19T10:05:02Z</time>
      </trkpt>
      <trkpt lat="45.72052" lon="4.57392">
        <ele>821.58</ele>
        <time>2013-01-19T10:05:20Z</time>
      </trkpt>
      <trkpt lat="45.72044" lon="4.57327">
        <ele>821.1</ele>
        <time>2013-01-19T10:05:36Z</time>
      </trkpt>
      <trkpt lat="45.72057" lon="4.57284">
        <ele>816.78</ele>
        <time>2013-01-19T10:05:51Z</time>
      </trkpt>
      <trkpt lat="45.72056" lon="4.57285">
        <ele>816.3</ele>
        <time>2013-01-19T10:06:16Z</time>
      </trkpt>
      <trkpt lat="45.72057" lon="4.57283">
        <ele>815.34</ele>
        <time>2013-01-19T10:06:39Z</time>
      </trkpt>
      <trkpt lat="45.72058" lon="4.57281">
        <ele>815.34</ele>
        <time>2013-01-19T10:06:41Z</time>
      </trkpt>
      <trkpt lat="45.72069" lon="4.5724">
        <ele>812.45</ele>
        <time>2013-01-19T10:07:01Z</time>
      </trkpt>
      <trkpt lat="45.72075" lon="4.57195">
        <ele>809.57</ele>
        <time>2013-01-19T10:07:22Z</time>
      </trkpt>
      <trkpt lat="45.7208" lon="4.57149">
        <ele>808.13</ele>
        <time>2013-01-19T10:07:40Z</time>
      </trkpt>
      <trkpt lat="45.72084" lon="4.57103">
        <ele>808.61</ele>
        <time>2013-01-19T10:07:59Z</time>
      </trkpt>
      <trkpt lat="45.72091" lon="4.57055">
        <ele>810.53</ele>
        <time>2013-01-19T10:08:18Z</time>
      </trkpt>
      <trkpt lat="45.72089" lon="4.57008">
        <ele>810.53</ele>
        <time>2013-01-19T10:08:36Z</time>
      </trkpt>
      <trkpt lat="45.72086" lon="4.56955">
        <ele>812.93</ele>
        <time>2013-01-19T10:08:57Z</time>
      </trkpt>
      <trkpt lat="45.72089" lon="4.56913">
        <ele>813.41</ele>
        <time>2013-01-19T10:09:15Z</time>
      </trkpt>
      <trkpt lat="45.72093" lon="4.56863">
        <ele>813.41</ele>
        <time>2013-01-19T10:09:37Z</time>
      </trkpt>
      <trkpt lat="45.72093" lon="4.56826">
        <ele>812.45</ele>
        <time>2013-01-19T10:09:56Z</time>
      </trkpt>
      <trkpt lat="45.72092" lon="4.56825">
        <ele>812.45</ele>
        <time>2013-01-19T10:10:03Z</time>
      </trkpt>
      <trkpt lat="45.721" lon="4.56793">
        <ele>811.49</ele>
        <time>2013-01-19T10:10:20Z</time>
      </trkpt>
      <trkpt lat="45.72103" lon="4.56786">
        <ele>811.01</ele>
        <time>2013-01-19T10:10:25Z</time>
      </trkpt>
      <trkpt lat="45.72113" lon="4.56748">
        <ele>811.49</ele>
        <time>2013-01-19T10:10:44Z</time>
      </trkpt>
      <trkpt lat="45.72115" lon="4.56736">
        <ele>810.53</ele>
        <time>2013-01-19T10:10:53Z</time>
      </trkpt>
      <trkpt lat="45.72119" lon="4.56721">
        <ele>809.09</ele>
        <time>2013-01-19T10:11:10Z</time>
      </trkpt>
      <trkpt lat="45.72119" lon="4.56721">
        <ele>809.57</ele>
        <time>2013-01-19T10:11:35Z</time>
      </trkpt>
      <trkpt lat="45.72115" lon="4.56721">
        <ele>808.61</ele>
        <time>2013-01-19T10:12:01Z</time>
      </trkpt>
      <trkpt lat="45.72118" lon="4.56713">
        <ele>808.61</ele>
        <time>2013-01-19T10:12:24Z</time>
      </trkpt>
      <trkpt lat="45.72119" lon="4.567">
        <ele>807.16</ele>
        <time>2013-01-19T10:12:45Z</time>
      </trkpt>
      <trkpt lat="45.72119" lon="4.56698">
        <ele>806.68</ele>
        <time>2013-01-19T10:12:54Z</time>
      </trkpt>
      <trkpt lat="45.72121" lon="4.56673">
        <ele>802.36</ele>
        <time>2013-01-19T10:13:14Z</time>
      </trkpt>
      <trkpt lat="45.72121" lon="4.56673">
        <ele>802.36</ele>
        <time>2013-01-19T10:13:36Z</time>
      </trkpt>
      <trkpt lat="45.72123" lon="4.56672">
        <ele>801.88</ele>
        <time>2013-01-19T10:13:57Z</time>
      </trkpt>
      <trkpt lat="45.72122" lon="4.56674">
        <ele>801.88</ele>
        <time>2013-01-19T10:14:17Z</time>
      </trkpt>
      <trkpt lat="45.7212" lon="4.56673">
        <ele>801.88</ele>
        <time>2013-01-19T10:14:47Z</time>
      </trkpt>
      <trkpt lat="45.72123" lon="4.56666">
        <ele>802.36</ele>
        <time>2013-01-19T10:15:08Z</time>
      </trkpt>
      <trkpt lat="45.72124" lon="4.56661">
        <ele>801.88</ele>
        <time>2013-01-19T10:15:30Z</time>
      </trkpt>
      <trkpt lat="45.72125" lon="4.56651">
        <ele>800.44</ele>
        <time>2013-01-19T10:15:49Z</time>
      </trkpt>
      <trkpt lat="45.72126" lon="4.56651">
        <ele>799.95</ele>
        <time>2013-01-19T10:16:09Z</time>
      </trkpt>
      <trkpt lat="45.72126" lon="4.56655">
        <ele>799.95</ele>
        <time>2013-01-19T10:16:36Z</time>
      </trkpt>
      <trkpt lat="45.72128" lon="4.56652">
        <ele>800.92</ele>
        <time>2013-01-19T10:16:45Z</time>
      </trkpt>
      <trkpt lat="45.72132" lon="4.56655">
        <ele>805.72</ele>
        <time>2013-01-19T10:17:04Z</time>
      </trkpt>
      <trkpt lat="45.72131" lon="4.56652">
        <ele>804.76</ele>
        <time>2013-01-19T10:17:17Z</time>
      </trkpt>
      <trkpt lat="45.72144" lon="4.56573">
        <ele>797.55</ele>
        <time>2013-01-19T10:17:33Z</time>
      </trkpt>
      <trkpt lat="45.72164" lon="4.56488">
        <ele>786.98</ele>
        <time>2013-01-19T10:17:51Z</time>
      </trkpt>
      <trkpt lat="45.72194" lon="4.56416">
        <ele>779.29</ele>
        <time>2013-01-19T10:18:08Z</time>
      </trkpt>
      <trkpt lat="45.72227" lon="4.56339">
        <ele>774</ele>
        <time>2013-01-19T10:18:27Z</time>
      </trkpt>
      <trkpt lat="45.72269" lon="4.56278">
        <ele>770.15</ele>
        <time>2013-01-19T10:18:44Z</time>
      </trkpt>
      <trkpt lat="45.72303" lon="4.56212">
        <ele>761.98</ele>
        <time>2013-01-19T10:18:59Z</time>
      </trkpt>
      <trkpt lat="45.72315" lon="4.56193">
        <ele>757.18</ele>
        <time>2013-01-19T10:19:16Z</time>
      </trkpt>
      <trkpt lat="45.7233" lon="4.56174">
        <ele>752.85</ele>
        <time>2013-01-19T10:19:29Z</time>
      </trkpt>
      <trkpt lat="45.72352" lon="4.561">
        <ele>741.79</ele>
        <time>2013-01-19T10:19:46Z</time>
      </trkpt>
      <trkpt lat="45.72358" lon="4.56016">
        <ele>733.14</ele>
        <time>2013-01-19T10:20:02Z</time>
      </trkpt>
      <trkpt lat="45.72347" lon="4.55966">
        <ele>733.14</ele>
        <time>2013-01-19T10:20:15Z</time>
      </trkpt>
      <trkpt lat="45.72323" lon="4.559">
        <ele>732.18</ele>
        <time>2013-01-19T10:20:32Z</time>
      </trkpt>
      <trkpt lat="45.72317" lon="4.55831">
        <ele>730.26</ele>
        <time>2013-01-19T10:20:49Z</time>
      </trkpt>
      <trkpt lat="45.7233" lon="4.55772">
        <ele>730.26</ele>
        <time>2013-01-19T10:21:04Z</time>
      </trkpt>
      <trkpt lat="45.72352" lon="4.55689">
        <ele>731.7</ele>
        <time>2013-01-19T10:21:22Z</time>
      </trkpt>
      <trkpt lat="45.72383" lon="4.55636">
        <ele>730.74</ele>
        <time>2013-01-19T10:21:39Z</time>
      </trkpt>
      <trkpt lat="45.72413" lon="4.55601">
        <ele>730.26</ele>
        <time>2013-01-19T10:21:58Z</time>
      </trkpt>
      <trkpt lat="45.72437" lon="4.55575">
        <ele>728.34</ele>
        <time>2013-01-19T10:22:19Z</time>
      </trkpt>
      <trkpt lat="45.72468" lon="4.5554">
        <ele>724.97</ele>
        <time>2013-01-19T10:22:37Z</time>
      </trkpt>
      <trkpt lat="45.72505" lon="4.55494">
        <ele>724.49</ele>
        <time>2013-01-19T10:22:57Z</time>
      </trkpt>
      <trkpt lat="45.72534" lon="4.55436">
        <ele>720.16</ele>
        <time>2013-01-19T10:23:12Z</time>
      </trkpt>
      <trkpt lat="45.72543" lon="4.55429">
        <ele>722.57</ele>
        <time>2013-01-19T10:23:26Z</time>
      </trkpt>
      <trkpt lat="45.72546" lon="4.55421">
        <ele>722.57</ele>
        <time>2013-01-19T10:23:38Z</time>
      </trkpt>
      <trkpt lat="45.72569" lon="4.55385">
        <ele>722.09</ele>
        <time>2013-01-19T10:23:54Z</time>
      </trkpt>
      <trkpt lat="45.72568" lon="4.55318">
        <ele>715.36</ele>
        <time>2013-01-19T10:24:06Z</time>
      </trkpt>
      <trkpt lat="45.72579" lon="4.55258">
        <ele>704.78</ele>
        <time>2013-01-19T10:24:22Z</time>
      </trkpt>
      <trkpt lat="45.72593" lon="4.55197">
        <ele>699.02</ele>
        <time>2013-01-19T10:24:38Z</time>
      </trkpt>
      <trkpt lat="45.72602" lon="4.55162">
        <ele>696.13</ele>
        <time>2013-01-19T10:24:52Z</time>
      </trkpt>
      <trkpt lat="45.72601" lon="4.55163">
        <ele>695.65</ele>
        <time>2013-01-19T10:25:06Z</time>
      </trkpt>
      <trkpt lat="45.72613" lon="4.55121">
        <ele>692.29</ele>
        <time>2013-01-19T10:25:19Z</time>
      </trkpt>
      <trkpt lat="45.72625" lon="4.55063">
        <ele>688.44</ele>
        <time>2013-01-19T10:25:34Z</time>
      </trkpt>
      <trkpt lat="45.72622" lon="4.54978">
        <ele>685.08</ele>
        <time>2013-01-19T10:25:54Z</time>
      </trkpt>
      <trkpt lat="45.72609" lon="4.54917">
        <ele>683.63</ele>
        <time>2013-01-19T10:26:10Z</time>
      </trkpt>
      <trkpt lat="45.72605" lon="4.54902">
        <ele>683.63</ele>
        <time>2013-01-19T10:26:17Z</time>
      </trkpt>
      <trkpt lat="45.7261" lon="4.5489">
        <ele>682.19</ele>
        <time>2013-01-19T10:26:29Z</time>
      </trkpt>
      <trkpt lat="45.72645" lon="4.54869">
        <ele>683.63</ele>
        <time>2013-01-19T10:26:44Z</time>
      </trkpt>
      <trkpt lat="45.72689" lon="4.54869">
        <ele>684.12</ele>
        <time>2013-01-19T10:27:00Z</time>
      </trkpt>
      <trkpt lat="45.72745" lon="4.54888">
        <ele>680.27</ele>
        <time>2013-01-19T10:27:19Z</time>
      </trkpt>
      <trkpt lat="45.72797" lon="4.54908">
        <ele>674.02</ele>
        <time>2013-01-19T10:27:35Z</time>
      </trkpt>
      <trkpt lat="45.72838" lon="4.54915">
        <ele>665.37</ele>
        <time>2013-01-19T10:27:50Z</time>
      </trkpt>
      <trkpt lat="45.72881" lon="4.54909">
        <ele>658.64</ele>
        <time>2013-01-19T10:28:05Z</time>
      </trkpt>
      <trkpt lat="45.72922" lon="4.54896">
        <ele>650.95</ele>
        <time>2013-01-19T10:28:20Z</time>
      </trkpt>
      <trkpt lat="45.72965" lon="4.54881">
        <ele>643.26</ele>
        <time>2013-01-19T10:28:35Z</time>
      </trkpt>
      <trkpt lat="45.73014" lon="4.54859">
        <ele>630.76</ele>
        <time>2013-01-19T10:28:53Z</time>
      </trkpt>
      <trkpt lat="45.73044" lon="4.5484">
        <ele>622.59</ele>
        <time>2013-01-19T10:29:05Z</time>
      </trkpt>
      <trkpt lat="45.73067" lon="4.54798">
        <ele>612.98</ele>
        <time>2013-01-19T10:29:19Z</time>
      </trkpt>
      <trkpt lat="45.73096" lon="4.54764">
        <ele>603.85</ele>
        <time>2013-01-19T10:29:32Z</time>
      </trkpt>
      <trkpt lat="45.73134" lon="4.54726">
        <ele>591.35</ele>
        <time>2013-01-19T10:29:48Z</time>
      </trkpt>
      <trkpt lat="45.73172" lon="4.54685">
        <ele>579.81</ele>
        <time>2013-01-19T10:30:05Z</time>
      </trkpt>
      <trkpt lat="45.7321" lon="4.54651">
        <ele>569.24</ele>
        <time>2013-01-19T10:30:19Z</time>
      </trkpt>
      <trkpt lat="45.73242" lon="4.5462">
        <ele>559.14</ele>
        <time>2013-01-19T10:30:33Z</time>
      </trkpt>
      <trkpt lat="45.73274" lon="4.54584">
        <ele>551.93</ele>
        <time>2013-01-19T10:30:48Z</time>
      </trkpt>
      <trkpt lat="45.7331" lon="4.54557">
        <ele>546.65</ele>
        <time>2013-01-19T10:31:03Z</time>
      </trkpt>
      <trkpt lat="45.73347" lon="4.54515">
        <ele>545.69</ele>
        <time>2013-01-19T10:31:19Z</time>
      </trkpt>
      <trkpt lat="45.73378" lon="4.54474">
        <ele>540.88</ele>
        <time>2013-01-19T10:31:33Z</time>
      </trkpt>
      <trkpt lat="45.73405" lon="4.54439">
        <ele>533.19</ele>
        <time>2013-01-19T10:31:46Z</time>
      </trkpt>
      <trkpt lat="45.73436" lon="4.54391">
        <ele>520.69</ele>
        <time>2013-01-19T10:32:01Z</time>
      </trkpt>
      <trkpt lat="45.7346" lon="4.54359">
        <ele>514.92</ele>
        <time>2013-01-19T10:32:13Z</time>
      </trkpt>
      <trkpt lat="45.73496" lon="4.54317">
        <ele>511.56</ele>
        <time>2013-01-19T10:32:29Z</time>
      </trkpt>
      <trkpt lat="45.73542" lon="4.54278">
        <ele>513</ele>
        <time>2013-01-19T10:32:47Z</time>
      </trkpt>
      <trkpt lat="45.73584" lon="4.54251">
        <ele>513.48</ele>
        <time>2013-01-19T10:33:04Z</time>
      </trkpt>
      <trkpt lat="45.73618" lon="4.54239">
        <ele>508.19</ele>
        <time>2013-01-19T10:33:18Z</time>
      </trkpt>
      <trkpt lat="45.73652" lon="4.54231">
        <ele>500.98</ele>
        <time>2013-01-19T10:33:32Z</time>
      </trkpt>
      <trkpt lat="45.73686" lon="4.5421">
        <ele>492.33</ele>
        <time>2013-01-19T10:33:45Z</time>
      </trkpt>
      <trkpt lat="45.73724" lon="4.54196">
        <ele>480.8</ele>
        <time>2013-01-19T10:34:00Z</time>
      </trkpt>
      <trkpt lat="45.73762" lon="4.54179">
        <ele>471.66</ele>
        <time>2013-01-19T10:34:14Z</time>
      </trkpt>
      <trkpt lat="45.73801" lon="4.5416">
        <ele>463.97</ele>
        <time>2013-01-19T10:34:29Z</time>
      </trkpt>
      <trkpt lat="45.73832" lon="4.54127">
        <ele>457.24</ele>
        <time>2013-01-19T10:34:44Z</time>
      </trkpt>
      <trkpt lat="45.73839" lon="4.54111">
        <ele>452.92</ele>
        <time>2013-01-19T10:34:55Z</time>
      </trkpt>
      <trkpt lat="45.7386" lon="4.54087">
        <ele>447.63</ele>
        <time>2013-01-19T10:35:08Z</time>
      </trkpt>
      <trkpt lat="45.73899" lon="4.54068">
        <ele>439.46</ele>
        <time>2013-01-19T10:35:26Z</time>
      </trkpt>
      <trkpt lat="45.73922" lon="4.54078">
        <ele>436.1</ele>
        <time>2013-01-19T10:35:36Z</time>
      </trkpt>
      <trkpt lat="45.73925" lon="4.54059">
        <ele>433.21</ele>
        <time>2013-01-19T10:35:44Z</time>
      </trkpt>
      <trkpt lat="45.73897" lon="4.54009">
        <ele>428.89</ele>
        <time>2013-01-19T10:36:01Z</time>
      </trkpt>
      <trkpt lat="45.73855" lon="4.53972">
        <ele>425.52</ele>
        <time>2013-01-19T10:36:18Z</time>
      </trkpt>
      <trkpt lat="45.73826" lon="4.53943">
        <ele>423.6</ele>
        <time>2013-01-19T10:36:32Z</time>
      </trkpt>
      <trkpt lat="45.73842" lon="4.53895">
        <ele>420.71</ele>
        <time>2013-01-19T10:36:45Z</time>
      </trkpt>
      <trkpt lat="45.73883" lon="4.5387">
        <ele>414.47</ele>
        <time>2013-01-19T10:36:59Z</time>
      </trkpt>
      <trkpt lat="45.73925" lon="4.5384">
        <ele>406.77</ele>
        <time>2013-01-19T10:37:15Z</time>
      </trkpt>
      <trkpt lat="45.73951" lon="4.53795">
        <ele>399.57</ele>
        <time>2013-01-19T10:37:28Z</time>
      </trkpt>
      <trkpt lat="45.73979" lon="4.5377">
        <ele>392.84</ele>
        <time>2013-01-19T10:37:42Z</time>
      </trkpt>
      <trkpt lat="45.73989" lon="4.53785">
        <ele>391.87</ele>
        <time>2013-01-19T10:37:48Z</time>
      </trkpt>
      <trkpt lat="45.73995" lon="4.53789">
        <ele>391.39</ele>
        <time>2013-01-19T10:37:50Z</time>
      </trkpt>
      <trkpt lat="45.74023" lon="4.53777">
        <ele>387.07</ele>
        <time>2013-01-19T10:38:01Z</time>
      </trkpt>
      <trkpt lat="45.74063" lon="4.53773">
        <ele>384.66</ele>
        <time>2013-01-19T10:38:16Z</time>
      </trkpt>
      <trkpt lat="45.74092" lon="4.53819">
        <ele>386.59</ele>
        <time>2013-01-19T10:38:32Z</time>
      </trkpt>
      <trkpt lat="45.74119" lon="4.5385">
        <ele>388.03</ele>
        <time>2013-01-19T10:38:45Z</time>
      </trkpt>
      <trkpt lat="45.74145" lon="4.53895">
        <ele>386.59</ele>
        <time>2013-01-19T10:39:00Z</time>
      </trkpt>
      <trkpt lat="45.74171" lon="4.53962">
        <ele>381.3</ele>
        <time>2013-01-19T10:39:17Z</time>
      </trkpt>
      <trkpt lat="45.74199" lon="4.54007">
        <ele>377.45</ele>
        <time>2013-01-19T10:39:31Z</time>
      </trkpt>
      <trkpt lat="45.74236" lon="4.5404">
        <ele>373.61</ele>
        <time>2013-01-19T10:39:48Z</time>
      </trkpt>
      <trkpt lat="45.74258" lon="4.54048">
        <ele>371.21</ele>
        <time>2013-01-19T10:39:57Z</time>
      </trkpt>
      <trkpt lat="45.74282" lon="4.54057">
        <ele>368.8</ele>
        <time>2013-01-19T10:40:07Z</time>
      </trkpt>
      <trkpt lat="45.7432" lon="4.5407">
        <ele>367.84</ele>
        <time>2013-01-19T10:40:21Z</time>
      </trkpt>
      <trkpt lat="45.74339" lon="4.54073">
        <ele>368.32</ele>
        <time>2013-01-19T10:40:29Z</time>
      </trkpt>
      <trkpt lat="45.74342" lon="4.54082">
        <ele>367.84</ele>
        <time>2013-01-19T10:40:33Z</time>
      </trkpt>
      <trkpt lat="45.74332" lon="4.54118">
        <ele>365.92</ele>
        <time>2013-01-19T10:40:47Z</time>
      </trkpt>
      <trkpt lat="45.7432" lon="4.54138">
        <ele>363.04</ele>
        <time>2013-01-19T10:40:59Z</time>
      </trkpt>
      <trkpt lat="45.74322" lon="4.54147">
        <ele>361.59</ele>
        <time>2013-01-19T10:41:15Z</time>
      </trkpt>
      <trkpt lat="45.74312" lon="4.54165">
        <ele>361.11</ele>
        <time>2013-01-19T10:41:27Z</time>
      </trkpt>
      <trkpt lat="45.74316" lon="4.54174">
        <ele>360.63</ele>
        <time>2013-01-19T10:41:32Z</time>
      </trkpt>
      <trkpt lat="45.74327" lon="4.54225">
        <ele>359.67</ele>
        <time>2013-01-19T10:41:50Z</time>
      </trkpt>
      <trkpt lat="45.74353" lon="4.54263">
        <ele>358.71</ele>
        <time>2013-01-19T10:42:03Z</time>
      </trkpt>
      <trkpt lat="45.74357" lon="4.54275">
        <ele>357.75</ele>
        <time>2013-01-19T10:42:12Z</time>
      </trkpt>
      <trkpt lat="45.74375" lon="4.54333">
        <ele>355.83</ele>
        <time>2013-01-19T10:42:26Z</time>
      </trkpt>
      <trkpt lat="45.74412" lon="4.54334">
        <ele>353.42</ele>
        <time>2013-01-19T10:42:40Z</time>
      </trkpt>
      <trkpt lat="45.74415" lon="4.54334">
        <ele>352.94</ele>
        <time>2013-01-19T10:42:42Z</time>
      </trkpt>
      <trkpt lat="45.74436" lon="4.5434">
        <ele>349.1</ele>
        <time>2013-01-19T10:42:59Z</time>
      </trkpt>
      <trkpt lat="45.74465" lon="4.54356">
        <ele>346.21</ele>
        <time>2013-01-19T10:43:10Z</time>
      </trkpt>
      <trkpt lat="45.74506" lon="4.5438">
        <ele>338.04</ele>
        <time>2013-01-19T10:43:22Z</time>
      </trkpt>
      <trkpt lat="45.74536" lon="4.54388">
        <ele>336.6</ele>
        <time>2013-01-19T10:43:32Z</time>
      </trkpt>
      <trkpt lat="45.74567" lon="4.54402">
        <ele>337.56</ele>
        <time>2013-01-19T10:43:43Z</time>
      </trkpt>
      <trkpt lat="45.74601" lon="4.54413">
        <ele>336.6</ele>
        <time>2013-01-19T10:43:54Z</time>
      </trkpt>
      <trkpt lat="45.74608" lon="4.54416">
        <ele>336.6</ele>
        <time>2013-01-19T10:43:57Z</time>
      </trkpt>
      <trkpt lat="45.74615" lon="4.54404">
        <ele>337.08</ele>
        <time>2013-01-19T10:44:01Z</time>
      </trkpt>
      <trkpt lat="45.74624" lon="4.54355">
        <ele>334.68</ele>
        <time>2013-01-19T10:44:14Z</time>
      </trkpt>
      <trkpt lat="45.74622" lon="4.54305">
        <ele>331.31</ele>
        <time>2013-01-19T10:44:26Z</time>
      </trkpt>
      <trkpt lat="45.74634" lon="4.54257">
        <ele>329.87</ele>
        <time>2013-01-19T10:44:39Z</time>
      </trkpt>
      <trkpt lat="45.74634" lon="4.5425">
        <ele>329.87</ele>
        <time>2013-01-19T10:44:41Z</time>
      </trkpt>
      <trkpt lat="45.74606" lon="4.54214">
        <ele>327.47</ele>
        <time>2013-01-19T10:44:54Z</time>
      </trkpt>
      <trkpt lat="45.74588" lon="4.54167">
        <ele>329.87</ele>
        <time>2013-01-19T10:45:09Z</time>
      </trkpt>
      <trkpt lat="45.74587" lon="4.54156">
        <ele>329.39</ele>
        <time>2013-01-19T10:45:14Z</time>
      </trkpt>
      <trkpt lat="45.74571" lon="4.5414">
        <ele>327.95</ele>
        <time>2013-01-19T10:45:27Z</time>
      </trkpt>
      <trkpt lat="45.74586" lon="4.54129">
        <ele>327.47</ele>
        <time>2013-01-19T10:45:39Z</time>
      </trkpt>
      <trkpt lat="45.74587" lon="4.54127">
        <ele>327.47</ele>
        <time>2013-01-19T10:45:40Z</time>
      </trkpt>
      <trkpt lat="45.7459" lon="4.54114">
        <ele>326.99</ele>
        <time>2013-01-19T10:45:45Z</time>
      </trkpt>
      <trkpt lat="45.74606" lon="4.54115">
        <ele>326.99</ele>
        <time>2013-01-19T10:45:56Z</time>
      </trkpt>
      <trkpt lat="45.74629" lon="4.54125">
        <ele>329.39</ele>
        <time>2013-01-19T10:46:06Z</time>
      </trkpt>
      <trkpt lat="45.7465" lon="4.54135">
        <ele>329.39</ele>
        <time>2013-01-19T10:46:16Z</time>
      </trkpt>
      <trkpt lat="45.74661" lon="4.54143">
        <ele>329.87</ele>
        <time>2013-01-19T10:46:21Z</time>
      </trkpt>
      <trkpt lat="45.74665" lon="4.54142">
        <ele>331.79</ele>
        <time>2013-01-19T10:46:31Z</time>
      </trkpt>
      <trkpt lat="45.74661" lon="4.54127">
        <ele>333.71</ele>
        <time>2013-01-19T10:46:37Z</time>
      </trkpt>
      <trkpt lat="45.7465" lon="4.54094">
        <ele>334.68</ele>
        <time>2013-01-19T10:46:51Z</time>
      </trkpt>
      <trkpt lat="45.74647" lon="4.54078">
        <ele>334.68</ele>
        <time>2013-01-19T10:46:59Z</time>
      </trkpt>
      <trkpt lat="45.7465" lon="4.54074">
        <ele>335.16</ele>
        <time>2013-01-19T10:47:04Z</time>
      </trkpt>
      <trkpt lat="45.74655" lon="4.5407">
        <ele>336.6</ele>
        <time>2013-01-19T10:47:10Z</time>
      </trkpt>
      <trkpt lat="45.74658" lon="4.54065">
        <ele>338.04</ele>
        <time>2013-01-19T10:47:14Z</time>
      </trkpt>
      <trkpt lat="45.74668" lon="4.54051">
        <ele>340.92</ele>
        <time>2013-01-19T10:47:24Z</time>
      </trkpt>
      <trkpt lat="45.74673" lon="4.54044">
        <ele>341.89</ele>
        <time>2013-01-19T10:47:29Z</time>
      </trkpt>
      <trkpt lat="45.74681" lon="4.54022">
        <ele>346.69</ele>
        <time>2013-01-19T10:47:44Z</time>
      </trkpt>
      <trkpt lat="45.74685" lon="4.54003">
        <ele>349.58</ele>
        <time>2013-01-19T10:47:58Z</time>
      </trkpt>
      <trkpt lat="45.74691" lon="4.5398">
        <ele>355.34</ele>
        <time>2013-01-19T10:48:12Z</time>
      </trkpt>
      <trkpt lat="45.74695" lon="4.53962">
        <ele>361.59</ele>
        <time>2013-01-19T10:48:26Z</time>
      </trkpt>
      <trkpt lat="45.74701" lon="4.53947">
        <ele>363.52</ele>
        <time>2013-01-19T10:48:39Z</time>
      </trkpt>
      <trkpt lat="45.74706" lon="4.53936">
        <ele>365.92</ele>
        <time>2013-01-19T10:48:50Z</time>
      </trkpt>
      <trkpt lat="45.7471" lon="4.53916">
        <ele>367.36</ele>
        <time>2013-01-19T10:49:05Z</time>
      </trkpt>
      <trkpt lat="45.7471" lon="4.53915">
        <ele>367.84</ele>
        <time>2013-01-19T10:49:06Z</time>
      </trkpt>
      <trkpt lat="45.74711" lon="4.53886">
        <ele>370.24</ele>
        <time>2013-01-19T10:49:17Z</time>
      </trkpt>
      <trkpt lat="45.74709" lon="4.53878">
        <ele>370.73</ele>
        <time>2013-01-19T10:49:30Z</time>
      </trkpt>
      <trkpt lat="45.74708" lon="4.53872">
        <ele>371.69</ele>
        <time>2013-01-19T10:49:35Z</time>
      </trkpt>
      <trkpt lat="45.74705" lon="4.53855">
        <ele>375.53</ele>
        <time>2013-01-19T10:49:47Z</time>
      </trkpt>
      <trkpt lat="45.74703" lon="4.53837">
        <ele>377.94</ele>
        <time>2013-01-19T10:49:55Z</time>
      </trkpt>
      <trkpt lat="45.74703" lon="4.53825">
        <ele>379.86</ele>
        <time>2013-01-19T10:50:03Z</time>
      </trkpt>
      <trkpt lat="45.74707" lon="4.53805">
        <ele>383.7</ele>
        <time>2013-01-19T10:50:15Z</time>
      </trkpt>
      <trkpt lat="45.74706" lon="4.5379">
        <ele>384.66</ele>
        <time>2013-01-19T10:50:28Z</time>
      </trkpt>
      <trkpt lat="45.74708" lon="4.5378">
        <ele>383.7</ele>
        <time>2013-01-19T10:50:41Z</time>
      </trkpt>
      <trkpt lat="45.74709" lon="4.53771">
        <ele>384.18</ele>
        <time>2013-01-19T10:50:46Z</time>
      </trkpt>
      <trkpt lat="45.74714" lon="4.53746">
        <ele>387.55</ele>
        <time>2013-01-19T10:51:00Z</time>
      </trkpt>
      <trkpt lat="45.74717" lon="4.53722">
        <ele>388.99</ele>
        <time>2013-01-19T10:51:14Z</time>
      </trkpt>
      <trkpt lat="45.7472" lon="4.53699">
        <ele>391.39</ele>
        <time>2013-01-19T10:51:28Z</time>
      </trkpt>
      <trkpt lat="45.74723" lon="4.53688">
        <ele>394.28</ele>
        <time>2013-01-19T10:51:40Z</time>
      </trkpt>
      <trkpt lat="45.7473" lon="4.53654">
        <ele>397.16</ele>
        <time>2013-01-19T10:51:54Z</time>
      </trkpt>
      <trkpt lat="45.74733" lon="4.53643">
        <ele>397.64</ele>
        <time>2013-01-19T10:52:01Z</time>
      </trkpt>
      <trkpt lat="45.74743" lon="4.53616">
        <ele>396.68</ele>
        <time>2013-01-19T10:52:14Z</time>
      </trkpt>
      <trkpt lat="45.74749" lon="4.53591">
        <ele>399.57</ele>
        <time>2013-01-19T10:52:29Z</time>
      </trkpt>
      <trkpt lat="45.74751" lon="4.5357">
        <ele>401.97</ele>
        <time>2013-01-19T10:52:44Z</time>
      </trkpt>
      <trkpt lat="45.74754" lon="4.5356">
        <ele>402.45</ele>
        <time>2013-01-19T10:52:56Z</time>
      </trkpt>
      <trkpt lat="45.74754" lon="4.53555">
        <ele>402.93</ele>
        <time>2013-01-19T10:53:14Z</time>
      </trkpt>
      <trkpt lat="45.74755" lon="4.53553">
        <ele>402.93</ele>
        <time>2013-01-19T10:53:18Z</time>
      </trkpt>
      <trkpt lat="45.74762" lon="4.53523">
        <ele>405.33</ele>
        <time>2013-01-19T10:53:30Z</time>
      </trkpt>
      <trkpt lat="45.74764" lon="4.53513">
        <ele>406.29</ele>
        <time>2013-01-19T10:53:46Z</time>
      </trkpt>
      <trkpt lat="45.7477" lon="4.53477">
        <ele>407.26</ele>
        <time>2013-01-19T10:53:59Z</time>
      </trkpt>
      <trkpt lat="45.74779" lon="4.53424">
        <ele>409.18</ele>
        <time>2013-01-19T10:54:14Z</time>
      </trkpt>
      <trkpt lat="45.74792" lon="4.53389">
        <ele>411.1</ele>
        <time>2013-01-19T10:54:29Z</time>
      </trkpt>
      <trkpt lat="45.74793" lon="4.53365">
        <ele>411.58</ele>
        <time>2013-01-19T10:54:40Z</time>
      </trkpt>
      <trkpt lat="45.74795" lon="4.53334">
        <ele>415.43</ele>
        <time>2013-01-19T10:54:58Z</time>
      </trkpt>
      <trkpt lat="45.74797" lon="4.53323">
        <ele>417.35</ele>
        <time>2013-01-19T10:55:03Z</time>
      </trkpt>
      <trkpt lat="45.74797" lon="4.53291">
        <ele>420.71</ele>
        <time>2013-01-19T10:55:18Z</time>
      </trkpt>
      <trkpt lat="45.74799" lon="4.5327">
        <ele>423.12</ele>
        <time>2013-01-19T10:55:31Z</time>
      </trkpt>
      <trkpt lat="45.748" lon="4.53261">
        <ele>425.04</ele>
        <time>2013-01-19T10:55:36Z</time>
      </trkpt>
      <trkpt lat="45.748" lon="4.53236">
        <ele>427.44</ele>
        <time>2013-01-19T10:55:49Z</time>
      </trkpt>
      <trkpt lat="45.74802" lon="4.53207">
        <ele>430.33</ele>
        <time>2013-01-19T10:56:04Z</time>
      </trkpt>
      <trkpt lat="45.74802" lon="4.53202">
        <ele>430.33</ele>
        <time>2013-01-19T10:56:23Z</time>
      </trkpt>
      <trkpt lat="45.74805" lon="4.53171">
        <ele>431.77</ele>
        <time>2013-01-19T10:56:37Z</time>
      </trkpt>
      <trkpt lat="45.74808" lon="4.53145">
        <ele>433.69</ele>
        <time>2013-01-19T10:56:50Z</time>
      </trkpt>
      <trkpt lat="45.74812" lon="4.53116">
        <ele>435.61</ele>
        <time>2013-01-19T10:57:04Z</time>
      </trkpt>
      <trkpt lat="45.74813" lon="4.531">
        <ele>436.58</ele>
        <time>2013-01-19T10:57:12Z</time>
      </trkpt>
      <trkpt lat="45.74816" lon="4.53061">
        <ele>439.46</ele>
        <time>2013-01-19T10:57:32Z</time>
      </trkpt>
      <trkpt lat="45.74817" lon="4.53025">
        <ele>445.71</ele>
        <time>2013-01-19T10:57:48Z</time>
      </trkpt>
      <trkpt lat="45.74821" lon="4.52995">
        <ele>448.11</ele>
        <time>2013-01-19T10:58:03Z</time>
      </trkpt>
      <trkpt lat="45.74822" lon="4.52986">
        <ele>449.55</ele>
        <time>2013-01-19T10:58:19Z</time>
      </trkpt>
      <trkpt lat="45.74824" lon="4.52967">
        <ele>448.59</ele>
        <time>2013-01-19T10:58:34Z</time>
      </trkpt>
      <trkpt lat="45.74828" lon="4.52916">
        <ele>449.55</ele>
        <time>2013-01-19T10:58:48Z</time>
      </trkpt>
      <trkpt lat="45.74841" lon="4.5288">
        <ele>448.11</ele>
        <time>2013-01-19T10:58:58Z</time>
      </trkpt>
      <trkpt lat="45.74853" lon="4.52838">
        <ele>447.15</ele>
        <time>2013-01-19T10:59:11Z</time>
      </trkpt>
      <trkpt lat="45.74861" lon="4.52797">
        <ele>446.67</ele>
        <time>2013-01-19T10:59:21Z</time>
      </trkpt>
      <trkpt lat="45.74868" lon="4.52757">
        <ele>444.75</ele>
        <time>2013-01-19T10:59:32Z</time>
      </trkpt>
      <trkpt lat="45.7487" lon="4.52713">
        <ele>442.82</ele>
        <time>2013-01-19T10:59:42Z</time>
      </trkpt>
      <trkpt lat="45.74874" lon="4.52661">
        <ele>444.27</ele>
        <time>2013-01-19T10:59:55Z</time>
      </trkpt>
      <trkpt lat="45.74876" lon="4.5262">
        <ele>446.19</ele>
        <time>2013-01-19T11:00:06Z</time>
      </trkpt>
      <trkpt lat="45.74871" lon="4.52581">
        <ele>445.23</ele>
        <time>2013-01-19T11:00:16Z</time>
      </trkpt>
      <trkpt lat="45.74864" lon="4.5254">
        <ele>444.75</ele>
        <time>2013-01-19T11:00:27Z</time>
      </trkpt>
      <trkpt lat="45.74849" lon="4.52498">
        <ele>446.19</ele>
        <time>2013-01-19T11:00:40Z</time>
      </trkpt>
      <trkpt lat="45.74836" lon="4.5247">
        <ele>449.07</ele>
        <time>2013-01-19T11:00:50Z</time>
      </trkpt>
      <trkpt lat="45.74827" lon="4.52444">
        <ele>453.88</ele>
        <time>2013-01-19T11:01:03Z</time>
      </trkpt>
      <trkpt lat="45.74836" lon="4.5244">
        <ele>455.8</ele>
        <time>2013-01-19T11:01:18Z</time>
      </trkpt>
      <trkpt lat="45.74837" lon="4.5244">
        <ele>456.28</ele>
        <time>2013-01-19T11:01:19Z</time>
      </trkpt>
      <trkpt lat="45.74843" lon="4.52435">
        <ele>456.28</ele>
        <time>2013-01-19T11:01:34Z</time>
      </trkpt>
      <trkpt lat="45.74843" lon="4.5243">
        <ele>456.28</ele>
        <time>2013-01-19T11:01:50Z</time>
      </trkpt>
      <trkpt lat="45.74844" lon="4.52427">
        <ele>456.28</ele>
        <time>2013-01-19T11:02:02Z</time>
      </trkpt>
      <trkpt lat="45.74845" lon="4.52428">
        <ele>456.28</ele>
        <time>2013-01-19T11:02:03Z</time>
      </trkpt>
      <trkpt lat="45.74876" lon="4.52393">
        <ele>455.32</ele>
        <time>2013-01-19T11:02:15Z</time>
      </trkpt>
      <trkpt lat="45.74891" lon="4.52362">
        <ele>453.88</ele>
        <time>2013-01-19T11:02:21Z</time>
      </trkpt>
      <trkpt lat="45.74898" lon="4.52352">
        <ele>451.96</ele>
        <time>2013-01-19T11:02:23Z</time>
      </trkpt>
      <trkpt lat="45.74925" lon="4.5231">
        <ele>446.67</ele>
        <time>2013-01-19T11:02:34Z</time>
      </trkpt>
      <trkpt lat="45.74954" lon="4.52298">
        <ele>447.63</ele>
        <time>2013-01-19T11:02:44Z</time>
      </trkpt>
      <trkpt lat="45.74957" lon="4.5229">
        <ele>447.63</ele>
        <time>2013-01-19T11:02:46Z</time>
      </trkpt>
      <trkpt lat="45.74957" lon="4.52286">
        <ele>448.11</ele>
        <time>2013-01-19T11:02:47Z</time>
      </trkpt>
      <trkpt lat="45.74958" lon="4.52281">
        <ele>448.11</ele>
        <time>2013-01-19T11:02:48Z</time>
      </trkpt>
      <trkpt lat="45.74958" lon="4.52231">
        <ele>453.88</ele>
        <time>2013-01-19T11:03:01Z</time>
      </trkpt>
      <trkpt lat="45.74965" lon="4.52195">
        <ele>455.32</ele>
        <time>2013-01-19T11:03:14Z</time>
      </trkpt>
      <trkpt lat="45.74976" lon="4.52169">
        <ele>456.28</ele>
        <time>2013-01-19T11:03:28Z</time>
      </trkpt>
      <trkpt lat="45.74983" lon="4.52142">
        <ele>459.65</ele>
        <time>2013-01-19T11:03:42Z</time>
      </trkpt>
      <trkpt lat="45.74985" lon="4.5213">
        <ele>460.13</ele>
        <time>2013-01-19T11:03:55Z</time>
      </trkpt>
      <trkpt lat="45.74987" lon="4.52128">
        <ele>458.21</ele>
        <time>2013-01-19T11:04:25Z</time>
      </trkpt>
      <trkpt lat="45.74994" lon="4.52108">
        <ele>458.21</ele>
        <time>2013-01-19T11:04:36Z</time>
      </trkpt>
      <trkpt lat="45.74997" lon="4.52085">
        <ele>462.05</ele>
        <time>2013-01-19T11:04:47Z</time>
      </trkpt>
      <trkpt lat="45.74997" lon="4.52083">
        <ele>462.53</ele>
        <time>2013-01-19T11:04:48Z</time>
      </trkpt>
      <trkpt lat="45.74997" lon="4.52081">
        <ele>462.53</ele>
        <time>2013-01-19T11:04:49Z</time>
      </trkpt>
      <trkpt lat="45.74997" lon="4.52068">
        <ele>465.9</ele>
        <time>2013-01-19T11:04:59Z</time>
      </trkpt>
      <trkpt lat="45.75002" lon="4.52046">
        <ele>472.14</ele>
        <time>2013-01-19T11:05:11Z</time>
      </trkpt>
      <trkpt lat="45.75005" lon="4.52041">
        <ele>473.59</ele>
        <time>2013-01-19T11:05:15Z</time>
      </trkpt>
      <trkpt lat="45.75006" lon="4.5204">
        <ele>473.59</ele>
        <time>2013-01-19T11:05:16Z</time>
      </trkpt>
      <trkpt lat="45.75007" lon="4.5204">
        <ele>474.07</ele>
        <time>2013-01-19T11:05:17Z</time>
      </trkpt>
      <trkpt lat="45.75013" lon="4.52037">
        <ele>475.51</ele>
        <time>2013-01-19T11:05:22Z</time>
      </trkpt>
      <trkpt lat="45.75029" lon="4.52031">
        <ele>477.91</ele>
        <time>2013-01-19T11:05:36Z</time>
      </trkpt>
      <trkpt lat="45.75049" lon="4.52015">
        <ele>480.32</ele>
        <time>2013-01-19T11:05:51Z</time>
      </trkpt>
      <trkpt lat="45.75062" lon="4.51999">
        <ele>483.2</ele>
        <time>2013-01-19T11:06:03Z</time>
      </trkpt>
      <trkpt lat="45.75079" lon="4.51981">
        <ele>488.49</ele>
        <time>2013-01-19T11:06:18Z</time>
      </trkpt>
      <trkpt lat="45.751" lon="4.51968">
        <ele>492.81</ele>
        <time>2013-01-19T11:06:34Z</time>
      </trkpt>
      <trkpt lat="45.75118" lon="4.51961">
        <ele>493.77</ele>
        <time>2013-01-19T11:06:48Z</time>
      </trkpt>
      <trkpt lat="45.7514" lon="4.5195">
        <ele>494.74</ele>
        <time>2013-01-19T11:07:02Z</time>
      </trkpt>
      <trkpt lat="45.7517" lon="4.51937">
        <ele>497.62</ele>
        <time>2013-01-19T11:07:14Z</time>
      </trkpt>
      <trkpt lat="45.75181" lon="4.51926">
        <ele>499.06</ele>
        <time>2013-01-19T11:07:20Z</time>
      </trkpt>
      <trkpt lat="45.75181" lon="4.51923">
        <ele>499.06</ele>
        <time>2013-01-19T11:07:21Z</time>
      </trkpt>
      <trkpt lat="45.75179" lon="4.51891">
        <ele>498.58</ele>
        <time>2013-01-19T11:07:35Z</time>
      </trkpt>
      <trkpt lat="45.75178" lon="4.51889">
        <ele>499.06</ele>
        <time>2013-01-19T11:07:36Z</time>
      </trkpt>
      <trkpt lat="45.75177" lon="4.51887">
        <ele>499.54</ele>
        <time>2013-01-19T11:07:37Z</time>
      </trkpt>
      <trkpt lat="45.75177" lon="4.51885">
        <ele>499.54</ele>
        <time>2013-01-19T11:07:38Z</time>
      </trkpt>
      <trkpt lat="45.75177" lon="4.51883">
        <ele>500.02</ele>
        <time>2013-01-19T11:07:39Z</time>
      </trkpt>
      <trkpt lat="45.75176" lon="4.51881">
        <ele>500.02</ele>
        <time>2013-01-19T11:07:40Z</time>
      </trkpt>
      <trkpt lat="45.75173" lon="4.51858">
        <ele>500.02</ele>
        <time>2013-01-19T11:07:52Z</time>
      </trkpt>
      <trkpt lat="45.75173" lon="4.51854">
        <ele>500.5</ele>
        <time>2013-01-19T11:07:55Z</time>
      </trkpt>
      <trkpt lat="45.75168" lon="4.51835">
        <ele>501.46</ele>
        <time>2013-01-19T11:08:06Z</time>
      </trkpt>
      <trkpt lat="45.75168" lon="4.51818">
        <ele>502.91</ele>
        <time>2013-01-19T11:08:16Z</time>
      </trkpt>
      <trkpt lat="45.75168" lon="4.51816">
        <ele>503.39</ele>
        <time>2013-01-19T11:08:17Z</time>
      </trkpt>
      <trkpt lat="45.75168" lon="4.51814">
        <ele>503.39</ele>
        <time>2013-01-19T11:08:18Z</time>
      </trkpt>
      <trkpt lat="45.75168" lon="4.51809">
        <ele>504.83</ele>
        <time>2013-01-19T11:08:21Z</time>
      </trkpt>
      <trkpt lat="45.75168" lon="4.51778">
        <ele>506.75</ele>
        <time>2013-01-19T11:08:36Z</time>
      </trkpt>
      <trkpt lat="45.75169" lon="4.51764">
        <ele>507.23</ele>
        <time>2013-01-19T11:08:43Z</time>
      </trkpt>
      <trkpt lat="45.75171" lon="4.51737">
        <ele>507.23</ele>
        <time>2013-01-19T11:08:56Z</time>
      </trkpt>
      <trkpt lat="45.7517" lon="4.51709">
        <ele>510.12</ele>
        <time>2013-01-19T11:09:09Z</time>
      </trkpt>
      <trkpt lat="45.7517" lon="4.51677">
        <ele>512.04</ele>
        <time>2013-01-19T11:09:23Z</time>
      </trkpt>
      <trkpt lat="45.75169" lon="4.51645">
        <ele>512.04</ele>
        <time>2013-01-19T11:09:37Z</time>
      </trkpt>
      <trkpt lat="45.75168" lon="4.51623">
        <ele>513.48</ele>
        <time>2013-01-19T11:09:49Z</time>
      </trkpt>
      <trkpt lat="45.75167" lon="4.51612">
        <ele>514.44</ele>
        <time>2013-01-19T11:09:55Z</time>
      </trkpt>
      <trkpt lat="45.75167" lon="4.5161">
        <ele>514.44</ele>
        <time>2013-01-19T11:09:56Z</time>
      </trkpt>
      <trkpt lat="45.75167" lon="4.51586">
        <ele>517.81</ele>
        <time>2013-01-19T11:10:09Z</time>
      </trkpt>
      <trkpt lat="45.75167" lon="4.51584">
        <ele>518.29</ele>
        <time>2013-01-19T11:10:10Z</time>
      </trkpt>
      <trkpt lat="45.75166" lon="4.51581">
        <ele>518.77</ele>
        <time>2013-01-19T11:10:12Z</time>
      </trkpt>
      <trkpt lat="45.75165" lon="4.51579">
        <ele>518.77</ele>
        <time>2013-01-19T11:10:14Z</time>
      </trkpt>
      <trkpt lat="45.75165" lon="4.51577">
        <ele>518.77</ele>
        <time>2013-01-19T11:10:15Z</time>
      </trkpt>
      <trkpt lat="45.75164" lon="4.51575">
        <ele>519.25</ele>
        <time>2013-01-19T11:10:16Z</time>
      </trkpt>
      <trkpt lat="45.75164" lon="4.51573">
        <ele>519.25</ele>
        <time>2013-01-19T11:10:17Z</time>
      </trkpt>
      <trkpt lat="45.75164" lon="4.51571">
        <ele>519.25</ele>
        <time>2013-01-19T11:10:18Z</time>
      </trkpt>
      <trkpt lat="45.75164" lon="4.51569">
        <ele>519.73</ele>
        <time>2013-01-19T11:10:19Z</time>
      </trkpt>
      <trkpt lat="45.75164" lon="4.51568">
        <ele>519.73</ele>
        <time>2013-01-19T11:10:20Z</time>
      </trkpt>
      <trkpt lat="45.75165" lon="4.51566">
        <ele>520.21</ele>
        <time>2013-01-19T11:10:21Z</time>
      </trkpt>
      <trkpt lat="45.75165" lon="4.51564">
        <ele>520.21</ele>
        <time>2013-01-19T11:10:22Z</time>
      </trkpt>
      <trkpt lat="45.75165" lon="4.51562">
        <ele>520.69</ele>
        <time>2013-01-19T11:10:23Z</time>
      </trkpt>
      <trkpt lat="45.75166" lon="4.5156">
        <ele>520.69</ele>
        <time>2013-01-19T11:10:24Z</time>
      </trkpt>
      <trkpt lat="45.75166" lon="4.51558">
        <ele>520.69</ele>
        <time>2013-01-19T11:10:25Z</time>
      </trkpt>
      <trkpt lat="45.75166" lon="4.51556">
        <ele>521.17</ele>
        <time>2013-01-19T11:10:26Z</time>
      </trkpt>
      <trkpt lat="45.75166" lon="4.51554">
        <ele>521.17</ele>
        <time>2013-01-19T11:10:27Z</time>
      </trkpt>
      <trkpt lat="45.75166" lon="4.51552">
        <ele>521.17</ele>
        <time>2013-01-19T11:10:28Z</time>
      </trkpt>
      <trkpt lat="45.75166" lon="4.5155">
        <ele>521.17</ele>
        <time>2013-01-19T11:10:29Z</time>
      </trkpt>
      <trkpt lat="45.75166" lon="4.51548">
        <ele>521.17</ele>
        <time>2013-01-19T11:10:30Z</time>
      </trkpt>
      <trkpt lat="45.7517" lon="4.51517">
        <ele>519.73</ele>
        <time>2013-01-19T11:10:42Z</time>
      </trkpt>
      <trkpt lat="45.75174" lon="4.51504">
        <ele>518.77</ele>
        <time>2013-01-19T11:10:48Z</time>
      </trkpt>
      <trkpt lat="45.75186" lon="4.51475">
        <ele>517.33</ele>
        <time>2013-01-19T11:11:00Z</time>
      </trkpt>
      <trkpt lat="45.75205" lon="4.51427">
        <ele>514.44</ele>
        <time>2013-01-19T11:11:13Z</time>
      </trkpt>
      <trkpt lat="45.75207" lon="4.51368">
        <ele>512.04</ele>
        <time>2013-01-19T11:11:27Z</time>
      </trkpt>
      <trkpt lat="45.75202" lon="4.51305">
        <ele>508.19</ele>
        <time>2013-01-19T11:11:42Z</time>
      </trkpt>
      <trkpt lat="45.75205" lon="4.51297">
        <ele>507.23</ele>
        <time>2013-01-19T11:11:51Z</time>
      </trkpt>
      <trkpt lat="45.75203" lon="4.51296">
        <ele>507.23</ele>
        <time>2013-01-19T11:12:14Z</time>
      </trkpt>
      <trkpt lat="45.75203" lon="4.51294">
        <ele>507.23</ele>
        <time>2013-01-19T11:12:15Z</time>
      </trkpt>
      <trkpt lat="45.75203" lon="4.51291">
        <ele>507.71</ele>
        <time>2013-01-19T11:12:16Z</time>
      </trkpt>
      <trkpt lat="45.75217" lon="4.51233">
        <ele>509.64</ele>
        <time>2013-01-19T11:12:31Z</time>
      </trkpt>
      <trkpt lat="45.75231" lon="4.5119">
        <ele>509.16</ele>
        <time>2013-01-19T11:12:43Z</time>
      </trkpt>
      <trkpt lat="45.75255" lon="4.51124">
        <ele>505.31</ele>
        <time>2013-01-19T11:12:57Z</time>
      </trkpt>
      <trkpt lat="45.75273" lon="4.51066">
        <ele>497.62</ele>
        <time>2013-01-19T11:13:11Z</time>
      </trkpt>
      <trkpt lat="45.75301" lon="4.51036">
        <ele>487.05</ele>
        <time>2013-01-19T11:13:24Z</time>
      </trkpt>
      <trkpt lat="45.75325" lon="4.50994">
        <ele>477.43</ele>
        <time>2013-01-19T11:13:38Z</time>
      </trkpt>
      <trkpt lat="45.75335" lon="4.50925">
        <ele>468.78</ele>
        <time>2013-01-19T11:13:54Z</time>
      </trkpt>
      <trkpt lat="45.75319" lon="4.50871">
        <ele>460.61</ele>
        <time>2013-01-19T11:14:10Z</time>
      </trkpt>
      <trkpt lat="45.75297" lon="4.50833">
        <ele>455.8</ele>
        <time>2013-01-19T11:14:25Z</time>
      </trkpt>
      <trkpt lat="45.75327" lon="4.508">
        <ele>452.44</ele>
        <time>2013-01-19T11:14:41Z</time>
      </trkpt>
      <trkpt lat="45.75353" lon="4.50748">
        <ele>445.23</ele>
        <time>2013-01-19T11:14:57Z</time>
      </trkpt>
      <trkpt lat="45.75369" lon="4.5069">
        <ele>437.54</ele>
        <time>2013-01-19T11:15:13Z</time>
      </trkpt>
      <trkpt lat="45.7538" lon="4.50633">
        <ele>431.29</ele>
        <time>2013-01-19T11:15:28Z</time>
      </trkpt>
      <trkpt lat="45.75383" lon="4.50571">
        <ele>426</ele>
        <time>2013-01-19T11:15:44Z</time>
      </trkpt>
      <trkpt lat="45.75398" lon="4.50538">
        <ele>420.71</ele>
        <time>2013-01-19T11:15:56Z</time>
      </trkpt>
      <trkpt lat="45.754" lon="4.50538">
        <ele>420.71</ele>
        <time>2013-01-19T11:15:57Z</time>
      </trkpt>
      <trkpt lat="45.75402" lon="4.50539">
        <ele>420.23</ele>
        <time>2013-01-19T11:15:58Z</time>
      </trkpt>
      <trkpt lat="45.75404" lon="4.50539">
        <ele>420.23</ele>
        <time>2013-01-19T11:15:59Z</time>
      </trkpt>
      <trkpt lat="45.75433" lon="4.50528">
        <ele>419.27</ele>
        <time>2013-01-19T11:16:15Z</time>
      </trkpt>
      <trkpt lat="45.7544" lon="4.50526">
        <ele>420.71</ele>
        <time>2013-01-19T11:16:19Z</time>
      </trkpt>
      <trkpt lat="45.75448" lon="4.50525">
        <ele>421.68</ele>
        <time>2013-01-19T11:16:24Z</time>
      </trkpt>
      <trkpt lat="45.7545" lon="4.50524">
        <ele>421.68</ele>
        <time>2013-01-19T11:16:26Z</time>
      </trkpt>
      <trkpt lat="45.75452" lon="4.50523">
        <ele>421.68</ele>
        <time>2013-01-19T11:16:27Z</time>
      </trkpt>
      <trkpt lat="45.75472" lon="4.50516">
        <ele>423.12</ele>
        <time>2013-01-19T11:16:41Z</time>
      </trkpt>
      <trkpt lat="45.75489" lon="4.50511">
        <ele>428.89</ele>
        <time>2013-01-19T11:16:54Z</time>
      </trkpt>
      <trkpt lat="45.75489" lon="4.50509">
        <ele>429.37</ele>
        <time>2013-01-19T11:16:55Z</time>
      </trkpt>
      <trkpt lat="45.75492" lon="4.50479">
        <ele>434.17</ele>
        <time>2013-01-19T11:17:10Z</time>
      </trkpt>
      <trkpt lat="45.75489" lon="4.50458">
        <ele>434.65</ele>
        <time>2013-01-19T11:17:20Z</time>
      </trkpt>
      <trkpt lat="45.75489" lon="4.50453">
        <ele>435.13</ele>
        <time>2013-01-19T11:17:23Z</time>
      </trkpt>
      <trkpt lat="45.75488" lon="4.50451">
        <ele>435.13</ele>
        <time>2013-01-19T11:17:24Z</time>
      </trkpt>
      <trkpt lat="45.75488" lon="4.50448">
        <ele>434.65</ele>
        <time>2013-01-19T11:17:25Z</time>
      </trkpt>
      <trkpt lat="45.75487" lon="4.50446">
        <ele>435.13</ele>
        <time>2013-01-19T11:17:26Z</time>
      </trkpt>
      <trkpt lat="45.75487" lon="4.50444">
        <ele>434.65</ele>
        <time>2013-01-19T11:17:27Z</time>
      </trkpt>
      <trkpt lat="45.75487" lon="4.50441">
        <ele>434.65</ele>
        <time>2013-01-19T11:17:28Z</time>
      </trkpt>
      <trkpt lat="45.75486" lon="4.50439">
        <ele>435.13</ele>
        <time>2013-01-19T11:17:29Z</time>
      </trkpt>
      <trkpt lat="45.75486" lon="4.50437">
        <ele>435.13</ele>
        <time>2013-01-19T11:17:30Z</time>
      </trkpt>
      <trkpt lat="45.75487" lon="4.50432">
        <ele>435.13</ele>
        <time>2013-01-19T11:17:33Z</time>
      </trkpt>
      <trkpt lat="45.75488" lon="4.50431">
        <ele>435.13</ele>
        <time>2013-01-19T11:17:34Z</time>
      </trkpt>
      <trkpt lat="45.75488" lon="4.50429">
        <ele>434.65</ele>
        <time>2013-01-19T11:17:35Z</time>
      </trkpt>
      <trkpt lat="45.75484" lon="4.50398">
        <ele>436.1</ele>
        <time>2013-01-19T11:17:49Z</time>
      </trkpt>
      <trkpt lat="45.75471" lon="4.50354">
        <ele>439.94</ele>
        <time>2013-01-19T11:18:06Z</time>
      </trkpt>
      <trkpt lat="45.7546" lon="4.50309">
        <ele>445.23</ele>
        <time>2013-01-19T11:18:21Z</time>
      </trkpt>
      <trkpt lat="45.75456" lon="4.50271">
        <ele>451.48</ele>
        <time>2013-01-19T11:18:36Z</time>
      </trkpt>
      <trkpt lat="45.75461" lon="4.50252">
        <ele>454.84</ele>
        <time>2013-01-19T11:18:54Z</time>
      </trkpt>
      <trkpt lat="45.75463" lon="4.50245">
        <ele>455.8</ele>
        <time>2013-01-19T11:19:01Z</time>
      </trkpt>
      <trkpt lat="45.75464" lon="4.50242">
        <ele>456.28</ele>
        <time>2013-01-19T11:19:03Z</time>
      </trkpt>
      <trkpt lat="45.75472" lon="4.50208">
        <ele>461.09</ele>
        <time>2013-01-19T11:19:19Z</time>
      </trkpt>
      <trkpt lat="45.75479" lon="4.5017">
        <ele>468.78</ele>
        <time>2013-01-19T11:19:40Z</time>
      </trkpt>
      <trkpt lat="45.7549" lon="4.50127">
        <ele>470.7</ele>
        <time>2013-01-19T11:19:57Z</time>
      </trkpt>
      <trkpt lat="45.75498" lon="4.50093">
        <ele>470.7</ele>
        <time>2013-01-19T11:20:13Z</time>
      </trkpt>
      <trkpt lat="45.75512" lon="4.50063">
        <ele>470.7</ele>
        <time>2013-01-19T11:20:29Z</time>
      </trkpt>
      <trkpt lat="45.75528" lon="4.50044">
        <ele>470.7</ele>
        <time>2013-01-19T11:20:42Z</time>
      </trkpt>
      <trkpt lat="45.75529" lon="4.50045">
        <ele>470.7</ele>
        <time>2013-01-19T11:20:43Z</time>
      </trkpt>
      <trkpt lat="45.7553" lon="4.50046">
        <ele>470.7</ele>
        <time>2013-01-19T11:20:44Z</time>
      </trkpt>
      <trkpt lat="45.75531" lon="4.50046">
        <ele>470.7</ele>
        <time>2013-01-19T11:20:45Z</time>
      </trkpt>
      <trkpt lat="45.75533" lon="4.50046">
        <ele>470.7</ele>
        <time>2013-01-19T11:20:46Z</time>
      </trkpt>
      <trkpt lat="45.75548" lon="4.50049">
        <ele>474.07</ele>
        <time>2013-01-19T11:20:58Z</time>
      </trkpt>
      <trkpt lat="45.75567" lon="4.50054">
        <ele>476.95</ele>
        <time>2013-01-19T11:21:12Z</time>
      </trkpt>
      <trkpt lat="45.75591" lon="4.50059">
        <ele>480.8</ele>
        <time>2013-01-19T11:21:30Z</time>
      </trkpt>
      <trkpt lat="45.7561" lon="4.50064">
        <ele>485.6</ele>
        <time>2013-01-19T11:21:45Z</time>
      </trkpt>
      <trkpt lat="45.75628" lon="4.50068">
        <ele>489.93</ele>
        <time>2013-01-19T11:22:00Z</time>
      </trkpt>
      <trkpt lat="45.75644" lon="4.5007">
        <ele>492.33</ele>
        <time>2013-01-19T11:22:16Z</time>
      </trkpt>
      <trkpt lat="45.75656" lon="4.50074">
        <ele>493.77</ele>
        <time>2013-01-19T11:22:29Z</time>
      </trkpt>
      <trkpt lat="45.75671" lon="4.50079">
        <ele>496.18</ele>
        <time>2013-01-19T11:22:41Z</time>
      </trkpt>
      <trkpt lat="45.75691" lon="4.5008">
        <ele>499.54</ele>
        <time>2013-01-19T11:22:55Z</time>
      </trkpt>
      <trkpt lat="45.75701" lon="4.50079">
        <ele>501.46</ele>
        <time>2013-01-19T11:23:02Z</time>
      </trkpt>
      <trkpt lat="45.75702" lon="4.50079">
        <ele>501.46</ele>
        <time>2013-01-19T11:23:03Z</time>
      </trkpt>
      <trkpt lat="45.75703" lon="4.5008">
        <ele>501.95</ele>
        <time>2013-01-19T11:23:04Z</time>
      </trkpt>
      <trkpt lat="45.75705" lon="4.5008">
        <ele>501.95</ele>
        <time>2013-01-19T11:23:05Z</time>
      </trkpt>
      <trkpt lat="45.75706" lon="4.50081">
        <ele>501.95</ele>
        <time>2013-01-19T11:23:06Z</time>
      </trkpt>
      <trkpt lat="45.7572" lon="4.50084">
        <ele>503.39</ele>
        <time>2013-01-19T11:23:19Z</time>
      </trkpt>
      <trkpt lat="45.75734" lon="4.50087">
        <ele>506.27</ele>
        <time>2013-01-19T11:23:31Z</time>
      </trkpt>
      <trkpt lat="45.75746" lon="4.5009">
        <ele>511.08</ele>
        <time>2013-01-19T11:23:45Z</time>
      </trkpt>
      <trkpt lat="45.75747" lon="4.5009">
        <ele>512.04</ele>
        <time>2013-01-19T11:23:53Z</time>
      </trkpt>
      <trkpt lat="45.75748" lon="4.50092">
        <ele>512.04</ele>
        <time>2013-01-19T11:23:54Z</time>
      </trkpt>
      <trkpt lat="45.75749" lon="4.50093">
        <ele>512.52</ele>
        <time>2013-01-19T11:23:55Z</time>
      </trkpt>
      <trkpt lat="45.7575" lon="4.50095">
        <ele>512.52</ele>
        <time>2013-01-19T11:23:56Z</time>
      </trkpt>
      <trkpt lat="45.7575" lon="4.501">
        <ele>512.04</ele>
        <time>2013-01-19T11:23:59Z</time>
      </trkpt>
      <trkpt lat="45.75749" lon="4.50106">
        <ele>511.56</ele>
        <time>2013-01-19T11:24:02Z</time>
      </trkpt>
      <trkpt lat="45.7575" lon="4.50111">
        <ele>511.56</ele>
        <time>2013-01-19T11:24:06Z</time>
      </trkpt>
      <trkpt lat="45.7575" lon="4.50114">
        <ele>511.56</ele>
        <time>2013-01-19T11:24:08Z</time>
      </trkpt>
      <trkpt lat="45.75751" lon="4.50116">
        <ele>511.56</ele>
        <time>2013-01-19T11:24:09Z</time>
      </trkpt>
      <trkpt lat="45.75756" lon="4.50134">
        <ele>513</ele>
        <time>2013-01-19T11:24:20Z</time>
      </trkpt>
      <trkpt lat="45.75757" lon="4.50135">
        <ele>513.48</ele>
        <time>2013-01-19T11:24:21Z</time>
      </trkpt>
      <trkpt lat="45.75758" lon="4.50136">
        <ele>513.48</ele>
        <time>2013-01-19T11:24:22Z</time>
      </trkpt>
      <trkpt lat="45.75763" lon="4.50139">
        <ele>514.44</ele>
        <time>2013-01-19T11:24:27Z</time>
      </trkpt>
      <trkpt lat="45.75765" lon="4.50138">
        <ele>514.92</ele>
        <time>2013-01-19T11:24:28Z</time>
      </trkpt>
      <trkpt lat="45.75766" lon="4.50138">
        <ele>514.92</ele>
        <time>2013-01-19T11:24:29Z</time>
      </trkpt>
      <trkpt lat="45.75767" lon="4.50137">
        <ele>514.92</ele>
        <time>2013-01-19T11:24:30Z</time>
      </trkpt>
      <trkpt lat="45.75769" lon="4.50137">
        <ele>514.92</ele>
        <time>2013-01-19T11:24:31Z</time>
      </trkpt>
      <trkpt lat="45.75792" lon="4.50133">
        <ele>518.29</ele>
        <time>2013-01-19T11:24:48Z</time>
      </trkpt>
      <trkpt lat="45.75806" lon="4.5013">
        <ele>523.09</ele>
        <time>2013-01-19T11:25:00Z</time>
      </trkpt>
      <trkpt lat="45.75813" lon="4.50128">
        <ele>524.06</ele>
        <time>2013-01-19T11:25:06Z</time>
      </trkpt>
      <trkpt lat="45.75821" lon="4.50129">
        <ele>525.5</ele>
        <time>2013-01-19T11:25:11Z</time>
      </trkpt>
      <trkpt lat="45.75834" lon="4.50125">
        <ele>525.98</ele>
        <time>2013-01-19T11:25:18Z</time>
      </trkpt>
      <trkpt lat="45.75836" lon="4.50124">
        <ele>525.98</ele>
        <time>2013-01-19T11:25:19Z</time>
      </trkpt>
      <trkpt lat="45.7585" lon="4.50117">
        <ele>530.3</ele>
        <time>2013-01-19T11:25:29Z</time>
      </trkpt>
      <trkpt lat="45.75852" lon="4.50116">
        <ele>530.79</ele>
        <time>2013-01-19T11:25:30Z</time>
      </trkpt>
      <trkpt lat="45.75857" lon="4.50115">
        <ele>532.71</ele>
        <time>2013-01-19T11:25:34Z</time>
      </trkpt>
      <trkpt lat="45.75859" lon="4.50115">
        <ele>532.71</ele>
        <time>2013-01-19T11:25:35Z</time>
      </trkpt>
      <trkpt lat="45.75879" lon="4.50101">
        <ele>536.07</ele>
        <time>2013-01-19T11:25:46Z</time>
      </trkpt>
      <trkpt lat="45.75904" lon="4.50073">
        <ele>539.92</ele>
        <time>2013-01-19T11:25:58Z</time>
      </trkpt>
      <trkpt lat="45.75918" lon="4.50056">
        <ele>541.36</ele>
        <time>2013-01-19T11:26:08Z</time>
      </trkpt>
      <trkpt lat="45.75929" lon="4.50038">
        <ele>538.48</ele>
        <time>2013-01-19T11:26:23Z</time>
      </trkpt>
      <trkpt lat="45.75942" lon="4.5003">
        <ele>539.92</ele>
        <time>2013-01-19T11:26:32Z</time>
      </trkpt>
      <trkpt lat="45.75943" lon="4.50029">
        <ele>540.4</ele>
        <time>2013-01-19T11:26:34Z</time>
      </trkpt>
      <trkpt lat="45.75948" lon="4.50024">
        <ele>541.36</ele>
        <time>2013-01-19T11:26:38Z</time>
      </trkpt>
      <trkpt lat="45.75949" lon="4.50024">
        <ele>540.88</ele>
        <time>2013-01-19T11:26:39Z</time>
      </trkpt>
      <trkpt lat="45.75951" lon="4.50024">
        <ele>540.88</ele>
        <time>2013-01-19T11:26:40Z</time>
      </trkpt>
      <trkpt lat="45.75952" lon="4.50024">
        <ele>540.4</ele>
        <time>2013-01-19T11:26:41Z</time>
      </trkpt>
      <trkpt lat="45.75953" lon="4.50023">
        <ele>540.4</ele>
        <time>2013-01-19T11:26:42Z</time>
      </trkpt>
      <trkpt lat="45.75955" lon="4.50022">
        <ele>540.4</ele>
        <time>2013-01-19T11:26:43Z</time>
      </trkpt>
      <trkpt lat="45.75957" lon="4.50022">
        <ele>540.4</ele>
        <time>2013-01-19T11:26:44Z</time>
      </trkpt>
      <trkpt lat="45.75958" lon="4.50022">
        <ele>540.4</ele>
        <time>2013-01-19T11:26:45Z</time>
      </trkpt>
      <trkpt lat="45.7596" lon="4.50022">
        <ele>540.88</ele>
        <time>2013-01-19T11:26:46Z</time>
      </trkpt>
      <trkpt lat="45.75962" lon="4.50023">
        <ele>540.88</ele>
        <time>2013-01-19T11:26:47Z</time>
      </trkpt>
      <trkpt lat="45.75963" lon="4.50023">
        <ele>541.36</ele>
        <time>2013-01-19T11:26:48Z</time>
      </trkpt>
      <trkpt lat="45.75965" lon="4.50023">
        <ele>541.84</ele>
        <time>2013-01-19T11:26:49Z</time>
      </trkpt>
      <trkpt lat="45.75968" lon="4.50022">
        <ele>541.84</ele>
        <time>2013-01-19T11:26:50Z</time>
      </trkpt>
      <trkpt lat="45.75969" lon="4.50022">
        <ele>542.32</ele>
        <time>2013-01-19T11:26:51Z</time>
      </trkpt>
      <trkpt lat="45.75971" lon="4.50022">
        <ele>542.32</ele>
        <time>2013-01-19T11:26:52Z</time>
      </trkpt>
      <trkpt lat="45.75973" lon="4.50022">
        <ele>542.8</ele>
        <time>2013-01-19T11:26:53Z</time>
      </trkpt>
      <trkpt lat="45.75974" lon="4.50022">
        <ele>542.8</ele>
        <time>2013-01-19T11:26:54Z</time>
      </trkpt>
      <trkpt lat="45.75989" lon="4.50021">
        <ele>545.2</ele>
        <time>2013-01-19T11:27:01Z</time>
      </trkpt>
      <trkpt lat="45.76003" lon="4.50017">
        <ele>548.09</ele>
        <time>2013-01-19T11:27:07Z</time>
      </trkpt>
      <trkpt lat="45.76033" lon="4.50015">
        <ele>552.41</ele>
        <time>2013-01-19T11:27:17Z</time>
      </trkpt>
      <trkpt lat="45.76055" lon="4.50013">
        <ele>552.41</ele>
        <time>2013-01-19T11:27:27Z</time>
      </trkpt>
      <trkpt lat="45.76073" lon="4.50007">
        <ele>550.01</ele>
        <time>2013-01-19T11:27:39Z</time>
      </trkpt>
      <trkpt lat="45.76097" lon="4.49998">
        <ele>552.41</ele>
        <time>2013-01-19T11:27:49Z</time>
      </trkpt>
      <trkpt lat="45.76104" lon="4.49993">
        <ele>552.9</ele>
        <time>2013-01-19T11:27:52Z</time>
      </trkpt>
      <trkpt lat="45.76106" lon="4.49992">
        <ele>552.9</ele>
        <time>2013-01-19T11:27:53Z</time>
      </trkpt>
      <trkpt lat="45.76131" lon="4.49991">
        <ele>552.41</ele>
        <time>2013-01-19T11:28:03Z</time>
      </trkpt>
      <trkpt lat="45.76134" lon="4.49987">
        <ele>551.45</ele>
        <time>2013-01-19T11:28:10Z</time>
      </trkpt>
      <trkpt lat="45.76137" lon="4.49989">
        <ele>551.45</ele>
        <time>2013-01-19T11:28:12Z</time>
      </trkpt>
      <trkpt lat="45.76138" lon="4.49991">
        <ele>551.45</ele>
        <time>2013-01-19T11:28:13Z</time>
      </trkpt>
      <trkpt lat="45.7614" lon="4.49992">
        <ele>551.45</ele>
        <time>2013-01-19T11:28:14Z</time>
      </trkpt>
      <trkpt lat="45.76143" lon="4.49993">
        <ele>551.45</ele>
        <time>2013-01-19T11:28:15Z</time>
      </trkpt>
      <trkpt lat="45.76145" lon="4.49994">
        <ele>551.45</ele>
        <time>2013-01-19T11:28:16Z</time>
      </trkpt>
      <trkpt lat="45.76147" lon="4.49994">
        <ele>551.93</ele>
        <time>2013-01-19T11:28:17Z</time>
      </trkpt>
      <trkpt lat="45.7615" lon="4.49995">
        <ele>551.93</ele>
        <time>2013-01-19T11:28:18Z</time>
      </trkpt>
      <trkpt lat="45.76152" lon="4.49994">
        <ele>551.93</ele>
        <time>2013-01-19T11:28:19Z</time>
      </trkpt>
      <trkpt lat="45.76155" lon="4.49994">
        <ele>551.93</ele>
        <time>2013-01-19T11:28:20Z</time>
      </trkpt>
      <trkpt lat="45.76177" lon="4.49988">
        <ele>552.41</ele>
        <time>2013-01-19T11:28:28Z</time>
      </trkpt>
      <trkpt lat="45.76179" lon="4.49986">
        <ele>552.41</ele>
        <time>2013-01-19T11:28:32Z</time>
      </trkpt>
      <trkpt lat="45.76172" lon="4.49949">
        <ele>553.86</ele>
        <time>2013-01-19T11:28:43Z</time>
      </trkpt>
      <trkpt lat="45.76164" lon="4.49909">
        <ele>556.26</ele>
        <time>2013-01-19T11:28:54Z</time>
      </trkpt>
      <trkpt lat="45.76161" lon="4.49885">
        <ele>554.82</ele>
        <time>2013-01-19T11:29:03Z</time>
      </trkpt>
      <trkpt lat="45.76161" lon="4.49886">
        <ele>555.3</ele>
        <time>2013-01-19T11:29:05Z</time>
      </trkpt>
      <trkpt lat="45.76167" lon="4.49886">
        <ele>556.26</ele>
        <time>2013-01-19T11:29:18Z</time>
      </trkpt>
      <trkpt lat="45.76172" lon="4.49886">
        <ele>556.26</ele>
        <time>2013-01-19T11:29:26Z</time>
      </trkpt>
      <trkpt lat="45.76171" lon="4.49886">
        <ele>556.74</ele>
        <time>2013-01-19T11:29:27Z</time>
      </trkpt>
      <trkpt lat="45.7617" lon="4.49884">
        <ele>556.74</ele>
        <time>2013-01-19T11:29:30Z</time>
      </trkpt>
      <trkpt lat="45.76171" lon="4.49883">
        <ele>556.74</ele>
        <time>2013-01-19T11:29:31Z</time>
      </trkpt>
      <trkpt lat="45.76205" lon="4.4988">
        <ele>557.7</ele>
        <time>2013-01-19T11:29:45Z</time>
      </trkpt>
      <trkpt lat="45.76225" lon="4.49888">
        <ele>558.18</ele>
        <time>2013-01-19T11:29:50Z</time>
      </trkpt>
      <trkpt lat="45.76233" lon="4.49889">
        <ele>557.7</ele>
        <time>2013-01-19T11:29:52Z</time>
      </trkpt>
      <trkpt lat="45.76237" lon="4.4989">
        <ele>557.22</ele>
        <time>2013-01-19T11:29:53Z</time>
      </trkpt>
      <trkpt lat="45.7627" lon="4.49902">
        <ele>555.3</ele>
        <time>2013-01-19T11:30:04Z</time>
      </trkpt>
      <trkpt lat="45.76302" lon="4.49919">
        <ele>554.34</ele>
        <time>2013-01-19T11:30:17Z</time>
      </trkpt>
      <trkpt lat="45.76337" lon="4.49901">
        <ele>551.45</ele>
        <time>2013-01-19T11:30:29Z</time>
      </trkpt>
      <trkpt lat="45.76374" lon="4.49898">
        <ele>548.57</ele>
        <time>2013-01-19T11:30:42Z</time>
      </trkpt>
      <trkpt lat="45.76411" lon="4.49903">
        <ele>550.49</ele>
        <time>2013-01-19T11:30:56Z</time>
      </trkpt>
      <trkpt lat="45.7645" lon="4.49891">
        <ele>552.9</ele>
        <time>2013-01-19T11:31:11Z</time>
      </trkpt>
      <trkpt lat="45.76475" lon="4.49885">
        <ele>554.34</ele>
        <time>2013-01-19T11:31:24Z</time>
      </trkpt>
      <trkpt lat="45.76479" lon="4.49887">
        <ele>555.78</ele>
        <time>2013-01-19T11:31:30Z</time>
      </trkpt>
      <trkpt lat="45.7648" lon="4.49888">
        <ele>555.78</ele>
        <time>2013-01-19T11:31:31Z</time>
      </trkpt>
      <trkpt lat="45.76482" lon="4.49891">
        <ele>556.26</ele>
        <time>2013-01-19T11:31:32Z</time>
      </trkpt>
      <trkpt lat="45.76512" lon="4.49908">
        <ele>557.7</ele>
        <time>2013-01-19T11:31:44Z</time>
      </trkpt>
      <trkpt lat="45.7655" lon="4.49907">
        <ele>555.3</ele>
        <time>2013-01-19T11:31:58Z</time>
      </trkpt>
      <trkpt lat="45.76585" lon="4.49902">
        <ele>554.34</ele>
        <time>2013-01-19T11:32:11Z</time>
      </trkpt>
      <trkpt lat="45.76611" lon="4.49911">
        <ele>555.3</ele>
        <time>2013-01-19T11:32:24Z</time>
      </trkpt>
      <trkpt lat="45.76629" lon="4.49916">
        <ele>557.7</ele>
        <time>2013-01-19T11:32:38Z</time>
      </trkpt>
      <trkpt lat="45.76649" lon="4.4991">
        <ele>558.66</ele>
        <time>2013-01-19T11:32:54Z</time>
      </trkpt>
      <trkpt lat="45.7667" lon="4.49916">
        <ele>562.51</ele>
        <time>2013-01-19T11:33:11Z</time>
      </trkpt>
      <trkpt lat="45.76676" lon="4.4992">
        <ele>564.43</ele>
        <time>2013-01-19T11:33:15Z</time>
      </trkpt>
      <trkpt lat="45.76677" lon="4.49922">
        <ele>564.91</ele>
        <time>2013-01-19T11:33:16Z</time>
      </trkpt>
      <trkpt lat="45.76681" lon="4.49924">
        <ele>565.87</ele>
        <time>2013-01-19T11:33:26Z</time>
      </trkpt>
      <trkpt lat="45.76685" lon="4.49928">
        <ele>566.83</ele>
        <time>2013-01-19T11:33:43Z</time>
      </trkpt>
      <trkpt lat="45.7671" lon="4.49967">
        <ele>569.24</ele>
        <time>2013-01-19T11:33:57Z</time>
      </trkpt>
      <trkpt lat="45.76718" lon="4.50009">
        <ele>569.72</ele>
        <time>2013-01-19T11:34:09Z</time>
      </trkpt>
      <trkpt lat="45.7671" lon="4.50056">
        <ele>570.68</ele>
        <time>2013-01-19T11:34:23Z</time>
      </trkpt>
      <trkpt lat="45.76704" lon="4.50116">
        <ele>574.04</ele>
        <time>2013-01-19T11:34:41Z</time>
      </trkpt>
      <trkpt lat="45.76722" lon="4.50165">
        <ele>580.77</ele>
        <time>2013-01-19T11:34:58Z</time>
      </trkpt>
      <trkpt lat="45.76743" lon="4.50174">
        <ele>584.14</ele>
        <time>2013-01-19T11:35:10Z</time>
      </trkpt>
      <trkpt lat="45.76757" lon="4.50162">
        <ele>588.46</ele>
        <time>2013-01-19T11:35:26Z</time>
      </trkpt>
      <trkpt lat="45.76758" lon="4.5016">
        <ele>588.95</ele>
        <time>2013-01-19T11:35:50Z</time>
      </trkpt>
      <trkpt lat="45.76761" lon="4.5016">
        <ele>589.91</ele>
        <time>2013-01-19T11:35:54Z</time>
      </trkpt>
      <trkpt lat="45.76762" lon="4.50158">
        <ele>590.39</ele>
        <time>2013-01-19T11:35:55Z</time>
      </trkpt>
      <trkpt lat="45.76764" lon="4.50157">
        <ele>590.87</ele>
        <time>2013-01-19T11:35:56Z</time>
      </trkpt>
      <trkpt lat="45.76765" lon="4.50156">
        <ele>591.35</ele>
        <time>2013-01-19T11:35:57Z</time>
      </trkpt>
      <trkpt lat="45.76786" lon="4.50144">
        <ele>596.15</ele>
        <time>2013-01-19T11:36:15Z</time>
      </trkpt>
      <trkpt lat="45.768" lon="4.50126">
        <ele>599.52</ele>
        <time>2013-01-19T11:36:31Z</time>
      </trkpt>
      <trkpt lat="45.76809" lon="4.50118">
        <ele>602.4</ele>
        <time>2013-01-19T11:36:48Z</time>
      </trkpt>
      <trkpt lat="45.76813" lon="4.50114">
        <ele>603.36</ele>
        <time>2013-01-19T11:36:53Z</time>
      </trkpt>
      <trkpt lat="45.76817" lon="4.50112">
        <ele>604.33</ele>
        <time>2013-01-19T11:36:57Z</time>
      </trkpt>
      <trkpt lat="45.76819" lon="4.50111">
        <ele>604.33</ele>
        <time>2013-01-19T11:36:58Z</time>
      </trkpt>
      <trkpt lat="45.76839" lon="4.50097">
        <ele>608.17</ele>
        <time>2013-01-19T11:37:16Z</time>
      </trkpt>
      <trkpt lat="45.76839" lon="4.50096">
        <ele>608.65</ele>
        <time>2013-01-19T11:37:17Z</time>
      </trkpt>
      <trkpt lat="45.76853" lon="4.50079">
        <ele>612.98</ele>
        <time>2013-01-19T11:37:35Z</time>
      </trkpt>
      <trkpt lat="45.7686" lon="4.5007">
        <ele>614.9</ele>
        <time>2013-01-19T11:37:48Z</time>
      </trkpt>
      <trkpt lat="45.76871" lon="4.50057">
        <ele>617.78</ele>
        <time>2013-01-19T11:38:06Z</time>
      </trkpt>
      <trkpt lat="45.76883" lon="4.50049">
        <ele>621.63</ele>
        <time>2013-01-19T11:38:21Z</time>
      </trkpt>
      <trkpt lat="45.76894" lon="4.50039">
        <ele>625.96</ele>
        <time>2013-01-19T11:38:36Z</time>
      </trkpt>
      <trkpt lat="45.76902" lon="4.50029">
        <ele>629.32</ele>
        <time>2013-01-19T11:38:52Z</time>
      </trkpt>
      <trkpt lat="45.76912" lon="4.50014">
        <ele>635.09</ele>
        <time>2013-01-19T11:39:08Z</time>
      </trkpt>
      <trkpt lat="45.76914" lon="4.50008">
        <ele>637.01</ele>
        <time>2013-01-19T11:39:18Z</time>
      </trkpt>
      <trkpt lat="45.7692" lon="4.49994">
        <ele>638.93</ele>
        <time>2013-01-19T11:39:31Z</time>
      </trkpt>
      <trkpt lat="45.76924" lon="4.49986">
        <ele>639.89</ele>
        <time>2013-01-19T11:39:37Z</time>
      </trkpt>
      <trkpt lat="45.76925" lon="4.49986">
        <ele>640.38</ele>
        <time>2013-01-19T11:39:38Z</time>
      </trkpt>
      <trkpt lat="45.76937" lon="4.49979">
        <ele>644.22</ele>
        <time>2013-01-19T11:39:53Z</time>
      </trkpt>
      <trkpt lat="45.7694" lon="4.49978">
        <ele>645.18</ele>
        <time>2013-01-19T11:39:57Z</time>
      </trkpt>
      <trkpt lat="45.76952" lon="4.49969">
        <ele>646.62</ele>
        <time>2013-01-19T11:40:11Z</time>
      </trkpt>
      <trkpt lat="45.76964" lon="4.49953">
        <ele>650.47</ele>
        <time>2013-01-19T11:40:26Z</time>
      </trkpt>
      <trkpt lat="45.76972" lon="4.49935">
        <ele>654.8</ele>
        <time>2013-01-19T11:40:43Z</time>
      </trkpt>
      <trkpt lat="45.76973" lon="4.49933">
        <ele>654.8</ele>
        <time>2013-01-19T11:40:45Z</time>
      </trkpt>
      <trkpt lat="45.76979" lon="4.49928">
        <ele>654.8</ele>
        <time>2013-01-19T11:40:51Z</time>
      </trkpt>
      <trkpt lat="45.76981" lon="4.49926">
        <ele>654.8</ele>
        <time>2013-01-19T11:40:52Z</time>
      </trkpt>
      <trkpt lat="45.76983" lon="4.49925">
        <ele>655.28</ele>
        <time>2013-01-19T11:40:53Z</time>
      </trkpt>
      <trkpt lat="45.76984" lon="4.49924">
        <ele>655.76</ele>
        <time>2013-01-19T11:40:54Z</time>
      </trkpt>
      <trkpt lat="45.76994" lon="4.49917">
        <ele>659.12</ele>
        <time>2013-01-19T11:41:05Z</time>
      </trkpt>
      <trkpt lat="45.77" lon="4.49915">
        <ele>660.56</ele>
        <time>2013-01-19T11:41:11Z</time>
      </trkpt>
      <trkpt lat="45.77012" lon="4.49909">
        <ele>663.93</ele>
        <time>2013-01-19T11:41:25Z</time>
      </trkpt>
      <trkpt lat="45.77023" lon="4.49904">
        <ele>666.81</ele>
        <time>2013-01-19T11:41:35Z</time>
      </trkpt>
      <trkpt lat="45.77038" lon="4.49896">
        <ele>666.81</ele>
        <time>2013-01-19T11:41:46Z</time>
      </trkpt>
      <trkpt lat="45.7706" lon="4.49882">
        <ele>668.25</ele>
        <time>2013-01-19T11:42:01Z</time>
      </trkpt>
      <trkpt lat="45.77082" lon="4.49869">
        <ele>671.14</ele>
        <time>2013-01-19T11:42:15Z</time>
      </trkpt>
      <trkpt lat="45.77097" lon="4.4986">
        <ele>672.58</ele>
        <time>2013-01-19T11:42:27Z</time>
      </trkpt>
      <trkpt lat="45.7712" lon="4.49847">
        <ele>673.54</ele>
        <time>2013-01-19T11:42:39Z</time>
      </trkpt>
      <trkpt lat="45.77122" lon="4.49846">
        <ele>673.54</ele>
        <time>2013-01-19T11:42:40Z</time>
      </trkpt>
      <trkpt lat="45.77124" lon="4.49846">
        <ele>673.54</ele>
        <time>2013-01-19T11:42:41Z</time>
      </trkpt>
      <trkpt lat="45.77126" lon="4.49844">
        <ele>673.54</ele>
        <time>2013-01-19T11:42:42Z</time>
      </trkpt>
      <trkpt lat="45.7715" lon="4.49836">
        <ele>672.58</ele>
        <time>2013-01-19T11:42:53Z</time>
      </trkpt>
      <trkpt lat="45.7718" lon="4.49845">
        <ele>670.66</ele>
        <time>2013-01-19T11:43:05Z</time>
      </trkpt>
      <trkpt lat="45.77213" lon="4.49865">
        <ele>668.25</ele>
        <time>2013-01-19T11:43:19Z</time>
      </trkpt>
      <trkpt lat="45.77247" lon="4.49872">
        <ele>670.66</ele>
        <time>2013-01-19T11:43:33Z</time>
      </trkpt>
      <trkpt lat="45.77284" lon="4.49868">
        <ele>676.91</ele>
        <time>2013-01-19T11:43:49Z</time>
      </trkpt>
      <trkpt lat="45.77302" lon="4.49865">
        <ele>680.27</ele>
        <time>2013-01-19T11:43:58Z</time>
      </trkpt>
      <trkpt lat="45.77328" lon="4.49874">
        <ele>684.12</ele>
        <time>2013-01-19T11:44:16Z</time>
      </trkpt>
      <trkpt lat="45.77351" lon="4.49884">
        <ele>685.56</ele>
        <time>2013-01-19T11:44:32Z</time>
      </trkpt>
      <trkpt lat="45.7738" lon="4.49896">
        <ele>685.08</ele>
        <time>2013-01-19T11:44:50Z</time>
      </trkpt>
      <trkpt lat="45.774" lon="4.4991">
        <ele>684.6</ele>
        <time>2013-01-19T11:45:05Z</time>
      </trkpt>
      <trkpt lat="45.77426" lon="4.49919">
        <ele>686.04</ele>
        <time>2013-01-19T11:45:21Z</time>
      </trkpt>
      <trkpt lat="45.77454" lon="4.49935">
        <ele>688.44</ele>
        <time>2013-01-19T11:45:40Z</time>
      </trkpt>
      <trkpt lat="45.77478" lon="4.49943">
        <ele>690.36</ele>
        <time>2013-01-19T11:45:56Z</time>
      </trkpt>
      <trkpt lat="45.77512" lon="4.49938">
        <ele>691.33</ele>
        <time>2013-01-19T11:46:16Z</time>
      </trkpt>
      <trkpt lat="45.77539" lon="4.49936">
        <ele>691.81</ele>
        <time>2013-01-19T11:46:32Z</time>
      </trkpt>
      <trkpt lat="45.77553" lon="4.4992">
        <ele>692.77</ele>
        <time>2013-01-19T11:46:46Z</time>
      </trkpt>
      <trkpt lat="45.77553" lon="4.49884">
        <ele>694.21</ele>
        <time>2013-01-19T11:47:03Z</time>
      </trkpt>
      <trkpt lat="45.77553" lon="4.49846">
        <ele>699.98</ele>
        <time>2013-01-19T11:47:22Z</time>
      </trkpt>
      <trkpt lat="45.77561" lon="4.49805">
        <ele>706.23</ele>
        <time>2013-01-19T11:47:42Z</time>
      </trkpt>
      <trkpt lat="45.77561" lon="4.49772">
        <ele>711.03</ele>
        <time>2013-01-19T11:48:00Z</time>
      </trkpt>
      <trkpt lat="45.77563" lon="4.49739">
        <ele>715.84</ele>
        <time>2013-01-19T11:48:20Z</time>
      </trkpt>
      <trkpt lat="45.7756" lon="4.4971">
        <ele>723.05</ele>
        <time>2013-01-19T11:48:39Z</time>
      </trkpt>
      <trkpt lat="45.77555" lon="4.49678">
        <ele>730.74</ele>
        <time>2013-01-19T11:48:58Z</time>
      </trkpt>
      <trkpt lat="45.77556" lon="4.49662">
        <ele>734.58</ele>
        <time>2013-01-19T11:49:16Z</time>
      </trkpt>
      <trkpt lat="45.77546" lon="4.49637">
        <ele>742.28</ele>
        <time>2013-01-19T11:49:36Z</time>
      </trkpt>
      <trkpt lat="45.77541" lon="4.49608">
        <ele>747.56</ele>
        <time>2013-01-19T11:49:54Z</time>
      </trkpt>
      <trkpt lat="45.77534" lon="4.49569">
        <ele>751.41</ele>
        <time>2013-01-19T11:50:15Z</time>
      </trkpt>
      <trkpt lat="45.7753" lon="4.49538">
        <ele>754.29</ele>
        <time>2013-01-19T11:50:34Z</time>
      </trkpt>
      <trkpt lat="45.77522" lon="4.49501">
        <ele>754.29</ele>
        <time>2013-01-19T11:50:55Z</time>
      </trkpt>
      <trkpt lat="45.77509" lon="4.49447">
        <ele>752.85</ele>
        <time>2013-01-19T11:51:10Z</time>
      </trkpt>
      <trkpt lat="45.77498" lon="4.49378">
        <ele>754.29</ele>
        <time>2013-01-19T11:51:26Z</time>
      </trkpt>
      <trkpt lat="45.77498" lon="4.49318">
        <ele>750.93</ele>
        <time>2013-01-19T11:51:40Z</time>
      </trkpt>
      <trkpt lat="45.77501" lon="4.49259">
        <ele>748.04</ele>
        <time>2013-01-19T11:51:56Z</time>
      </trkpt>
      <trkpt lat="45.77501" lon="4.49195">
        <ele>746.6</ele>
        <time>2013-01-19T11:52:12Z</time>
      </trkpt>
      <trkpt lat="45.77504" lon="4.49133">
        <ele>742.76</ele>
        <time>2013-01-19T11:52:27Z</time>
      </trkpt>
      <trkpt lat="45.77502" lon="4.49082">
        <ele>740.35</ele>
        <time>2013-01-19T11:52:42Z</time>
      </trkpt>
      <trkpt lat="45.77504" lon="4.49029">
        <ele>739.87</ele>
        <time>2013-01-19T11:52:58Z</time>
      </trkpt>
      <trkpt lat="45.77511" lon="4.4896">
        <ele>738.91</ele>
        <time>2013-01-19T11:53:16Z</time>
      </trkpt>
      <trkpt lat="45.77524" lon="4.48896">
        <ele>737.47</ele>
        <time>2013-01-19T11:53:33Z</time>
      </trkpt>
      <trkpt lat="45.77525" lon="4.4889">
        <ele>737.47</ele>
        <time>2013-01-19T11:53:35Z</time>
      </trkpt>
      <trkpt lat="45.77528" lon="4.48841">
        <ele>735.07</ele>
        <time>2013-01-19T11:53:53Z</time>
      </trkpt>
      <trkpt lat="45.77539" lon="4.48798">
        <ele>735.07</ele>
        <time>2013-01-19T11:54:16Z</time>
      </trkpt>
      <trkpt lat="45.77546" lon="4.48787">
        <ele>736.03</ele>
        <time>2013-01-19T11:54:24Z</time>
      </trkpt>
      <trkpt lat="45.77557" lon="4.48771">
        <ele>741.79</ele>
        <time>2013-01-19T11:54:39Z</time>
      </trkpt>
      <trkpt lat="45.77575" lon="4.48754">
        <ele>746.6</ele>
        <time>2013-01-19T11:54:55Z</time>
      </trkpt>
      <trkpt lat="45.77581" lon="4.48744">
        <ele>747.56</ele>
        <time>2013-01-19T11:55:02Z</time>
      </trkpt>
      <trkpt lat="45.77582" lon="4.48741">
        <ele>748.04</ele>
        <time>2013-01-19T11:55:03Z</time>
      </trkpt>
      <trkpt lat="45.77593" lon="4.48729">
        <ele>750.45</ele>
        <time>2013-01-19T11:55:16Z</time>
      </trkpt>
      <trkpt lat="45.77612" lon="4.48694">
        <ele>749.49</ele>
        <time>2013-01-19T11:55:35Z</time>
      </trkpt>
      <trkpt lat="45.77613" lon="4.48692">
        <ele>748.52</ele>
        <time>2013-01-19T11:55:36Z</time>
      </trkpt>
      <trkpt lat="45.77613" lon="4.4869">
        <ele>748.04</ele>
        <time>2013-01-19T11:55:37Z</time>
      </trkpt>
      <trkpt lat="45.77618" lon="4.4868">
        <ele>748.52</ele>
        <time>2013-01-19T11:55:44Z</time>
      </trkpt>
      <trkpt lat="45.77619" lon="4.48676">
        <ele>748.04</ele>
        <time>2013-01-19T11:55:58Z</time>
      </trkpt>
      <trkpt lat="45.77618" lon="4.48675">
        <ele>746.12</ele>
        <time>2013-01-19T11:56:15Z</time>
      </trkpt>
      <trkpt lat="45.77621" lon="4.48673">
        <ele>745.16</ele>
        <time>2013-01-19T11:56:36Z</time>
      </trkpt>
      <trkpt lat="45.77625" lon="4.48662">
        <ele>748.04</ele>
        <time>2013-01-19T11:56:42Z</time>
      </trkpt>
      <trkpt lat="45.7763" lon="4.48657">
        <ele>749</ele>
        <time>2013-01-19T11:56:47Z</time>
      </trkpt>
      <trkpt lat="45.77635" lon="4.48653">
        <ele>749.97</ele>
        <time>2013-01-19T11:56:51Z</time>
      </trkpt>
      <trkpt lat="45.77647" lon="4.48638">
        <ele>746.6</ele>
        <time>2013-01-19T11:57:01Z</time>
      </trkpt>
      <trkpt lat="45.77649" lon="4.48635">
        <ele>745.64</ele>
        <time>2013-01-19T11:57:03Z</time>
      </trkpt>
      <trkpt lat="45.77653" lon="4.48626">
        <ele>743.24</ele>
        <time>2013-01-19T11:57:07Z</time>
      </trkpt>
      <trkpt lat="45.77666" lon="4.48613">
        <ele>739.39</ele>
        <time>2013-01-19T11:57:17Z</time>
      </trkpt>
      <trkpt lat="45.77669" lon="4.4861">
        <ele>738.91</ele>
        <time>2013-01-19T11:57:19Z</time>
      </trkpt>
      <trkpt lat="45.77672" lon="4.48607">
        <ele>739.39</ele>
        <time>2013-01-19T11:57:22Z</time>
      </trkpt>
      <trkpt lat="45.77687" lon="4.48593">
        <ele>740.83</ele>
        <time>2013-01-19T11:57:35Z</time>
      </trkpt>
      <trkpt lat="45.77719" lon="4.48567">
        <ele>740.35</ele>
        <time>2013-01-19T11:57:48Z</time>
      </trkpt>
      <trkpt lat="45.77751" lon="4.48536">
        <ele>738.43</ele>
        <time>2013-01-19T11:58:03Z</time>
      </trkpt>
      <trkpt lat="45.77788" lon="4.48501">
        <ele>739.39</ele>
        <time>2013-01-19T11:58:20Z</time>
      </trkpt>
      <trkpt lat="45.77823" lon="4.48469">
        <ele>740.83</ele>
        <time>2013-01-19T11:58:36Z</time>
      </trkpt>
      <trkpt lat="45.77852" lon="4.48435">
        <ele>743.72</ele>
        <time>2013-01-19T11:58:51Z</time>
      </trkpt>
      <trkpt lat="45.77879" lon="4.48399">
        <ele>747.08</ele>
        <time>2013-01-19T11:59:06Z</time>
      </trkpt>
      <trkpt lat="45.7791" lon="4.48361">
        <ele>747.56</ele>
        <time>2013-01-19T11:59:22Z</time>
      </trkpt>
      <trkpt lat="45.77937" lon="4.48306">
        <ele>746.12</ele>
        <time>2013-01-19T11:59:38Z</time>
      </trkpt>
      <trkpt lat="45.77954" lon="4.48237">
        <ele>744.2</ele>
        <time>2013-01-19T11:59:57Z</time>
      </trkpt>
      <trkpt lat="45.77977" lon="4.48179">
        <ele>739.39</ele>
        <time>2013-01-19T12:00:14Z</time>
      </trkpt>
      <trkpt lat="45.78005" lon="4.48139">
        <ele>734.1</ele>
        <time>2013-01-19T12:00:30Z</time>
      </trkpt>
      <trkpt lat="45.78024" lon="4.48093">
        <ele>725.93</ele>
        <time>2013-01-19T12:00:44Z</time>
      </trkpt>
      <trkpt lat="45.78034" lon="4.48042">
        <ele>719.68</ele>
        <time>2013-01-19T12:00:59Z</time>
      </trkpt>
      <trkpt lat="45.78042" lon="4.47987">
        <ele>710.55</ele>
        <time>2013-01-19T12:01:15Z</time>
      </trkpt>
      <trkpt lat="45.7807" lon="4.47948">
        <ele>705.26</ele>
        <time>2013-01-19T12:01:28Z</time>
      </trkpt>
      <trkpt lat="45.78103" lon="4.47902">
        <ele>702.86</ele>
        <time>2013-01-19T12:01:44Z</time>
      </trkpt>
      <trkpt lat="45.78131" lon="4.47859">
        <ele>699.98</ele>
        <time>2013-01-19T12:01:59Z</time>
      </trkpt>
      <trkpt lat="45.78163" lon="4.47821">
        <ele>698.53</ele>
        <time>2013-01-19T12:02:15Z</time>
      </trkpt>
      <trkpt lat="45.78197" lon="4.47783">
        <ele>696.13</ele>
        <time>2013-01-19T12:02:31Z</time>
      </trkpt>
      <trkpt lat="45.78221" lon="4.47741">
        <ele>692.77</ele>
        <time>2013-01-19T12:02:47Z</time>
      </trkpt>
      <trkpt lat="45.78246" lon="4.47688">
        <ele>689.4</ele>
        <time>2013-01-19T12:03:03Z</time>
      </trkpt>
      <trkpt lat="45.78259" lon="4.47655">
        <ele>691.81</ele>
        <time>2013-01-19T12:03:14Z</time>
      </trkpt>
      <trkpt lat="45.78283" lon="4.476">
        <ele>698.05</ele>
        <time>2013-01-19T12:03:32Z</time>
      </trkpt>
      <trkpt lat="45.78306" lon="4.47552">
        <ele>698.53</ele>
        <time>2013-01-19T12:03:47Z</time>
      </trkpt>
      <trkpt lat="45.78334" lon="4.47492">
        <ele>695.17</ele>
        <time>2013-01-19T12:04:04Z</time>
      </trkpt>
      <trkpt lat="45.78358" lon="4.47446">
        <ele>688.92</ele>
        <time>2013-01-19T12:04:19Z</time>
      </trkpt>
      <trkpt lat="45.78387" lon="4.47425">
        <ele>679.31</ele>
        <time>2013-01-19T12:04:33Z</time>
      </trkpt>
      <trkpt lat="45.78423" lon="4.47427">
        <ele>667.77</ele>
        <time>2013-01-19T12:04:47Z</time>
      </trkpt>
      <trkpt lat="45.78467" lon="4.47426">
        <ele>656.72</ele>
        <time>2013-01-19T12:05:04Z</time>
      </trkpt>
      <trkpt lat="45.78499" lon="4.47407">
        <ele>649.03</ele>
        <time>2013-01-19T12:05:16Z</time>
      </trkpt>
      <trkpt lat="45.78515" lon="4.47383">
        <ele>641.82</ele>
        <time>2013-01-19T12:05:27Z</time>
      </trkpt>
      <trkpt lat="45.78541" lon="4.47329">
        <ele>632.68</ele>
        <time>2013-01-19T12:05:42Z</time>
      </trkpt>
      <trkpt lat="45.78572" lon="4.47281">
        <ele>626.92</ele>
        <time>2013-01-19T12:05:56Z</time>
      </trkpt>
      <trkpt lat="45.78594" lon="4.47239">
        <ele>621.63</ele>
        <time>2013-01-19T12:06:09Z</time>
      </trkpt>
      <trkpt lat="45.78616" lon="4.47212">
        <ele>620.67</ele>
        <time>2013-01-19T12:06:23Z</time>
      </trkpt>
      <trkpt lat="45.78617" lon="4.47213">
        <ele>620.67</ele>
        <time>2013-01-19T12:06:24Z</time>
      </trkpt>
      <trkpt lat="45.78629" lon="4.47213">
        <ele>621.63</ele>
        <time>2013-01-19T12:06:31Z</time>
      </trkpt>
      <trkpt lat="45.7866" lon="4.47194">
        <ele>624.51</ele>
        <time>2013-01-19T12:06:46Z</time>
      </trkpt>
      <trkpt lat="45.78698" lon="4.47188">
        <ele>629.8</ele>
        <time>2013-01-19T12:07:01Z</time>
      </trkpt>
      <trkpt lat="45.78735" lon="4.47184">
        <ele>635.57</ele>
        <time>2013-01-19T12:07:16Z</time>
      </trkpt>
      <trkpt lat="45.78763" lon="4.47173">
        <ele>638.93</ele>
        <time>2013-01-19T12:07:31Z</time>
      </trkpt>
      <trkpt lat="45.78787" lon="4.47154">
        <ele>640.86</ele>
        <time>2013-01-19T12:07:46Z</time>
      </trkpt>
      <trkpt lat="45.7881" lon="4.47122">
        <ele>643.26</ele>
        <time>2013-01-19T12:08:03Z</time>
      </trkpt>
      <trkpt lat="45.78813" lon="4.47116">
        <ele>643.26</ele>
        <time>2013-01-19T12:08:06Z</time>
      </trkpt>
      <trkpt lat="45.78818" lon="4.47106">
        <ele>642.78</ele>
        <time>2013-01-19T12:08:11Z</time>
      </trkpt>
      <trkpt lat="45.78836" lon="4.47075">
        <ele>642.3</ele>
        <time>2013-01-19T12:08:27Z</time>
      </trkpt>
      <trkpt lat="45.7885" lon="4.47048">
        <ele>646.62</ele>
        <time>2013-01-19T12:08:42Z</time>
      </trkpt>
      <trkpt lat="45.78866" lon="4.47016">
        <ele>649.51</ele>
        <time>2013-01-19T12:09:00Z</time>
      </trkpt>
      <trkpt lat="45.78879" lon="4.46995">
        <ele>648.07</ele>
        <time>2013-01-19T12:09:18Z</time>
      </trkpt>
      <trkpt lat="45.78883" lon="4.46988">
        <ele>646.14</ele>
        <time>2013-01-19T12:09:33Z</time>
      </trkpt>
      <trkpt lat="45.78887" lon="4.46981">
        <ele>646.14</ele>
        <time>2013-01-19T12:09:50Z</time>
      </trkpt>
      <trkpt lat="45.78894" lon="4.46972">
        <ele>647.1</ele>
        <time>2013-01-19T12:10:04Z</time>
      </trkpt>
      <trkpt lat="45.78907" lon="4.46954">
        <ele>647.59</ele>
        <time>2013-01-19T12:10:15Z</time>
      </trkpt>
      <trkpt lat="45.78928" lon="4.46933">
        <ele>648.55</ele>
        <time>2013-01-19T12:10:31Z</time>
      </trkpt>
      <trkpt lat="45.78948" lon="4.46907">
        <ele>650.47</ele>
        <time>2013-01-19T12:10:47Z</time>
      </trkpt>
      <trkpt lat="45.78967" lon="4.46877">
        <ele>649.99</ele>
        <time>2013-01-19T12:11:04Z</time>
      </trkpt>
      <trkpt lat="45.78988" lon="4.46848">
        <ele>650.95</ele>
        <time>2013-01-19T12:11:23Z</time>
      </trkpt>
      <trkpt lat="45.78995" lon="4.46837">
        <ele>651.91</ele>
        <time>2013-01-19T12:11:39Z</time>
      </trkpt>
      <trkpt lat="45.79004" lon="4.46821">
        <ele>652.87</ele>
        <time>2013-01-19T12:11:53Z</time>
      </trkpt>
      <trkpt lat="45.79012" lon="4.46801">
        <ele>654.8</ele>
        <time>2013-01-19T12:12:05Z</time>
      </trkpt>
      <trkpt lat="45.79013" lon="4.46797">
        <ele>655.76</ele>
        <time>2013-01-19T12:12:18Z</time>
      </trkpt>
      <trkpt lat="45.79013" lon="4.46792">
        <ele>655.76</ele>
        <time>2013-01-19T12:12:33Z</time>
      </trkpt>
      <trkpt lat="45.79008" lon="4.4678">
        <ele>658.16</ele>
        <time>2013-01-19T12:12:41Z</time>
      </trkpt>
      <trkpt lat="45.79009" lon="4.46759">
        <ele>662.97</ele>
        <time>2013-01-19T12:12:54Z</time>
      </trkpt>
      <trkpt lat="45.79007" lon="4.46742">
        <ele>666.81</ele>
        <time>2013-01-19T12:13:05Z</time>
      </trkpt>
      <trkpt lat="45.79" lon="4.46724">
        <ele>672.1</ele>
        <time>2013-01-19T12:13:15Z</time>
      </trkpt>
      <trkpt lat="45.78995" lon="4.46705">
        <ele>674.02</ele>
        <time>2013-01-19T12:13:23Z</time>
      </trkpt>
      <trkpt lat="45.78992" lon="4.46691">
        <ele>674.02</ele>
        <time>2013-01-19T12:13:29Z</time>
      </trkpt>
      <trkpt lat="45.78994" lon="4.46676">
        <ele>674.98</ele>
        <time>2013-01-19T12:13:35Z</time>
      </trkpt>
      <trkpt lat="45.78995" lon="4.46667">
        <ele>675.94</ele>
        <time>2013-01-19T12:13:40Z</time>
      </trkpt>
      <trkpt lat="45.78998" lon="4.46659">
        <ele>679.31</ele>
        <time>2013-01-19T12:13:50Z</time>
      </trkpt>
      <trkpt lat="45.78999" lon="4.46652">
        <ele>683.63</ele>
        <time>2013-01-19T12:13:59Z</time>
      </trkpt>
      <trkpt lat="45.78992" lon="4.46669">
        <ele>702.86</ele>
        <time>2013-01-19T12:14:13Z</time>
      </trkpt>
      <trkpt lat="45.79005" lon="4.46665">
        <ele>724.01</ele>
        <time>2013-01-19T12:14:29Z</time>
      </trkpt>
      <trkpt lat="45.79007" lon="4.46669">
        <ele>727.86</ele>
        <time>2013-01-19T12:14:32Z</time>
      </trkpt>
      <trkpt lat="45.79028" lon="4.46667">
        <ele>730.26</ele>
        <time>2013-01-19T12:14:44Z</time>
      </trkpt>
      <trkpt lat="45.79032" lon="4.46696">
        <ele>723.53</ele>
        <time>2013-01-19T12:15:01Z</time>
      </trkpt>
      <trkpt lat="45.79042" lon="4.46699">
        <ele>711.99</ele>
        <time>2013-01-19T12:15:13Z</time>
      </trkpt>
      <trkpt lat="45.79041" lon="4.46697">
        <ele>708.63</ele>
        <time>2013-01-19T12:15:28Z</time>
      </trkpt>
      <trkpt lat="45.79043" lon="4.46698">
        <ele>706.71</ele>
        <time>2013-01-19T12:15:39Z</time>
      </trkpt>
      <trkpt lat="45.79051" lon="4.46703">
        <ele>703.82</ele>
        <time>2013-01-19T12:15:47Z</time>
      </trkpt>
      <trkpt lat="45.79058" lon="4.46705">
        <ele>705.75</ele>
        <time>2013-01-19T12:15:57Z</time>
      </trkpt>
      <trkpt lat="45.79067" lon="4.46712">
        <ele>700.46</ele>
        <time>2013-01-19T12:16:11Z</time>
      </trkpt>
      <trkpt lat="45.7907" lon="4.46712">
        <ele>699.5</ele>
        <time>2013-01-19T12:16:15Z</time>
      </trkpt>
      <trkpt lat="45.79073" lon="4.46713">
        <ele>699.02</ele>
        <time>2013-01-19T12:16:17Z</time>
      </trkpt>
      <trkpt lat="45.79085" lon="4.46715">
        <ele>699.02</ele>
        <time>2013-01-19T12:16:27Z</time>
      </trkpt>
      <trkpt lat="45.79088" lon="4.46715">
        <ele>699.98</ele>
        <time>2013-01-19T12:16:30Z</time>
      </trkpt>
      <trkpt lat="45.79101" lon="4.46733">
        <ele>694.21</ele>
        <time>2013-01-19T12:16:37Z</time>
      </trkpt>
      <trkpt lat="45.79111" lon="4.4672">
        <ele>685.56</ele>
        <time>2013-01-19T12:16:43Z</time>
      </trkpt>
      <trkpt lat="45.79123" lon="4.46704">
        <ele>678.83</ele>
        <time>2013-01-19T12:16:54Z</time>
      </trkpt>
      <trkpt lat="45.79129" lon="4.46695">
        <ele>675.94</ele>
        <time>2013-01-19T12:17:08Z</time>
      </trkpt>
      <trkpt lat="45.79144" lon="4.4668">
        <ele>672.58</ele>
        <time>2013-01-19T12:17:24Z</time>
      </trkpt>
      <trkpt lat="45.79145" lon="4.46679">
        <ele>672.1</ele>
        <time>2013-01-19T12:17:26Z</time>
      </trkpt>
      <trkpt lat="45.79164" lon="4.46674">
        <ele>667.77</ele>
        <time>2013-01-19T12:17:44Z</time>
      </trkpt>
      <trkpt lat="45.79172" lon="4.4667">
        <ele>667.29</ele>
        <time>2013-01-19T12:17:50Z</time>
      </trkpt>
      <trkpt lat="45.79183" lon="4.46668">
        <ele>667.77</ele>
        <time>2013-01-19T12:17:58Z</time>
      </trkpt>
      <trkpt lat="45.79212" lon="4.46658">
        <ele>667.77</ele>
        <time>2013-01-19T12:18:10Z</time>
      </trkpt>
      <trkpt lat="45.79242" lon="4.46647">
        <ele>666.81</ele>
        <time>2013-01-19T12:18:22Z</time>
      </trkpt>
      <trkpt lat="45.79248" lon="4.46645">
        <ele>666.81</ele>
        <time>2013-01-19T12:18:25Z</time>
      </trkpt>
      <trkpt lat="45.79245" lon="4.46597">
        <ele>664.89</ele>
        <time>2013-01-19T12:18:38Z</time>
      </trkpt>
      <trkpt lat="45.79241" lon="4.46578">
        <ele>664.41</ele>
        <time>2013-01-19T12:18:47Z</time>
      </trkpt>
      <trkpt lat="45.79247" lon="4.46572">
        <ele>664.41</ele>
        <time>2013-01-19T12:18:51Z</time>
      </trkpt>
      <trkpt lat="45.79277" lon="4.46539">
        <ele>663.93</ele>
        <time>2013-01-19T12:19:06Z</time>
      </trkpt>
      <trkpt lat="45.79282" lon="4.46528">
        <ele>662.97</ele>
        <time>2013-01-19T12:19:19Z</time>
      </trkpt>
      <trkpt lat="45.79289" lon="4.46524">
        <ele>662.49</ele>
        <time>2013-01-19T12:19:35Z</time>
      </trkpt>
      <trkpt lat="45.79307" lon="4.46514">
        <ele>661.52</ele>
        <time>2013-01-19T12:19:48Z</time>
      </trkpt>
      <trkpt lat="45.79335" lon="4.46486">
        <ele>662.49</ele>
        <time>2013-01-19T12:20:01Z</time>
      </trkpt>
      <trkpt lat="45.7937" lon="4.46447">
        <ele>664.89</ele>
        <time>2013-01-19T12:20:16Z</time>
      </trkpt>
      <trkpt lat="45.79398" lon="4.4641">
        <ele>666.81</ele>
        <time>2013-01-19T12:20:30Z</time>
      </trkpt>
      <trkpt lat="45.79425" lon="4.46357">
        <ele>666.33</ele>
        <time>2013-01-19T12:20:47Z</time>
      </trkpt>
      <trkpt lat="45.79448" lon="4.4632">
        <ele>666.33</ele>
        <time>2013-01-19T12:21:02Z</time>
      </trkpt>
      <trkpt lat="45.79451" lon="4.4632">
        <ele>665.85</ele>
        <time>2013-01-19T12:21:04Z</time>
      </trkpt>
      <trkpt lat="45.79461" lon="4.46331">
        <ele>664.89</ele>
        <time>2013-01-19T12:21:09Z</time>
      </trkpt>
      <trkpt lat="45.79474" lon="4.4635">
        <ele>664.41</ele>
        <time>2013-01-19T12:21:23Z</time>
      </trkpt>
      <trkpt lat="45.79474" lon="4.46351">
        <ele>664.41</ele>
        <time>2013-01-19T12:21:42Z</time>
      </trkpt>
      <trkpt lat="45.79502" lon="4.46384">
        <ele>664.41</ele>
        <time>2013-01-19T12:21:57Z</time>
      </trkpt>
      <trkpt lat="45.79539" lon="4.4642">
        <ele>664.89</ele>
        <time>2013-01-19T12:22:14Z</time>
      </trkpt>
      <trkpt lat="45.79579" lon="4.46434">
        <ele>664.89</ele>
        <time>2013-01-19T12:22:31Z</time>
      </trkpt>
      <trkpt lat="45.79617" lon="4.46443">
        <ele>665.37</ele>
        <time>2013-01-19T12:22:47Z</time>
      </trkpt>
      <trkpt lat="45.79653" lon="4.4642">
        <ele>662.97</ele>
        <time>2013-01-19T12:23:01Z</time>
      </trkpt>
      <trkpt lat="45.79667" lon="4.46412">
        <ele>660.56</ele>
        <time>2013-01-19T12:23:06Z</time>
      </trkpt>
      <trkpt lat="45.79693" lon="4.4639">
        <ele>658.64</ele>
        <time>2013-01-19T12:23:17Z</time>
      </trkpt>
      <trkpt lat="45.79723" lon="4.4637">
        <ele>658.64</ele>
        <time>2013-01-19T12:23:29Z</time>
      </trkpt>
      <trkpt lat="45.79747" lon="4.46345">
        <ele>657.68</ele>
        <time>2013-01-19T12:23:40Z</time>
      </trkpt>
      <trkpt lat="45.79767" lon="4.46316">
        <ele>657.68</ele>
        <time>2013-01-19T12:23:51Z</time>
      </trkpt>
      <trkpt lat="45.79794" lon="4.46296">
        <ele>656.24</ele>
        <time>2013-01-19T12:24:02Z</time>
      </trkpt>
      <trkpt lat="45.79816" lon="4.46283">
        <ele>651.91</ele>
        <time>2013-01-19T12:24:13Z</time>
      </trkpt>
      <trkpt lat="45.79832" lon="4.46287">
        <ele>650.95</ele>
        <time>2013-01-19T12:24:19Z</time>
      </trkpt>
      <trkpt lat="45.79841" lon="4.46296">
        <ele>650.95</ele>
        <time>2013-01-19T12:24:23Z</time>
      </trkpt>
      <trkpt lat="45.79859" lon="4.46327">
        <ele>651.43</ele>
        <time>2013-01-19T12:24:35Z</time>
      </trkpt>
      <trkpt lat="45.79865" lon="4.46336">
        <ele>651.43</ele>
        <time>2013-01-19T12:24:38Z</time>
      </trkpt>
      <trkpt lat="45.79878" lon="4.46354">
        <ele>652.39</ele>
        <time>2013-01-19T12:24:45Z</time>
      </trkpt>
      <trkpt lat="45.79904" lon="4.46391">
        <ele>652.87</ele>
        <time>2013-01-19T12:24:59Z</time>
      </trkpt>
      <trkpt lat="45.7992" lon="4.46423">
        <ele>653.83</ele>
        <time>2013-01-19T12:25:10Z</time>
      </trkpt>
      <trkpt lat="45.79935" lon="4.46462">
        <ele>655.28</ele>
        <time>2013-01-19T12:25:22Z</time>
      </trkpt>
      <trkpt lat="45.79947" lon="4.465">
        <ele>655.76</ele>
        <time>2013-01-19T12:25:33Z</time>
      </trkpt>
      <trkpt lat="45.79956" lon="4.46545">
        <ele>653.83</ele>
        <time>2013-01-19T12:25:45Z</time>
      </trkpt>
      <trkpt lat="45.79969" lon="4.46582">
        <ele>651.43</ele>
        <time>2013-01-19T12:25:55Z</time>
      </trkpt>
      <trkpt lat="45.79987" lon="4.46613">
        <ele>653.35</ele>
        <time>2013-01-19T12:26:06Z</time>
      </trkpt>
      <trkpt lat="45.80018" lon="4.46638">
        <ele>657.2</ele>
        <time>2013-01-19T12:26:20Z</time>
      </trkpt>
      <trkpt lat="45.80045" lon="4.46646">
        <ele>658.64</ele>
        <time>2013-01-19T12:26:32Z</time>
      </trkpt>
      <trkpt lat="45.8007" lon="4.46637">
        <ele>654.8</ele>
        <time>2013-01-19T12:26:42Z</time>
      </trkpt>
      <trkpt lat="45.80098" lon="4.4662">
        <ele>650.47</ele>
        <time>2013-01-19T12:26:52Z</time>
      </trkpt>
      <trkpt lat="45.80124" lon="4.46632">
        <ele>644.7</ele>
        <time>2013-01-19T12:27:01Z</time>
      </trkpt>
      <trkpt lat="45.80153" lon="4.46669">
        <ele>641.82</ele>
        <time>2013-01-19T12:27:15Z</time>
      </trkpt>
      <trkpt lat="45.80171" lon="4.46709">
        <ele>640.38</ele>
        <time>2013-01-19T12:27:28Z</time>
      </trkpt>
      <trkpt lat="45.80184" lon="4.46747">
        <ele>640.86</ele>
        <time>2013-01-19T12:27:39Z</time>
      </trkpt>
      <trkpt lat="45.80196" lon="4.46774">
        <ele>643.74</ele>
        <time>2013-01-19T12:27:49Z</time>
      </trkpt>
      <trkpt lat="45.8021" lon="4.46799">
        <ele>648.07</ele>
        <time>2013-01-19T12:28:01Z</time>
      </trkpt>
      <trkpt lat="45.80214" lon="4.46802">
        <ele>648.55</ele>
        <time>2013-01-19T12:28:03Z</time>
      </trkpt>
      <trkpt lat="45.8023" lon="4.46825">
        <ele>649.51</ele>
        <time>2013-01-19T12:28:15Z</time>
      </trkpt>
      <trkpt lat="45.80236" lon="4.46835">
        <ele>649.51</ele>
        <time>2013-01-19T12:28:19Z</time>
      </trkpt>
      <trkpt lat="45.80242" lon="4.46845">
        <ele>650.47</ele>
        <time>2013-01-19T12:28:31Z</time>
      </trkpt>
      <trkpt lat="45.8025" lon="4.46863">
        <ele>652.39</ele>
        <time>2013-01-19T12:28:43Z</time>
      </trkpt>
      <trkpt lat="45.80253" lon="4.46866">
        <ele>652.39</ele>
        <time>2013-01-19T12:28:55Z</time>
      </trkpt>
      <trkpt lat="45.80256" lon="4.46872">
        <ele>652.39</ele>
        <time>2013-01-19T12:29:11Z</time>
      </trkpt>
      <trkpt lat="45.80261" lon="4.46879">
        <ele>652.87</ele>
        <time>2013-01-19T12:29:16Z</time>
      </trkpt>
      <trkpt lat="45.80263" lon="4.46895">
        <ele>653.83</ele>
        <time>2013-01-19T12:29:25Z</time>
      </trkpt>
      <trkpt lat="45.80261" lon="4.46901">
        <ele>655.76</ele>
        <time>2013-01-19T12:29:31Z</time>
      </trkpt>
      <trkpt lat="45.80258" lon="4.46911">
        <ele>657.68</ele>
        <time>2013-01-19T12:29:38Z</time>
      </trkpt>
      <trkpt lat="45.80257" lon="4.46921">
        <ele>658.16</ele>
        <time>2013-01-19T12:29:53Z</time>
      </trkpt>
      <trkpt lat="45.80255" lon="4.46942">
        <ele>661.52</ele>
        <time>2013-01-19T12:30:05Z</time>
      </trkpt>
      <trkpt lat="45.80256" lon="4.46952">
        <ele>663.45</ele>
        <time>2013-01-19T12:30:10Z</time>
      </trkpt>
      <trkpt lat="45.80262" lon="4.46969">
        <ele>667.29</ele>
        <time>2013-01-19T12:30:20Z</time>
      </trkpt>
      <trkpt lat="45.80264" lon="4.46981">
        <ele>669.7</ele>
        <time>2013-01-19T12:30:27Z</time>
      </trkpt>
      <trkpt lat="45.80263" lon="4.46985">
        <ele>670.66</ele>
        <time>2013-01-19T12:30:29Z</time>
      </trkpt>
      <trkpt lat="45.80257" lon="4.47012">
        <ele>674.98</ele>
        <time>2013-01-19T12:30:40Z</time>
      </trkpt>
      <trkpt lat="45.80257" lon="4.47015">
        <ele>675.46</ele>
        <time>2013-01-19T12:30:41Z</time>
      </trkpt>
      <trkpt lat="45.8026" lon="4.4703">
        <ele>675.46</ele>
        <time>2013-01-19T12:30:45Z</time>
      </trkpt>
      <trkpt lat="45.8028" lon="4.47071">
        <ele>679.31</ele>
        <time>2013-01-19T12:30:59Z</time>
      </trkpt>
      <trkpt lat="45.80301" lon="4.4709">
        <ele>682.67</ele>
        <time>2013-01-19T12:31:10Z</time>
      </trkpt>
      <trkpt lat="45.80316" lon="4.47105">
        <ele>684.12</ele>
        <time>2013-01-19T12:31:18Z</time>
      </trkpt>
      <trkpt lat="45.8033" lon="4.47124">
        <ele>687.96</ele>
        <time>2013-01-19T12:31:32Z</time>
      </trkpt>
      <trkpt lat="45.80345" lon="4.47131">
        <ele>689.4</ele>
        <time>2013-01-19T12:31:38Z</time>
      </trkpt>
      <trkpt lat="45.80371" lon="4.47153">
        <ele>688.92</ele>
        <time>2013-01-19T12:31:49Z</time>
      </trkpt>
      <trkpt lat="45.8038" lon="4.47154">
        <ele>689.4</ele>
        <time>2013-01-19T12:31:52Z</time>
      </trkpt>
      <trkpt lat="45.80407" lon="4.47171">
        <ele>686.52</ele>
        <time>2013-01-19T12:32:05Z</time>
      </trkpt>
      <trkpt lat="45.80431" lon="4.47192">
        <ele>683.63</ele>
        <time>2013-01-19T12:32:16Z</time>
      </trkpt>
      <trkpt lat="45.80443" lon="4.47211">
        <ele>681.23</ele>
        <time>2013-01-19T12:32:27Z</time>
      </trkpt>
      <trkpt lat="45.80448" lon="4.47218">
        <ele>680.27</ele>
        <time>2013-01-19T12:32:39Z</time>
      </trkpt>
      <trkpt lat="45.80457" lon="4.47231">
        <ele>680.75</ele>
        <time>2013-01-19T12:32:49Z</time>
      </trkpt>
      <trkpt lat="45.80464" lon="4.47241">
        <ele>680.27</ele>
        <time>2013-01-19T12:32:55Z</time>
      </trkpt>
      <trkpt lat="45.80479" lon="4.47279">
        <ele>685.08</ele>
        <time>2013-01-19T12:33:08Z</time>
      </trkpt>
      <trkpt lat="45.80492" lon="4.47323">
        <ele>689.88</ele>
        <time>2013-01-19T12:33:22Z</time>
      </trkpt>
      <trkpt lat="45.80504" lon="4.47332">
        <ele>691.81</ele>
        <time>2013-01-19T12:33:32Z</time>
      </trkpt>
      <trkpt lat="45.80505" lon="4.47331">
        <ele>692.29</ele>
        <time>2013-01-19T12:33:34Z</time>
      </trkpt>
      <trkpt lat="45.8053" lon="4.47333">
        <ele>692.77</ele>
        <time>2013-01-19T12:33:47Z</time>
      </trkpt>
      <trkpt lat="45.80533" lon="4.47333">
        <ele>692.29</ele>
        <time>2013-01-19T12:33:57Z</time>
      </trkpt>
      <trkpt lat="45.80535" lon="4.47332">
        <ele>691.33</ele>
        <time>2013-01-19T12:34:04Z</time>
      </trkpt>
      <trkpt lat="45.80556" lon="4.47323">
        <ele>688.92</ele>
        <time>2013-01-19T12:34:18Z</time>
      </trkpt>
      <trkpt lat="45.80591" lon="4.47307">
        <ele>689.88</ele>
        <time>2013-01-19T12:34:33Z</time>
      </trkpt>
      <trkpt lat="45.80631" lon="4.47291">
        <ele>690.36</ele>
        <time>2013-01-19T12:34:50Z</time>
      </trkpt>
      <trkpt lat="45.8068" lon="4.47267">
        <ele>691.81</ele>
        <time>2013-01-19T12:35:10Z</time>
      </trkpt>
      <trkpt lat="45.80719" lon="4.47273">
        <ele>693.25</ele>
        <time>2013-01-19T12:35:25Z</time>
      </trkpt>
      <trkpt lat="45.80751" lon="4.47268">
        <ele>693.25</ele>
        <time>2013-01-19T12:35:41Z</time>
      </trkpt>
      <trkpt lat="45.80782" lon="4.47246">
        <ele>692.77</ele>
        <time>2013-01-19T12:35:55Z</time>
      </trkpt>
      <trkpt lat="45.80825" lon="4.4722">
        <ele>689.4</ele>
        <time>2013-01-19T12:36:11Z</time>
      </trkpt>
      <trkpt lat="45.80866" lon="4.47214">
        <ele>687</ele>
        <time>2013-01-19T12:36:26Z</time>
      </trkpt>
      <trkpt lat="45.80878" lon="4.47217">
        <ele>685.08</ele>
        <time>2013-01-19T12:36:38Z</time>
      </trkpt>
      <trkpt lat="45.8091" lon="4.47241">
        <ele>684.6</ele>
        <time>2013-01-19T12:36:52Z</time>
      </trkpt>
      <trkpt lat="45.80918" lon="4.47253">
        <ele>685.56</ele>
        <time>2013-01-19T12:37:03Z</time>
      </trkpt>
      <trkpt lat="45.80918" lon="4.47252">
        <ele>685.56</ele>
        <time>2013-01-19T12:37:37Z</time>
      </trkpt>
      <trkpt lat="45.80918" lon="4.47252">
        <ele>686.04</ele>
        <time>2013-01-19T12:38:12Z</time>
      </trkpt>
      <trkpt lat="45.80918" lon="4.47252">
        <ele>686.04</ele>
        <time>2013-01-19T12:38:43Z</time>
      </trkpt>
      <trkpt lat="45.80918" lon="4.47252">
        <ele>686.04</ele>
        <time>2013-01-19T12:39:06Z</time>
      </trkpt>
      <trkpt lat="45.80921" lon="4.47248">
        <ele>686.04</ele>
        <time>2013-01-19T12:39:10Z</time>
      </trkpt>
      <trkpt lat="45.80927" lon="4.47259">
        <ele>686.52</ele>
        <time>2013-01-19T12:39:23Z</time>
      </trkpt>
      <trkpt lat="45.8093" lon="4.47267">
        <ele>686.52</ele>
        <time>2013-01-19T12:39:35Z</time>
      </trkpt>
      <trkpt lat="45.8093" lon="4.47266">
        <ele>686.52</ele>
        <time>2013-01-19T12:39:54Z</time>
      </trkpt>
      <trkpt lat="45.80939" lon="4.47282">
        <ele>687</ele>
        <time>2013-01-19T12:40:17Z</time>
      </trkpt>
      <trkpt lat="45.80957" lon="4.47312">
        <ele>690.84</ele>
        <time>2013-01-19T12:40:34Z</time>
      </trkpt>
      <trkpt lat="45.80968" lon="4.4734">
        <ele>693.25</ele>
        <time>2013-01-19T12:40:50Z</time>
      </trkpt>
      <trkpt lat="45.80969" lon="4.47348">
        <ele>694.69</ele>
        <time>2013-01-19T12:41:02Z</time>
      </trkpt>
      <trkpt lat="45.80974" lon="4.47378">
        <ele>695.65</ele>
        <time>2013-01-19T12:41:18Z</time>
      </trkpt>
      <trkpt lat="45.80986" lon="4.47414">
        <ele>700.94</ele>
        <time>2013-01-19T12:41:35Z</time>
      </trkpt>
      <trkpt lat="45.80993" lon="4.47423">
        <ele>702.38</ele>
        <time>2013-01-19T12:41:44Z</time>
      </trkpt>
      <trkpt lat="45.80996" lon="4.47428">
        <ele>702.86</ele>
        <time>2013-01-19T12:41:48Z</time>
      </trkpt>
      <trkpt lat="45.81016" lon="4.47458">
        <ele>707.19</ele>
        <time>2013-01-19T12:42:07Z</time>
      </trkpt>
      <trkpt lat="45.81018" lon="4.47462">
        <ele>707.67</ele>
        <time>2013-01-19T12:42:09Z</time>
      </trkpt>
      <trkpt lat="45.81025" lon="4.47466">
        <ele>710.55</ele>
        <time>2013-01-19T12:42:17Z</time>
      </trkpt>
      <trkpt lat="45.81038" lon="4.47483">
        <ele>714.88</ele>
        <time>2013-01-19T12:42:36Z</time>
      </trkpt>
      <trkpt lat="45.81048" lon="4.4749">
        <ele>718.72</ele>
        <time>2013-01-19T12:42:51Z</time>
      </trkpt>
      <trkpt lat="45.81061" lon="4.47501">
        <ele>723.05</ele>
        <time>2013-01-19T12:43:06Z</time>
      </trkpt>
      <trkpt lat="45.81074" lon="4.47507">
        <ele>726.41</ele>
        <time>2013-01-19T12:43:22Z</time>
      </trkpt>
      <trkpt lat="45.8108" lon="4.47508">
        <ele>727.86</ele>
        <time>2013-01-19T12:43:28Z</time>
      </trkpt>
      <trkpt lat="45.81097" lon="4.4751">
        <ele>732.66</ele>
        <time>2013-01-19T12:43:45Z</time>
      </trkpt>
      <trkpt lat="45.81105" lon="4.47511">
        <ele>736.03</ele>
        <time>2013-01-19T12:44:00Z</time>
      </trkpt>
      <trkpt lat="45.81122" lon="4.4751">
        <ele>737.47</ele>
        <time>2013-01-19T12:44:17Z</time>
      </trkpt>
      <trkpt lat="45.81143" lon="4.47514">
        <ele>741.79</ele>
        <time>2013-01-19T12:44:33Z</time>
      </trkpt>
      <trkpt lat="45.81161" lon="4.4752">
        <ele>745.16</ele>
        <time>2013-01-19T12:44:51Z</time>
      </trkpt>
      <trkpt lat="45.81179" lon="4.47516">
        <ele>747.56</ele>
        <time>2013-01-19T12:45:07Z</time>
      </trkpt>
      <trkpt lat="45.81201" lon="4.47509">
        <ele>750.45</ele>
        <time>2013-01-19T12:45:24Z</time>
      </trkpt>
      <trkpt lat="45.81208" lon="4.47507">
        <ele>751.89</ele>
        <time>2013-01-19T12:45:30Z</time>
      </trkpt>
      <trkpt lat="45.81225" lon="4.47502">
        <ele>759.1</ele>
        <time>2013-01-19T12:45:46Z</time>
      </trkpt>
      <trkpt lat="45.81245" lon="4.47491">
        <ele>761.5</ele>
        <time>2013-01-19T12:46:02Z</time>
      </trkpt>
      <trkpt lat="45.81261" lon="4.47474">
        <ele>763.9</ele>
        <time>2013-01-19T12:46:17Z</time>
      </trkpt>
      <trkpt lat="45.81264" lon="4.47472">
        <ele>763.9</ele>
        <time>2013-01-19T12:46:19Z</time>
      </trkpt>
      <trkpt lat="45.81284" lon="4.47448">
        <ele>767.75</ele>
        <time>2013-01-19T12:46:38Z</time>
      </trkpt>
      <trkpt lat="45.81305" lon="4.4743">
        <ele>771.11</ele>
        <time>2013-01-19T12:46:54Z</time>
      </trkpt>
      <trkpt lat="45.81322" lon="4.47416">
        <ele>771.11</ele>
        <time>2013-01-19T12:47:09Z</time>
      </trkpt>
      <trkpt lat="45.8134" lon="4.47405">
        <ele>772.08</ele>
        <time>2013-01-19T12:47:25Z</time>
      </trkpt>
      <trkpt lat="45.81361" lon="4.47395">
        <ele>774.48</ele>
        <time>2013-01-19T12:47:41Z</time>
      </trkpt>
      <trkpt lat="45.81386" lon="4.47386">
        <ele>776.88</ele>
        <time>2013-01-19T12:47:58Z</time>
      </trkpt>
      <trkpt lat="45.81393" lon="4.47378">
        <ele>777.84</ele>
        <time>2013-01-19T12:48:08Z</time>
      </trkpt>
      <trkpt lat="45.81397" lon="4.47376">
        <ele>777.36</ele>
        <time>2013-01-19T12:48:31Z</time>
      </trkpt>
      <trkpt lat="45.81402" lon="4.47368">
        <ele>780.25</ele>
        <time>2013-01-19T12:48:42Z</time>
      </trkpt>
      <trkpt lat="45.81405" lon="4.47367">
        <ele>780.73</ele>
        <time>2013-01-19T12:48:47Z</time>
      </trkpt>
      <trkpt lat="45.81424" lon="4.47367">
        <ele>783.13</ele>
        <time>2013-01-19T12:49:00Z</time>
      </trkpt>
      <trkpt lat="45.81448" lon="4.47363">
        <ele>782.65</ele>
        <time>2013-01-19T12:49:16Z</time>
      </trkpt>
      <trkpt lat="45.81459" lon="4.47364">
        <ele>783.13</ele>
        <time>2013-01-19T12:49:24Z</time>
      </trkpt>
      <trkpt lat="45.81483" lon="4.47365">
        <ele>783.13</ele>
        <time>2013-01-19T12:49:38Z</time>
      </trkpt>
      <trkpt lat="45.81519" lon="4.47353">
        <ele>784.09</ele>
        <time>2013-01-19T12:49:54Z</time>
      </trkpt>
      <trkpt lat="45.81557" lon="4.47348">
        <ele>784.09</ele>
        <time>2013-01-19T12:50:11Z</time>
      </trkpt>
      <trkpt lat="45.81584" lon="4.47354">
        <ele>788.42</ele>
        <time>2013-01-19T12:50:29Z</time>
      </trkpt>
      <trkpt lat="45.81606" lon="4.4736">
        <ele>793.22</ele>
        <time>2013-01-19T12:50:46Z</time>
      </trkpt>
      <trkpt lat="45.81621" lon="4.47368">
        <ele>795.63</ele>
        <time>2013-01-19T12:50:57Z</time>
      </trkpt>
      <trkpt lat="45.81654" lon="4.47387">
        <ele>801.88</ele>
        <time>2013-01-19T12:51:14Z</time>
      </trkpt>
      <trkpt lat="45.81673" lon="4.47412">
        <ele>805.24</ele>
        <time>2013-01-19T12:51:29Z</time>
      </trkpt>
      <trkpt lat="45.81707" lon="4.47445">
        <ele>799.95</ele>
        <time>2013-01-19T12:51:44Z</time>
      </trkpt>
      <trkpt lat="45.81734" lon="4.4748">
        <ele>792.74</ele>
        <time>2013-01-19T12:51:58Z</time>
      </trkpt>
      <trkpt lat="45.81757" lon="4.47509">
        <ele>786.02</ele>
        <time>2013-01-19T12:52:10Z</time>
      </trkpt>
      <trkpt lat="45.81782" lon="4.47545">
        <ele>782.17</ele>
        <time>2013-01-19T12:52:25Z</time>
      </trkpt>
      <trkpt lat="45.81803" lon="4.47582">
        <ele>779.29</ele>
        <time>2013-01-19T12:52:39Z</time>
      </trkpt>
      <trkpt lat="45.81826" lon="4.47621">
        <ele>776.4</ele>
        <time>2013-01-19T12:52:53Z</time>
      </trkpt>
      <trkpt lat="45.81847" lon="4.47661">
        <ele>776.4</ele>
        <time>2013-01-19T12:53:07Z</time>
      </trkpt>
      <trkpt lat="45.81877" lon="4.47699">
        <ele>776.4</ele>
        <time>2013-01-19T12:53:23Z</time>
      </trkpt>
      <trkpt lat="45.81903" lon="4.47732">
        <ele>773.04</ele>
        <time>2013-01-19T12:53:37Z</time>
      </trkpt>
      <trkpt lat="45.81933" lon="4.47768">
        <ele>769.67</ele>
        <time>2013-01-19T12:53:53Z</time>
      </trkpt>
      <trkpt lat="45.81964" lon="4.47801">
        <ele>765.35</ele>
        <time>2013-01-19T12:54:08Z</time>
      </trkpt>
      <trkpt lat="45.81996" lon="4.47852">
        <ele>761.98</ele>
        <time>2013-01-19T12:54:25Z</time>
      </trkpt>
      <trkpt lat="45.82012" lon="4.47913">
        <ele>761.02</ele>
        <time>2013-01-19T12:54:42Z</time>
      </trkpt>
      <trkpt lat="45.82019" lon="4.4796">
        <ele>761.98</ele>
        <time>2013-01-19T12:54:55Z</time>
      </trkpt>
      <trkpt lat="45.82027" lon="4.48013">
        <ele>762.46</ele>
        <time>2013-01-19T12:55:11Z</time>
      </trkpt>
      <trkpt lat="45.82035" lon="4.48064">
        <ele>763.9</ele>
        <time>2013-01-19T12:55:26Z</time>
      </trkpt>
      <trkpt lat="45.82041" lon="4.48091">
        <ele>765.83</ele>
        <time>2013-01-19T12:55:40Z</time>
      </trkpt>
      <trkpt lat="45.82042" lon="4.48109">
        <ele>765.35</ele>
        <time>2013-01-19T12:55:53Z</time>
      </trkpt>
      <trkpt lat="45.82042" lon="4.48116">
        <ele>764.87</ele>
        <time>2013-01-19T12:55:57Z</time>
      </trkpt>
      <trkpt lat="45.82043" lon="4.48137">
        <ele>766.31</ele>
        <time>2013-01-19T12:56:08Z</time>
      </trkpt>
      <trkpt lat="45.82044" lon="4.48143">
        <ele>768.23</ele>
        <time>2013-01-19T12:56:12Z</time>
      </trkpt>
      <trkpt lat="45.82048" lon="4.48168">
        <ele>771.6</ele>
        <time>2013-01-19T12:56:26Z</time>
      </trkpt>
      <trkpt lat="45.8205" lon="4.48192">
        <ele>770.63</ele>
        <time>2013-01-19T12:56:39Z</time>
      </trkpt>
      <trkpt lat="45.82059" lon="4.48218">
        <ele>768.71</ele>
        <time>2013-01-19T12:56:53Z</time>
      </trkpt>
      <trkpt lat="45.82075" lon="4.4825">
        <ele>767.27</ele>
        <time>2013-01-19T12:57:12Z</time>
      </trkpt>
      <trkpt lat="45.82092" lon="4.48287">
        <ele>768.71</ele>
        <time>2013-01-19T12:57:34Z</time>
      </trkpt>
      <trkpt lat="45.82096" lon="4.48299">
        <ele>769.67</ele>
        <time>2013-01-19T12:57:41Z</time>
      </trkpt>
      <trkpt lat="45.82099" lon="4.48308">
        <ele>769.67</ele>
        <time>2013-01-19T12:57:45Z</time>
      </trkpt>
      <trkpt lat="45.82107" lon="4.48342">
        <ele>771.11</ele>
        <time>2013-01-19T12:58:01Z</time>
      </trkpt>
      <trkpt lat="45.82109" lon="4.48381">
        <ele>770.63</ele>
        <time>2013-01-19T12:58:14Z</time>
      </trkpt>
      <trkpt lat="45.82091" lon="4.4843">
        <ele>769.19</ele>
        <time>2013-01-19T12:58:27Z</time>
      </trkpt>
      <trkpt lat="45.82078" lon="4.4849">
        <ele>762.46</ele>
        <time>2013-01-19T12:58:42Z</time>
      </trkpt>
      <trkpt lat="45.82074" lon="4.48541">
        <ele>757.66</ele>
        <time>2013-01-19T12:58:55Z</time>
      </trkpt>
      <trkpt lat="45.8207" lon="4.48573">
        <ele>754.29</ele>
        <time>2013-01-19T12:59:04Z</time>
      </trkpt>
      <trkpt lat="45.82082" lon="4.48586">
        <ele>751.41</ele>
        <time>2013-01-19T12:59:10Z</time>
      </trkpt>
      <trkpt lat="45.82118" lon="4.48594">
        <ele>747.56</ele>
        <time>2013-01-19T12:59:26Z</time>
      </trkpt>
      <trkpt lat="45.82158" lon="4.48607">
        <ele>746.6</ele>
        <time>2013-01-19T12:59:43Z</time>
      </trkpt>
      <trkpt lat="45.82192" lon="4.48625">
        <ele>746.12</ele>
        <time>2013-01-19T12:59:59Z</time>
      </trkpt>
      <trkpt lat="45.82224" lon="4.4864">
        <ele>747.08</ele>
        <time>2013-01-19T13:00:13Z</time>
      </trkpt>
      <trkpt lat="45.82259" lon="4.48653">
        <ele>748.04</ele>
        <time>2013-01-19T13:00:29Z</time>
      </trkpt>
      <trkpt lat="45.82265" lon="4.48659">
        <ele>748.04</ele>
        <time>2013-01-19T13:00:35Z</time>
      </trkpt>
      <trkpt lat="45.82255" lon="4.48702">
        <ele>746.12</ele>
        <time>2013-01-19T13:00:50Z</time>
      </trkpt>
      <trkpt lat="45.82256" lon="4.48711">
        <ele>746.12</ele>
        <time>2013-01-19T13:00:56Z</time>
      </trkpt>
      <trkpt lat="45.82262" lon="4.48722">
        <ele>744.68</ele>
        <time>2013-01-19T13:01:11Z</time>
      </trkpt>
      <trkpt lat="45.82263" lon="4.48721">
        <ele>744.68</ele>
        <time>2013-01-19T13:01:42Z</time>
      </trkpt>
      <trkpt lat="45.82269" lon="4.48737">
        <ele>744.2</ele>
        <time>2013-01-19T13:01:58Z</time>
      </trkpt>
      <trkpt lat="45.82286" lon="4.48787">
        <ele>741.79</ele>
        <time>2013-01-19T13:02:13Z</time>
      </trkpt>
      <trkpt lat="45.82305" lon="4.48826">
        <ele>739.39</ele>
        <time>2013-01-19T13:02:26Z</time>
      </trkpt>
      <trkpt lat="45.82328" lon="4.48854">
        <ele>737.95</ele>
        <time>2013-01-19T13:02:41Z</time>
      </trkpt>
      <trkpt lat="45.82344" lon="4.48866">
        <ele>736.03</ele>
        <time>2013-01-19T13:02:53Z</time>
      </trkpt>
      <trkpt lat="45.82345" lon="4.48868">
        <ele>735.55</ele>
        <time>2013-01-19T13:03:27Z</time>
      </trkpt>
      <trkpt lat="45.82376" lon="4.48887">
        <ele>729.78</ele>
        <time>2013-01-19T13:03:42Z</time>
      </trkpt>
      <trkpt lat="45.824" lon="4.48911">
        <ele>723.05</ele>
        <time>2013-01-19T13:03:54Z</time>
      </trkpt>
      <trkpt lat="45.82428" lon="4.48936">
        <ele>715.84</ele>
        <time>2013-01-19T13:04:07Z</time>
      </trkpt>
      <trkpt lat="45.82465" lon="4.48955">
        <ele>706.71</ele>
        <time>2013-01-19T13:04:22Z</time>
      </trkpt>
      <trkpt lat="45.82498" lon="4.48976">
        <ele>698.05</ele>
        <time>2013-01-19T13:04:36Z</time>
      </trkpt>
      <trkpt lat="45.82528" lon="4.4901">
        <ele>688.92</ele>
        <time>2013-01-19T13:04:50Z</time>
      </trkpt>
      <trkpt lat="45.82551" lon="4.49055">
        <ele>682.67</ele>
        <time>2013-01-19T13:05:04Z</time>
      </trkpt>
      <trkpt lat="45.82567" lon="4.49097">
        <ele>677.87</ele>
        <time>2013-01-19T13:05:17Z</time>
      </trkpt>
      <trkpt lat="45.82553" lon="4.49145">
        <ele>671.14</ele>
        <time>2013-01-19T13:05:32Z</time>
      </trkpt>
      <trkpt lat="45.82562" lon="4.49189">
        <ele>664.89</ele>
        <time>2013-01-19T13:05:45Z</time>
      </trkpt>
      <trkpt lat="45.82572" lon="4.49237">
        <ele>655.76</ele>
        <time>2013-01-19T13:05:59Z</time>
      </trkpt>
      <trkpt lat="45.82583" lon="4.49288">
        <ele>647.1</ele>
        <time>2013-01-19T13:06:14Z</time>
      </trkpt>
      <trkpt lat="45.82604" lon="4.49338">
        <ele>637.01</ele>
        <time>2013-01-19T13:06:32Z</time>
      </trkpt>
      <trkpt lat="45.82628" lon="4.49376">
        <ele>628.36</ele>
        <time>2013-01-19T13:06:47Z</time>
      </trkpt>
      <trkpt lat="45.82639" lon="4.4941">
        <ele>620.19</ele>
        <time>2013-01-19T13:07:00Z</time>
      </trkpt>
      <trkpt lat="45.82632" lon="4.4946">
        <ele>612.5</ele>
        <time>2013-01-19T13:07:15Z</time>
      </trkpt>
      <trkpt lat="45.82632" lon="4.4951">
        <ele>605.29</ele>
        <time>2013-01-19T13:07:30Z</time>
      </trkpt>
      <trkpt lat="45.82636" lon="4.49561">
        <ele>599.04</ele>
        <time>2013-01-19T13:07:45Z</time>
      </trkpt>
      <trkpt lat="45.82645" lon="4.49579">
        <ele>595.19</ele>
        <time>2013-01-19T13:07:57Z</time>
      </trkpt>
      <trkpt lat="45.82646" lon="4.49576">
        <ele>593.75</ele>
        <time>2013-01-19T13:08:00Z</time>
      </trkpt>
      <trkpt lat="45.82624" lon="4.49595">
        <ele>588.95</ele>
        <time>2013-01-19T13:08:17Z</time>
      </trkpt>
      <trkpt lat="45.82622" lon="4.49595">
        <ele>588.95</ele>
        <time>2013-01-19T13:08:18Z</time>
      </trkpt>
      <trkpt lat="45.82597" lon="4.49586">
        <ele>596.15</ele>
        <time>2013-01-19T13:08:29Z</time>
      </trkpt>
      <trkpt lat="45.82571" lon="4.49569">
        <ele>594.71</ele>
        <time>2013-01-19T13:08:42Z</time>
      </trkpt>
      <trkpt lat="45.82546" lon="4.49574">
        <ele>593.27</ele>
        <time>2013-01-19T13:08:53Z</time>
      </trkpt>
      <trkpt lat="45.8252" lon="4.496">
        <ele>591.83</ele>
        <time>2013-01-19T13:09:07Z</time>
      </trkpt>
      <trkpt lat="45.82496" lon="4.49648">
        <ele>589.43</ele>
        <time>2013-01-19T13:09:22Z</time>
      </trkpt>
      <trkpt lat="45.82471" lon="4.4969">
        <ele>586.54</ele>
        <time>2013-01-19T13:09:37Z</time>
      </trkpt>
      <trkpt lat="45.82441" lon="4.49733">
        <ele>586.54</ele>
        <time>2013-01-19T13:09:53Z</time>
      </trkpt>
      <trkpt lat="45.82419" lon="4.49774">
        <ele>586.54</ele>
        <time>2013-01-19T13:10:07Z</time>
      </trkpt>
      <trkpt lat="45.82399" lon="4.49809">
        <ele>587.5</ele>
        <time>2013-01-19T13:10:20Z</time>
      </trkpt>
      <trkpt lat="45.82393" lon="4.4982">
        <ele>587.98</ele>
        <time>2013-01-19T13:10:24Z</time>
      </trkpt>
      <trkpt lat="45.82386" lon="4.49834">
        <ele>588.95</ele>
        <time>2013-01-19T13:10:29Z</time>
      </trkpt>
      <trkpt lat="45.82358" lon="4.49872">
        <ele>591.35</ele>
        <time>2013-01-19T13:10:45Z</time>
      </trkpt>
      <trkpt lat="45.82327" lon="4.49894">
        <ele>592.31</ele>
        <time>2013-01-19T13:10:58Z</time>
      </trkpt>
      <trkpt lat="45.82321" lon="4.49898">
        <ele>590.87</ele>
        <time>2013-01-19T13:11:11Z</time>
      </trkpt>
      <trkpt lat="45.82308" lon="4.49901">
        <ele>588.46</ele>
        <time>2013-01-19T13:11:24Z</time>
      </trkpt>
      <trkpt lat="45.82279" lon="4.49905">
        <ele>583.66</ele>
        <time>2013-01-19T13:11:37Z</time>
      </trkpt>
      <trkpt lat="45.82241" lon="4.49896">
        <ele>578.85</ele>
        <time>2013-01-19T13:11:51Z</time>
      </trkpt>
      <trkpt lat="45.82215" lon="4.49878">
        <ele>573.56</ele>
        <time>2013-01-19T13:12:03Z</time>
      </trkpt>
      <trkpt lat="45.82202" lon="4.49848">
        <ele>567.8</ele>
        <time>2013-01-19T13:12:16Z</time>
      </trkpt>
      <trkpt lat="45.82196" lon="4.49846">
        <ele>566.35</ele>
        <time>2013-01-19T13:12:20Z</time>
      </trkpt>
      <trkpt lat="45.82175" lon="4.49879">
        <ele>558.66</ele>
        <time>2013-01-19T13:12:36Z</time>
      </trkpt>
      <trkpt lat="45.82145" lon="4.49925">
        <ele>554.82</ele>
        <time>2013-01-19T13:12:51Z</time>
      </trkpt>
      <trkpt lat="45.82122" lon="4.49976">
        <ele>553.38</ele>
        <time>2013-01-19T13:13:08Z</time>
      </trkpt>
      <trkpt lat="45.82112" lon="4.5">
        <ele>549.53</ele>
        <time>2013-01-19T13:13:23Z</time>
      </trkpt>
      <trkpt lat="45.8212" lon="4.50029">
        <ele>551.45</ele>
        <time>2013-01-19T13:13:39Z</time>
      </trkpt>
      <trkpt lat="45.82136" lon="4.50049">
        <ele>556.26</ele>
        <time>2013-01-19T13:13:52Z</time>
      </trkpt>
      <trkpt lat="45.82151" lon="4.50077">
        <ele>568.28</ele>
        <time>2013-01-19T13:14:13Z</time>
      </trkpt>
      <trkpt lat="45.82161" lon="4.50104">
        <ele>575.49</ele>
        <time>2013-01-19T13:14:35Z</time>
      </trkpt>
      <trkpt lat="45.82177" lon="4.5013">
        <ele>582.7</ele>
        <time>2013-01-19T13:14:56Z</time>
      </trkpt>
      <trkpt lat="45.82192" lon="4.50154">
        <ele>587.98</ele>
        <time>2013-01-19T13:15:16Z</time>
      </trkpt>
      <trkpt lat="45.82193" lon="4.50161">
        <ele>589.43</ele>
        <time>2013-01-19T13:15:36Z</time>
      </trkpt>
      <trkpt lat="45.82202" lon="4.50184">
        <ele>591.83</ele>
        <time>2013-01-19T13:15:53Z</time>
      </trkpt>
      <trkpt lat="45.82211" lon="4.50211">
        <ele>594.71</ele>
        <time>2013-01-19T13:16:12Z</time>
      </trkpt>
      <trkpt lat="45.82218" lon="4.50237">
        <ele>597.6</ele>
        <time>2013-01-19T13:16:31Z</time>
      </trkpt>
      <trkpt lat="45.8223" lon="4.50262">
        <ele>599.52</ele>
        <time>2013-01-19T13:16:51Z</time>
      </trkpt>
      <trkpt lat="45.8223" lon="4.50265">
        <ele>600.96</ele>
        <time>2013-01-19T13:17:11Z</time>
      </trkpt>
      <trkpt lat="45.82231" lon="4.50266">
        <ele>601.44</ele>
        <time>2013-01-19T13:17:33Z</time>
      </trkpt>
      <trkpt lat="45.82229" lon="4.50271">
        <ele>600.96</ele>
        <time>2013-01-19T13:17:37Z</time>
      </trkpt>
      <trkpt lat="45.82224" lon="4.50302">
        <ele>600</ele>
        <time>2013-01-19T13:17:56Z</time>
      </trkpt>
      <trkpt lat="45.82217" lon="4.50303">
        <ele>603.85</ele>
        <time>2013-01-19T13:18:15Z</time>
      </trkpt>
      <trkpt lat="45.82206" lon="4.50298">
        <ele>607.69</ele>
        <time>2013-01-19T13:18:30Z</time>
      </trkpt>
      <trkpt lat="45.82185" lon="4.50291">
        <ele>612.98</ele>
        <time>2013-01-19T13:18:48Z</time>
      </trkpt>
      <trkpt lat="45.8217" lon="4.50297">
        <ele>617.3</ele>
        <time>2013-01-19T13:19:02Z</time>
      </trkpt>
      <trkpt lat="45.82163" lon="4.50302">
        <ele>619.23</ele>
        <time>2013-01-19T13:19:22Z</time>
      </trkpt>
      <trkpt lat="45.8215" lon="4.50307">
        <ele>620.67</ele>
        <time>2013-01-19T13:19:38Z</time>
      </trkpt>
      <trkpt lat="45.82136" lon="4.50307">
        <ele>623.55</ele>
        <time>2013-01-19T13:19:56Z</time>
      </trkpt>
      <trkpt lat="45.82119" lon="4.50313">
        <ele>629.32</ele>
        <time>2013-01-19T13:20:12Z</time>
      </trkpt>
      <trkpt lat="45.82108" lon="4.50322">
        <ele>634.13</ele>
        <time>2013-01-19T13:20:28Z</time>
      </trkpt>
      <trkpt lat="45.82094" lon="4.50327">
        <ele>637.01</ele>
        <time>2013-01-19T13:20:45Z</time>
      </trkpt>
      <trkpt lat="45.82084" lon="4.50332">
        <ele>639.89</ele>
        <time>2013-01-19T13:21:05Z</time>
      </trkpt>
      <trkpt lat="45.8207" lon="4.50341">
        <ele>642.78</ele>
        <time>2013-01-19T13:21:19Z</time>
      </trkpt>
      <trkpt lat="45.82065" lon="4.50345">
        <ele>643.26</ele>
        <time>2013-01-19T13:21:24Z</time>
      </trkpt>
      <trkpt lat="45.82055" lon="4.50368">
        <ele>646.62</ele>
        <time>2013-01-19T13:21:40Z</time>
      </trkpt>
      <trkpt lat="45.82051" lon="4.50381">
        <ele>648.07</ele>
        <time>2013-01-19T13:21:49Z</time>
      </trkpt>
      <trkpt lat="45.8204" lon="4.50404">
        <ele>656.24</ele>
        <time>2013-01-19T13:22:06Z</time>
      </trkpt>
      <trkpt lat="45.82036" lon="4.50411">
        <ele>659.6</ele>
        <time>2013-01-19T13:22:13Z</time>
      </trkpt>
      <trkpt lat="45.82033" lon="4.50416">
        <ele>661.52</ele>
        <time>2013-01-19T13:22:17Z</time>
      </trkpt>
      <trkpt lat="45.8202" lon="4.50435">
        <ele>662.97</ele>
        <time>2013-01-19T13:22:34Z</time>
      </trkpt>
      <trkpt lat="45.82007" lon="4.50456">
        <ele>663.93</ele>
        <time>2013-01-19T13:22:54Z</time>
      </trkpt>
      <trkpt lat="45.82" lon="4.50462">
        <ele>664.41</ele>
        <time>2013-01-19T13:23:01Z</time>
      </trkpt>
      <trkpt lat="45.81993" lon="4.50473">
        <ele>664.89</ele>
        <time>2013-01-19T13:23:16Z</time>
      </trkpt>
      <trkpt lat="45.81985" lon="4.50481">
        <ele>664.41</ele>
        <time>2013-01-19T13:23:23Z</time>
      </trkpt>
      <trkpt lat="45.81981" lon="4.50487">
        <ele>664.41</ele>
        <time>2013-01-19T13:23:29Z</time>
      </trkpt>
      <trkpt lat="45.81968" lon="4.50505">
        <ele>667.29</ele>
        <time>2013-01-19T13:23:44Z</time>
      </trkpt>
      <trkpt lat="45.81964" lon="4.50509">
        <ele>668.25</ele>
        <time>2013-01-19T13:23:48Z</time>
      </trkpt>
      <trkpt lat="45.8195" lon="4.50524">
        <ele>670.18</ele>
        <time>2013-01-19T13:24:02Z</time>
      </trkpt>
      <trkpt lat="45.81935" lon="4.50545">
        <ele>673.06</ele>
        <time>2013-01-19T13:24:18Z</time>
      </trkpt>
      <trkpt lat="45.81924" lon="4.50561">
        <ele>675.94</ele>
        <time>2013-01-19T13:24:33Z</time>
      </trkpt>
      <trkpt lat="45.81907" lon="4.50579">
        <ele>678.35</ele>
        <time>2013-01-19T13:24:48Z</time>
      </trkpt>
      <trkpt lat="45.81906" lon="4.50581">
        <ele>678.83</ele>
        <time>2013-01-19T13:24:50Z</time>
      </trkpt>
      <trkpt lat="45.81885" lon="4.506">
        <ele>682.19</ele>
        <time>2013-01-19T13:25:09Z</time>
      </trkpt>
      <trkpt lat="45.81872" lon="4.50616">
        <ele>688.44</ele>
        <time>2013-01-19T13:25:23Z</time>
      </trkpt>
      <trkpt lat="45.81867" lon="4.50631">
        <ele>688.92</ele>
        <time>2013-01-19T13:25:36Z</time>
      </trkpt>
      <trkpt lat="45.81868" lon="4.50634">
        <ele>685.56</ele>
        <time>2013-01-19T13:25:56Z</time>
      </trkpt>
      <trkpt lat="45.81868" lon="4.5064">
        <ele>685.08</ele>
        <time>2013-01-19T13:26:00Z</time>
      </trkpt>
      <trkpt lat="45.81865" lon="4.50647">
        <ele>686.04</ele>
        <time>2013-01-19T13:26:05Z</time>
      </trkpt>
      <trkpt lat="45.81857" lon="4.50659">
        <ele>687.96</ele>
        <time>2013-01-19T13:26:17Z</time>
      </trkpt>
      <trkpt lat="45.81839" lon="4.50682">
        <ele>691.81</ele>
        <time>2013-01-19T13:26:36Z</time>
      </trkpt>
      <trkpt lat="45.81835" lon="4.50683">
        <ele>693.73</ele>
        <time>2013-01-19T13:26:53Z</time>
      </trkpt>
      <trkpt lat="45.81831" lon="4.5069">
        <ele>694.69</ele>
        <time>2013-01-19T13:27:03Z</time>
      </trkpt>
      <trkpt lat="45.81828" lon="4.50693">
        <ele>695.17</ele>
        <time>2013-01-19T13:27:06Z</time>
      </trkpt>
      <trkpt lat="45.81814" lon="4.50711">
        <ele>696.13</ele>
        <time>2013-01-19T13:27:21Z</time>
      </trkpt>
      <trkpt lat="45.81792" lon="4.5072">
        <ele>697.09</ele>
        <time>2013-01-19T13:27:38Z</time>
      </trkpt>
      <trkpt lat="45.8177" lon="4.50729">
        <ele>696.61</ele>
        <time>2013-01-19T13:27:56Z</time>
      </trkpt>
      <trkpt lat="45.81751" lon="4.50742">
        <ele>697.09</ele>
        <time>2013-01-19T13:28:13Z</time>
      </trkpt>
      <trkpt lat="45.81733" lon="4.50763">
        <ele>701.42</ele>
        <time>2013-01-19T13:28:31Z</time>
      </trkpt>
      <trkpt lat="45.81718" lon="4.50789">
        <ele>703.82</ele>
        <time>2013-01-19T13:28:48Z</time>
      </trkpt>
      <trkpt lat="45.81704" lon="4.50815">
        <ele>706.23</ele>
        <time>2013-01-19T13:29:05Z</time>
      </trkpt>
      <trkpt lat="45.81686" lon="4.50845">
        <ele>709.11</ele>
        <time>2013-01-19T13:29:20Z</time>
      </trkpt>
      <trkpt lat="45.81663" lon="4.50872">
        <ele>710.07</ele>
        <time>2013-01-19T13:29:34Z</time>
      </trkpt>
      <trkpt lat="45.81663" lon="4.50874">
        <ele>710.07</ele>
        <time>2013-01-19T13:29:36Z</time>
      </trkpt>
      <trkpt lat="45.81673" lon="4.50886">
        <ele>708.63</ele>
        <time>2013-01-19T13:29:42Z</time>
      </trkpt>
      <trkpt lat="45.81702" lon="4.50914">
        <ele>705.75</ele>
        <time>2013-01-19T13:29:57Z</time>
      </trkpt>
      <trkpt lat="45.81719" lon="4.50939">
        <ele>704.3</ele>
        <time>2013-01-19T13:30:07Z</time>
      </trkpt>
      <trkpt lat="45.81741" lon="4.50969">
        <ele>703.82</ele>
        <time>2013-01-19T13:30:20Z</time>
      </trkpt>
      <trkpt lat="45.81743" lon="4.50987">
        <ele>703.34</ele>
        <time>2013-01-19T13:30:34Z</time>
      </trkpt>
      <trkpt lat="45.81742" lon="4.50989">
        <ele>703.82</ele>
        <time>2013-01-19T13:30:36Z</time>
      </trkpt>
      <trkpt lat="45.81728" lon="4.51019">
        <ele>708.15</ele>
        <time>2013-01-19T13:30:51Z</time>
      </trkpt>
      <trkpt lat="45.81719" lon="4.51051">
        <ele>712.95</ele>
        <time>2013-01-19T13:31:07Z</time>
      </trkpt>
      <trkpt lat="45.81716" lon="4.51098">
        <ele>715.36</ele>
        <time>2013-01-19T13:31:20Z</time>
      </trkpt>
      <trkpt lat="45.81707" lon="4.5114">
        <ele>717.28</ele>
        <time>2013-01-19T13:31:33Z</time>
      </trkpt>
      <trkpt lat="45.81692" lon="4.51178">
        <ele>719.2</ele>
        <time>2013-01-19T13:31:47Z</time>
      </trkpt>
      <trkpt lat="45.81681" lon="4.51214">
        <ele>722.57</ele>
        <time>2013-01-19T13:32:00Z</time>
      </trkpt>
      <trkpt lat="45.81661" lon="4.51251">
        <ele>724.97</ele>
        <time>2013-01-19T13:32:14Z</time>
      </trkpt>
      <trkpt lat="45.8162" lon="4.51301">
        <ele>724.49</ele>
        <time>2013-01-19T13:32:32Z</time>
      </trkpt>
      <trkpt lat="45.81589" lon="4.51353">
        <ele>723.05</ele>
        <time>2013-01-19T13:32:48Z</time>
      </trkpt>
      <trkpt lat="45.81576" lon="4.51412">
        <ele>715.84</ele>
        <time>2013-01-19T13:33:03Z</time>
      </trkpt>
      <trkpt lat="45.81562" lon="4.51462">
        <ele>711.51</ele>
        <time>2013-01-19T13:33:18Z</time>
      </trkpt>
      <trkpt lat="45.81553" lon="4.51511">
        <ele>703.82</ele>
        <time>2013-01-19T13:33:33Z</time>
      </trkpt>
      <trkpt lat="45.81555" lon="4.51573">
        <ele>693.25</ele>
        <time>2013-01-19T13:33:50Z</time>
      </trkpt>
      <trkpt lat="45.81543" lon="4.51614">
        <ele>685.08</ele>
        <time>2013-01-19T13:34:04Z</time>
      </trkpt>
      <trkpt lat="45.81544" lon="4.5166">
        <ele>675.46</ele>
        <time>2013-01-19T13:34:17Z</time>
      </trkpt>
      <trkpt lat="45.81555" lon="4.51722">
        <ele>668.73</ele>
        <time>2013-01-19T13:34:35Z</time>
      </trkpt>
      <trkpt lat="45.81561" lon="4.51759">
        <ele>665.85</ele>
        <time>2013-01-19T13:34:46Z</time>
      </trkpt>
      <trkpt lat="45.81553" lon="4.51762">
        <ele>663.93</ele>
        <time>2013-01-19T13:34:51Z</time>
      </trkpt>
      <trkpt lat="45.81538" lon="4.51747">
        <ele>661.04</ele>
        <time>2013-01-19T13:34:59Z</time>
      </trkpt>
      <trkpt lat="45.81536" lon="4.51763">
        <ele>659.6</ele>
        <time>2013-01-19T13:35:06Z</time>
      </trkpt>
      <trkpt lat="45.81549" lon="4.51801">
        <ele>655.28</ele>
        <time>2013-01-19T13:35:18Z</time>
      </trkpt>
      <trkpt lat="45.81582" lon="4.51821">
        <ele>648.55</ele>
        <time>2013-01-19T13:35:34Z</time>
      </trkpt>
      <trkpt lat="45.81615" lon="4.51856">
        <ele>643.26</ele>
        <time>2013-01-19T13:35:50Z</time>
      </trkpt>
      <trkpt lat="45.81637" lon="4.51902">
        <ele>636.53</ele>
        <time>2013-01-19T13:36:06Z</time>
      </trkpt>
      <trkpt lat="45.81651" lon="4.5194">
        <ele>634.13</ele>
        <time>2013-01-19T13:36:21Z</time>
      </trkpt>
      <trkpt lat="45.81671" lon="4.51985">
        <ele>635.57</ele>
        <time>2013-01-19T13:36:35Z</time>
      </trkpt>
      <trkpt lat="45.81685" lon="4.52038">
        <ele>636.05</ele>
        <time>2013-01-19T13:36:52Z</time>
      </trkpt>
      <trkpt lat="45.81689" lon="4.52086">
        <ele>632.68</ele>
        <time>2013-01-19T13:37:06Z</time>
      </trkpt>
      <trkpt lat="45.81692" lon="4.52145">
        <ele>625.96</ele>
        <time>2013-01-19T13:37:22Z</time>
      </trkpt>
      <trkpt lat="45.81706" lon="4.522">
        <ele>616.82</ele>
        <time>2013-01-19T13:37:37Z</time>
      </trkpt>
      <trkpt lat="45.81717" lon="4.52266">
        <ele>609.61</ele>
        <time>2013-01-19T13:37:54Z</time>
      </trkpt>
      <trkpt lat="45.81724" lon="4.52319">
        <ele>603.36</ele>
        <time>2013-01-19T13:38:10Z</time>
      </trkpt>
      <trkpt lat="45.81732" lon="4.52378">
        <ele>597.6</ele>
        <time>2013-01-19T13:38:26Z</time>
      </trkpt>
      <trkpt lat="45.81735" lon="4.52425">
        <ele>593.75</ele>
        <time>2013-01-19T13:38:38Z</time>
      </trkpt>
      <trkpt lat="45.8173" lon="4.52478">
        <ele>590.39</ele>
        <time>2013-01-19T13:38:52Z</time>
      </trkpt>
      <trkpt lat="45.81712" lon="4.52507">
        <ele>589.43</ele>
        <time>2013-01-19T13:39:03Z</time>
      </trkpt>
      <trkpt lat="45.81708" lon="4.52518">
        <ele>592.79</ele>
        <time>2013-01-19T13:39:10Z</time>
      </trkpt>
      <trkpt lat="45.81707" lon="4.52531">
        <ele>593.75</ele>
        <time>2013-01-19T13:39:21Z</time>
      </trkpt>
      <trkpt lat="45.81704" lon="4.52546">
        <ele>592.79</ele>
        <time>2013-01-19T13:39:26Z</time>
      </trkpt>
      <trkpt lat="45.81698" lon="4.5259">
        <ele>587.02</ele>
        <time>2013-01-19T13:39:39Z</time>
      </trkpt>
      <trkpt lat="45.81688" lon="4.52632">
        <ele>584.62</ele>
        <time>2013-01-19T13:39:51Z</time>
      </trkpt>
      <trkpt lat="45.81682" lon="4.52672">
        <ele>582.7</ele>
        <time>2013-01-19T13:40:02Z</time>
      </trkpt>
      <trkpt lat="45.81674" lon="4.52721">
        <ele>582.22</ele>
        <time>2013-01-19T13:40:16Z</time>
      </trkpt>
      <trkpt lat="45.81667" lon="4.52764">
        <ele>582.22</ele>
        <time>2013-01-19T13:40:28Z</time>
      </trkpt>
      <trkpt lat="45.81661" lon="4.52798">
        <ele>582.22</ele>
        <time>2013-01-19T13:40:37Z</time>
      </trkpt>
      <trkpt lat="45.81657" lon="4.52843">
        <ele>580.77</ele>
        <time>2013-01-19T13:40:49Z</time>
      </trkpt>
      <trkpt lat="45.81656" lon="4.52887">
        <ele>580.77</ele>
        <time>2013-01-19T13:41:01Z</time>
      </trkpt>
      <trkpt lat="45.8165" lon="4.52916">
        <ele>581.73</ele>
        <time>2013-01-19T13:41:12Z</time>
      </trkpt>
      <trkpt lat="45.81641" lon="4.52947">
        <ele>583.66</ele>
        <time>2013-01-19T13:41:21Z</time>
      </trkpt>
      <trkpt lat="45.81631" lon="4.52987">
        <ele>585.1</ele>
        <time>2013-01-19T13:41:33Z</time>
      </trkpt>
      <trkpt lat="45.81609" lon="4.5299">
        <ele>581.25</ele>
        <time>2013-01-19T13:41:43Z</time>
      </trkpt>
      <trkpt lat="45.81594" lon="4.52978">
        <ele>581.25</ele>
        <time>2013-01-19T13:41:50Z</time>
      </trkpt>
      <trkpt lat="45.81587" lon="4.52985">
        <ele>579.81</ele>
        <time>2013-01-19T13:41:54Z</time>
      </trkpt>
      <trkpt lat="45.81578" lon="4.53026">
        <ele>573.56</ele>
        <time>2013-01-19T13:42:07Z</time>
      </trkpt>
      <trkpt lat="45.81576" lon="4.53039">
        <ele>571.16</ele>
        <time>2013-01-19T13:42:19Z</time>
      </trkpt>
      <trkpt lat="45.81575" lon="4.53043">
        <ele>570.68</ele>
        <time>2013-01-19T13:42:44Z</time>
      </trkpt>
      <trkpt lat="45.81573" lon="4.53096">
        <ele>563.95</ele>
        <time>2013-01-19T13:42:59Z</time>
      </trkpt>
      <trkpt lat="45.81585" lon="4.53136">
        <ele>560.11</ele>
        <time>2013-01-19T13:43:12Z</time>
      </trkpt>
      <trkpt lat="45.81589" lon="4.53144">
        <ele>559.14</ele>
        <time>2013-01-19T13:43:15Z</time>
      </trkpt>
      <trkpt lat="45.81588" lon="4.53156">
        <ele>558.18</ele>
        <time>2013-01-19T13:43:19Z</time>
      </trkpt>
      <trkpt lat="45.81581" lon="4.53191">
        <ele>555.78</ele>
        <time>2013-01-19T13:43:30Z</time>
      </trkpt>
      <trkpt lat="45.81587" lon="4.53233">
        <ele>552.41</ele>
        <time>2013-01-19T13:43:41Z</time>
      </trkpt>
      <trkpt lat="45.81576" lon="4.53269">
        <ele>546.17</ele>
        <time>2013-01-19T13:43:52Z</time>
      </trkpt>
      <trkpt lat="45.81557" lon="4.53311">
        <ele>539.44</ele>
        <time>2013-01-19T13:44:05Z</time>
      </trkpt>
      <trkpt lat="45.81542" lon="4.53359">
        <ele>535.11</ele>
        <time>2013-01-19T13:44:18Z</time>
      </trkpt>
      <trkpt lat="45.81534" lon="4.53406">
        <ele>534.15</ele>
        <time>2013-01-19T13:44:30Z</time>
      </trkpt>
      <trkpt lat="45.81527" lon="4.53459">
        <ele>536.07</ele>
        <time>2013-01-19T13:44:43Z</time>
      </trkpt>
      <trkpt lat="45.81521" lon="4.53502">
        <ele>537.51</ele>
        <time>2013-01-19T13:44:55Z</time>
      </trkpt>
      <trkpt lat="45.81516" lon="4.53545">
        <ele>538.96</ele>
        <time>2013-01-19T13:45:07Z</time>
      </trkpt>
      <trkpt lat="45.81507" lon="4.53588">
        <ele>541.36</ele>
        <time>2013-01-19T13:45:19Z</time>
      </trkpt>
      <trkpt lat="45.81494" lon="4.53635">
        <ele>542.32</ele>
        <time>2013-01-19T13:45:33Z</time>
      </trkpt>
      <trkpt lat="45.8148" lon="4.53676">
        <ele>541.84</ele>
        <time>2013-01-19T13:45:45Z</time>
      </trkpt>
      <trkpt lat="45.81468" lon="4.53716">
        <ele>538.96</ele>
        <time>2013-01-19T13:45:56Z</time>
      </trkpt>
      <trkpt lat="45.81451" lon="4.5376">
        <ele>533.19</ele>
        <time>2013-01-19T13:46:09Z</time>
      </trkpt>
      <trkpt lat="45.81423" lon="4.53807">
        <ele>526.94</ele>
        <time>2013-01-19T13:46:24Z</time>
      </trkpt>
      <trkpt lat="45.81398" lon="4.53851">
        <ele>522.13</ele>
        <time>2013-01-19T13:46:38Z</time>
      </trkpt>
      <trkpt lat="45.81376" lon="4.539">
        <ele>519.73</ele>
        <time>2013-01-19T13:46:53Z</time>
      </trkpt>
      <trkpt lat="45.81355" lon="4.53941">
        <ele>520.21</ele>
        <time>2013-01-19T13:47:07Z</time>
      </trkpt>
      <trkpt lat="45.81337" lon="4.53979">
        <ele>522.61</ele>
        <time>2013-01-19T13:47:21Z</time>
      </trkpt>
      <trkpt lat="45.81318" lon="4.54014">
        <ele>526.46</ele>
        <time>2013-01-19T13:47:35Z</time>
      </trkpt>
      <trkpt lat="45.813" lon="4.54041">
        <ele>527.42</ele>
        <time>2013-01-19T13:47:46Z</time>
      </trkpt>
      <trkpt lat="45.81287" lon="4.5409">
        <ele>528.38</ele>
        <time>2013-01-19T13:47:59Z</time>
      </trkpt>
      <trkpt lat="45.81256" lon="4.54132">
        <ele>531.75</ele>
        <time>2013-01-19T13:48:15Z</time>
      </trkpt>
      <trkpt lat="45.81223" lon="4.54172">
        <ele>533.67</ele>
        <time>2013-01-19T13:48:31Z</time>
      </trkpt>
      <trkpt lat="45.81195" lon="4.54212">
        <ele>530.3</ele>
        <time>2013-01-19T13:48:44Z</time>
      </trkpt>
      <trkpt lat="45.81168" lon="4.54246">
        <ele>525.98</ele>
        <time>2013-01-19T13:48:58Z</time>
      </trkpt>
      <trkpt lat="45.81147" lon="4.54279">
        <ele>523.58</ele>
        <time>2013-01-19T13:49:15Z</time>
      </trkpt>
      <trkpt lat="45.81131" lon="4.54321">
        <ele>519.73</ele>
        <time>2013-01-19T13:49:29Z</time>
      </trkpt>
      <trkpt lat="45.81113" lon="4.54378">
        <ele>517.33</ele>
        <time>2013-01-19T13:49:44Z</time>
      </trkpt>
      <trkpt lat="45.81102" lon="4.54437">
        <ele>514.44</ele>
        <time>2013-01-19T13:49:59Z</time>
      </trkpt>
      <trkpt lat="45.81088" lon="4.54496">
        <ele>510.12</ele>
        <time>2013-01-19T13:50:14Z</time>
      </trkpt>
      <trkpt lat="45.81077" lon="4.54556">
        <ele>504.35</ele>
        <time>2013-01-19T13:50:29Z</time>
      </trkpt>
      <trkpt lat="45.81065" lon="4.54607">
        <ele>500.02</ele>
        <time>2013-01-19T13:50:42Z</time>
      </trkpt>
      <trkpt lat="45.81055" lon="4.54652">
        <ele>498.1</ele>
        <time>2013-01-19T13:50:55Z</time>
      </trkpt>
      <trkpt lat="45.81052" lon="4.54692">
        <ele>494.26</ele>
        <time>2013-01-19T13:51:07Z</time>
      </trkpt>
      <trkpt lat="45.81053" lon="4.54699">
        <ele>492.81</ele>
        <time>2013-01-19T13:51:09Z</time>
      </trkpt>
      <trkpt lat="45.81063" lon="4.54712">
        <ele>489.93</ele>
        <time>2013-01-19T13:51:14Z</time>
      </trkpt>
      <trkpt lat="45.81092" lon="4.54725">
        <ele>483.68</ele>
        <time>2013-01-19T13:51:27Z</time>
      </trkpt>
      <trkpt lat="45.81096" lon="4.54738">
        <ele>481.28</ele>
        <time>2013-01-19T13:51:32Z</time>
      </trkpt>
      <trkpt lat="45.81075" lon="4.54789">
        <ele>473.59</ele>
        <time>2013-01-19T13:51:46Z</time>
      </trkpt>
      <trkpt lat="45.81034" lon="4.54834">
        <ele>463.49</ele>
        <time>2013-01-19T13:52:04Z</time>
      </trkpt>
      <trkpt lat="45.81002" lon="4.54849">
        <ele>455.8</ele>
        <time>2013-01-19T13:52:17Z</time>
      </trkpt>
      <trkpt lat="45.80964" lon="4.54863">
        <ele>449.55</ele>
        <time>2013-01-19T13:52:30Z</time>
      </trkpt>
      <trkpt lat="45.80928" lon="4.54882">
        <ele>447.15</ele>
        <time>2013-01-19T13:52:43Z</time>
      </trkpt>
      <trkpt lat="45.80903" lon="4.54909">
        <ele>445.71</ele>
        <time>2013-01-19T13:52:55Z</time>
      </trkpt>
      <trkpt lat="45.80888" lon="4.54933">
        <ele>444.75</ele>
        <time>2013-01-19T13:53:06Z</time>
      </trkpt>
      <trkpt lat="45.80873" lon="4.54958">
        <ele>449.07</ele>
        <time>2013-01-19T13:53:18Z</time>
      </trkpt>
      <trkpt lat="45.80863" lon="4.54974">
        <ele>450.52</ele>
        <time>2013-01-19T13:53:29Z</time>
      </trkpt>
      <trkpt lat="45.80856" lon="4.54989">
        <ele>450.52</ele>
        <time>2013-01-19T13:53:40Z</time>
      </trkpt>
      <trkpt lat="45.80849" lon="4.55008">
        <ele>451.48</ele>
        <time>2013-01-19T13:53:53Z</time>
      </trkpt>
      <trkpt lat="45.80842" lon="4.55023">
        <ele>453.4</ele>
        <time>2013-01-19T13:54:02Z</time>
      </trkpt>
      <trkpt lat="45.80833" lon="4.55046">
        <ele>455.8</ele>
        <time>2013-01-19T13:54:16Z</time>
      </trkpt>
      <trkpt lat="45.80832" lon="4.55047">
        <ele>456.28</ele>
        <time>2013-01-19T13:54:17Z</time>
      </trkpt>
      <trkpt lat="45.80823" lon="4.55056">
        <ele>461.57</ele>
        <time>2013-01-19T13:54:27Z</time>
      </trkpt>
      <trkpt lat="45.80819" lon="4.55063">
        <ele>463.97</ele>
        <time>2013-01-19T13:54:42Z</time>
      </trkpt>
      <trkpt lat="45.80813" lon="4.55074">
        <ele>465.42</ele>
        <time>2013-01-19T13:54:49Z</time>
      </trkpt>
      <trkpt lat="45.80799" lon="4.55109">
        <ele>468.3</ele>
        <time>2013-01-19T13:55:06Z</time>
      </trkpt>
      <trkpt lat="45.80782" lon="4.55133">
        <ele>468.78</ele>
        <time>2013-01-19T13:55:20Z</time>
      </trkpt>
      <trkpt lat="45.80759" lon="4.55173">
        <ele>467.82</ele>
        <time>2013-01-19T13:55:33Z</time>
      </trkpt>
      <trkpt lat="45.8074" lon="4.55212">
        <ele>463.97</ele>
        <time>2013-01-19T13:55:45Z</time>
      </trkpt>
      <trkpt lat="45.80714" lon="4.55247">
        <ele>459.65</ele>
        <time>2013-01-19T13:55:57Z</time>
      </trkpt>
      <trkpt lat="45.80695" lon="4.55291">
        <ele>451.96</ele>
        <time>2013-01-19T13:56:10Z</time>
      </trkpt>
      <trkpt lat="45.80675" lon="4.55328">
        <ele>443.79</ele>
        <time>2013-01-19T13:56:22Z</time>
      </trkpt>
      <trkpt lat="45.80655" lon="4.55373">
        <ele>436.1</ele>
        <time>2013-01-19T13:56:34Z</time>
      </trkpt>
      <trkpt lat="45.80634" lon="4.55424">
        <ele>426</ele>
        <time>2013-01-19T13:56:48Z</time>
      </trkpt>
      <trkpt lat="45.80621" lon="4.55468">
        <ele>420.23</ele>
        <time>2013-01-19T13:57:00Z</time>
      </trkpt>
      <trkpt lat="45.80613" lon="4.55509">
        <ele>415.91</ele>
        <time>2013-01-19T13:57:12Z</time>
      </trkpt>
      <trkpt lat="45.80609" lon="4.55555">
        <ele>412.54</ele>
        <time>2013-01-19T13:57:24Z</time>
      </trkpt>
      <trkpt lat="45.80601" lon="4.55596">
        <ele>411.58</ele>
        <time>2013-01-19T13:57:35Z</time>
      </trkpt>
      <trkpt lat="45.80592" lon="4.55648">
        <ele>410.62</ele>
        <time>2013-01-19T13:57:50Z</time>
      </trkpt>
      <trkpt lat="45.80585" lon="4.55693">
        <ele>410.62</ele>
        <time>2013-01-19T13:58:02Z</time>
      </trkpt>
      <trkpt lat="45.80571" lon="4.55737">
        <ele>411.58</ele>
        <time>2013-01-19T13:58:14Z</time>
      </trkpt>
      <trkpt lat="45.80556" lon="4.55782">
        <ele>411.1</ele>
        <time>2013-01-19T13:58:27Z</time>
      </trkpt>
      <trkpt lat="45.80544" lon="4.5582">
        <ele>411.1</ele>
        <time>2013-01-19T13:58:37Z</time>
      </trkpt>
      <trkpt lat="45.8053" lon="4.55872">
        <ele>411.1</ele>
        <time>2013-01-19T13:58:51Z</time>
      </trkpt>
      <trkpt lat="45.80517" lon="4.55919">
        <ele>410.14</ele>
        <time>2013-01-19T13:59:04Z</time>
      </trkpt>
      <trkpt lat="45.80513" lon="4.55965">
        <ele>409.18</ele>
        <time>2013-01-19T13:59:16Z</time>
      </trkpt>
      <trkpt lat="45.80508" lon="4.56007">
        <ele>407.74</ele>
        <time>2013-01-19T13:59:27Z</time>
      </trkpt>
      <trkpt lat="45.80503" lon="4.56056">
        <ele>406.29</ele>
        <time>2013-01-19T13:59:39Z</time>
      </trkpt>
      <trkpt lat="45.80504" lon="4.5609">
        <ele>404.85</ele>
        <time>2013-01-19T13:59:50Z</time>
      </trkpt>
      <trkpt lat="45.80514" lon="4.56092">
        <ele>404.37</ele>
        <time>2013-01-19T13:59:54Z</time>
      </trkpt>
      <trkpt lat="45.80549" lon="4.56101">
        <ele>403.89</ele>
        <time>2013-01-19T14:00:07Z</time>
      </trkpt>
      <trkpt lat="45.80587" lon="4.56111">
        <ele>402.93</ele>
        <time>2013-01-19T14:00:22Z</time>
      </trkpt>
      <trkpt lat="45.80627" lon="4.56121">
        <ele>401.49</ele>
        <time>2013-01-19T14:00:38Z</time>
      </trkpt>
      <trkpt lat="45.80661" lon="4.56141">
        <ele>400.05</ele>
        <time>2013-01-19T14:00:54Z</time>
      </trkpt>
      <trkpt lat="45.80689" lon="4.56188">
        <ele>392.36</ele>
        <time>2013-01-19T14:01:11Z</time>
      </trkpt>
      <trkpt lat="45.80726" lon="4.5622">
        <ele>383.7</ele>
        <time>2013-01-19T14:01:27Z</time>
      </trkpt>
      <trkpt lat="45.80742" lon="4.56251">
        <ele>375.05</ele>
        <time>2013-01-19T14:01:42Z</time>
      </trkpt>
      <trkpt lat="45.80742" lon="4.56252">
        <ele>373.61</ele>
        <time>2013-01-19T14:01:45Z</time>
      </trkpt>
      <trkpt lat="45.80762" lon="4.56292">
        <ele>365.92</ele>
        <time>2013-01-19T14:02:00Z</time>
      </trkpt>
      <trkpt lat="45.8078" lon="4.56327">
        <ele>357.75</ele>
        <time>2013-01-19T14:02:14Z</time>
      </trkpt>
      <trkpt lat="45.80796" lon="4.56379">
        <ele>351.98</ele>
        <time>2013-01-19T14:02:28Z</time>
      </trkpt>
      <trkpt lat="45.80812" lon="4.56416">
        <ele>349.58</ele>
        <time>2013-01-19T14:02:39Z</time>
      </trkpt>
      <trkpt lat="45.80818" lon="4.56446">
        <ele>344.77</ele>
        <time>2013-01-19T14:02:50Z</time>
      </trkpt>
      <trkpt lat="45.80818" lon="4.56449">
        <ele>344.29</ele>
        <time>2013-01-19T14:02:51Z</time>
      </trkpt>
      <trkpt lat="45.80827" lon="4.56462">
        <ele>343.33</ele>
        <time>2013-01-19T14:02:55Z</time>
      </trkpt>
      <trkpt lat="45.80856" lon="4.56489">
        <ele>342.85</ele>
        <time>2013-01-19T14:03:10Z</time>
      </trkpt>
      <trkpt lat="45.80856" lon="4.56489">
        <ele>347.65</ele>
        <time>2013-01-19T14:03:24Z</time>
      </trkpt>
      <trkpt lat="45.80855" lon="4.56489">
        <ele>349.1</ele>
        <time>2013-01-19T14:03:44Z</time>
      </trkpt>
      <trkpt lat="45.80868" lon="4.56501">
        <ele>348.62</ele>
        <time>2013-01-19T14:04:00Z</time>
      </trkpt>
      <trkpt lat="45.80906" lon="4.56534">
        <ele>345.25</ele>
        <time>2013-01-19T14:04:18Z</time>
      </trkpt>
      <trkpt lat="45.80946" lon="4.56558">
        <ele>341.89</ele>
        <time>2013-01-19T14:04:34Z</time>
      </trkpt>
      <trkpt lat="45.80981" lon="4.56579">
        <ele>340.44</ele>
        <time>2013-01-19T14:04:48Z</time>
      </trkpt>
      <trkpt lat="45.81015" lon="4.56596">
        <ele>334.2</ele>
        <time>2013-01-19T14:05:02Z</time>
      </trkpt>
      <trkpt lat="45.81045" lon="4.56613">
        <ele>326.02</ele>
        <time>2013-01-19T14:05:16Z</time>
      </trkpt>
      <trkpt lat="45.8108" lon="4.5664">
        <ele>317.85</ele>
        <time>2013-01-19T14:05:34Z</time>
      </trkpt>
      <trkpt lat="45.81107" lon="4.56667">
        <ele>312.57</ele>
        <time>2013-01-19T14:05:49Z</time>
      </trkpt>
      <trkpt lat="45.81108" lon="4.56669">
        <ele>311.6</ele>
        <time>2013-01-19T14:05:51Z</time>
      </trkpt>
      <trkpt lat="45.81135" lon="4.5669">
        <ele>303.43</ele>
        <time>2013-01-19T14:06:08Z</time>
      </trkpt>
      <trkpt lat="45.81172" lon="4.56702">
        <ele>293.82</ele>
        <time>2013-01-19T14:06:24Z</time>
      </trkpt>
      <trkpt lat="45.81221" lon="4.56707">
        <ele>289.49</ele>
        <time>2013-01-19T14:06:39Z</time>
      </trkpt>
      <trkpt lat="45.81246" lon="4.5674">
        <ele>284.69</ele>
        <time>2013-01-19T14:06:54Z</time>
      </trkpt>
      <trkpt lat="45.81246" lon="4.56743">
        <ele>284.69</ele>
        <time>2013-01-19T14:06:55Z</time>
      </trkpt>
      <trkpt lat="45.81257" lon="4.56791">
        <ele>276.52</ele>
        <time>2013-01-19T14:07:11Z</time>
      </trkpt>
      <trkpt lat="45.81255" lon="4.56808">
        <ele>275.56</ele>
        <time>2013-01-19T14:07:17Z</time>
      </trkpt>
      <trkpt lat="45.81254" lon="4.56828">
        <ele>275.56</ele>
        <time>2013-01-19T14:07:22Z</time>
      </trkpt>
      <trkpt lat="45.81255" lon="4.56838">
        <ele>277</ele>
        <time>2013-01-19T14:07:25Z</time>
      </trkpt>
      <trkpt lat="45.81259" lon="4.56864">
        <ele>281.32</ele>
        <time>2013-01-19T14:07:37Z</time>
      </trkpt>
      <trkpt lat="45.81245" lon="4.56897">
        <ele>284.21</ele>
        <time>2013-01-19T14:07:50Z</time>
      </trkpt>
      <trkpt lat="45.81233" lon="4.5692">
        <ele>280.84</ele>
        <time>2013-01-19T14:08:01Z</time>
      </trkpt>
      <trkpt lat="45.81221" lon="4.56957">
        <ele>277.96</ele>
        <time>2013-01-19T14:08:13Z</time>
      </trkpt>
      <trkpt lat="45.81217" lon="4.57012">
        <ele>276.04</ele>
        <time>2013-01-19T14:08:29Z</time>
      </trkpt>
      <trkpt lat="45.8123" lon="4.57072">
        <ele>272.19</ele>
        <time>2013-01-19T14:08:47Z</time>
      </trkpt>
      <trkpt lat="45.81245" lon="4.57112">
        <ele>268.83</ele>
        <time>2013-01-19T14:09:02Z</time>
      </trkpt>
      <trkpt lat="45.81263" lon="4.57176">
        <ele>268.35</ele>
        <time>2013-01-19T14:09:19Z</time>
      </trkpt>
      <trkpt lat="45.81263" lon="4.57222">
        <ele>269.79</ele>
        <time>2013-01-19T14:09:33Z</time>
      </trkpt>
      <trkpt lat="45.8127" lon="4.57281">
        <ele>273.63</ele>
        <time>2013-01-19T14:09:46Z</time>
      </trkpt>
      <trkpt lat="45.81291" lon="4.57322">
        <ele>267.86</ele>
        <time>2013-01-19T14:09:59Z</time>
      </trkpt>
      <trkpt lat="45.81323" lon="4.57364">
        <ele>264.98</ele>
        <time>2013-01-19T14:10:16Z</time>
      </trkpt>
      <trkpt lat="45.81355" lon="4.57396">
        <ele>261.14</ele>
        <time>2013-01-19T14:10:32Z</time>
      </trkpt>
      <trkpt lat="45.81366" lon="4.57436">
        <ele>257.77</ele>
        <time>2013-01-19T14:10:44Z</time>
      </trkpt>
      <trkpt lat="45.81372" lon="4.57489">
        <ele>257.77</ele>
        <time>2013-01-19T14:10:58Z</time>
      </trkpt>
      <trkpt lat="45.81399" lon="4.57514">
        <ele>253.44</ele>
        <time>2013-01-19T14:11:12Z</time>
      </trkpt>
      <trkpt lat="45.81405" lon="4.57525">
        <ele>251.52</ele>
        <time>2013-01-19T14:11:17Z</time>
      </trkpt>
      <trkpt lat="45.81406" lon="4.57543">
        <ele>259.69</ele>
        <time>2013-01-19T14:11:31Z</time>
      </trkpt>
      <trkpt lat="45.81407" lon="4.57549">
        <ele>267.86</ele>
        <time>2013-01-19T14:11:45Z</time>
      </trkpt>
      <trkpt lat="45.81421" lon="4.5755">
        <ele>269.31</ele>
        <time>2013-01-19T14:11:57Z</time>
      </trkpt>
      <trkpt lat="45.81434" lon="4.57537">
        <ele>271.71</ele>
        <time>2013-01-19T14:12:08Z</time>
      </trkpt>
      <trkpt lat="45.81449" lon="4.57532">
        <ele>274.11</ele>
        <time>2013-01-19T14:12:21Z</time>
      </trkpt>
      <trkpt lat="45.81451" lon="4.57532">
        <ele>274.59</ele>
        <time>2013-01-19T14:12:22Z</time>
      </trkpt>
      <trkpt lat="45.81467" lon="4.57534">
        <ele>281.32</ele>
        <time>2013-01-19T14:12:34Z</time>
      </trkpt>
      <trkpt lat="45.81472" lon="4.57535">
        <ele>283.25</ele>
        <time>2013-01-19T14:12:38Z</time>
      </trkpt>
      <trkpt lat="45.81498" lon="4.57528">
        <ele>289.97</ele>
        <time>2013-01-19T14:12:57Z</time>
      </trkpt>
      <trkpt lat="45.81505" lon="4.57528">
        <ele>291.42</ele>
        <time>2013-01-19T14:13:03Z</time>
      </trkpt>
      <trkpt lat="45.81535" lon="4.57513">
        <ele>293.82</ele>
        <time>2013-01-19T14:13:22Z</time>
      </trkpt>
      <trkpt lat="45.81542" lon="4.57504">
        <ele>291.9</ele>
        <time>2013-01-19T14:13:28Z</time>
      </trkpt>
      <trkpt lat="45.81546" lon="4.57502">
        <ele>290.46</ele>
        <time>2013-01-19T14:13:32Z</time>
      </trkpt>
      <trkpt lat="45.81548" lon="4.57499">
        <ele>291.42</ele>
        <time>2013-01-19T14:13:35Z</time>
      </trkpt>
      <trkpt lat="45.8156" lon="4.57478">
        <ele>293.82</ele>
        <time>2013-01-19T14:13:48Z</time>
      </trkpt>
      <trkpt lat="45.81566" lon="4.57473">
        <ele>293.34</ele>
        <time>2013-01-19T14:13:56Z</time>
      </trkpt>
      <trkpt lat="45.81569" lon="4.57471">
        <ele>293.82</ele>
        <time>2013-01-19T14:13:59Z</time>
      </trkpt>
      <trkpt lat="45.81572" lon="4.57469">
        <ele>294.3</ele>
        <time>2013-01-19T14:14:02Z</time>
      </trkpt>
      <trkpt lat="45.81583" lon="4.57471">
        <ele>298.63</ele>
        <time>2013-01-19T14:14:16Z</time>
      </trkpt>
      <trkpt lat="45.81601" lon="4.57479">
        <ele>300.55</ele>
        <time>2013-01-19T14:14:28Z</time>
      </trkpt>
      <trkpt lat="45.81636" lon="4.57488">
        <ele>303.91</ele>
        <time>2013-01-19T14:14:41Z</time>
      </trkpt>
      <trkpt lat="45.81661" lon="4.575">
        <ele>305.84</ele>
        <time>2013-01-19T14:14:55Z</time>
      </trkpt>
      <trkpt lat="45.81695" lon="4.57505">
        <ele>305.36</ele>
        <time>2013-01-19T14:15:09Z</time>
      </trkpt>
      <trkpt lat="45.81715" lon="4.57508">
        <ele>302.47</ele>
        <time>2013-01-19T14:15:18Z</time>
      </trkpt>
      <trkpt lat="45.81718" lon="4.57527">
        <ele>299.59</ele>
        <time>2013-01-19T14:15:27Z</time>
      </trkpt>
      <trkpt lat="45.81734" lon="4.57536">
        <ele>294.3</ele>
        <time>2013-01-19T14:15:39Z</time>
      </trkpt>
      <trkpt lat="45.81743" lon="4.5754">
        <ele>293.34</ele>
        <time>2013-01-19T14:15:44Z</time>
      </trkpt>
      <trkpt lat="45.81757" lon="4.57576">
        <ele>291.42</ele>
        <time>2013-01-19T14:15:57Z</time>
      </trkpt>
      <trkpt lat="45.81764" lon="4.57581">
        <ele>291.42</ele>
        <time>2013-01-19T14:16:00Z</time>
      </trkpt>
      <trkpt lat="45.81805" lon="4.57598">
        <ele>290.46</ele>
        <time>2013-01-19T14:16:16Z</time>
      </trkpt>
      <trkpt lat="45.81836" lon="4.57634">
        <ele>288.05</ele>
        <time>2013-01-19T14:16:31Z</time>
      </trkpt>
      <trkpt lat="45.81853" lon="4.57651">
        <ele>287.57</ele>
        <time>2013-01-19T14:16:39Z</time>
      </trkpt>
      <trkpt lat="45.8187" lon="4.57666">
        <ele>286.61</ele>
        <time>2013-01-19T14:16:48Z</time>
      </trkpt>
      <trkpt lat="45.81871" lon="4.57677">
        <ele>286.61</ele>
        <time>2013-01-19T14:16:53Z</time>
      </trkpt>
      <trkpt lat="45.81866" lon="4.57693">
        <ele>286.61</ele>
        <time>2013-01-19T14:16:59Z</time>
      </trkpt>
      <trkpt lat="45.81858" lon="4.57733">
        <ele>288.53</ele>
        <time>2013-01-19T14:17:12Z</time>
      </trkpt>
      <trkpt lat="45.8185" lon="4.57779">
        <ele>290.46</ele>
        <time>2013-01-19T14:17:25Z</time>
      </trkpt>
      <trkpt lat="45.81858" lon="4.57814">
        <ele>289.49</ele>
        <time>2013-01-19T14:17:36Z</time>
      </trkpt>
      <trkpt lat="45.81859" lon="4.57862">
        <ele>288.05</ele>
        <time>2013-01-19T14:17:50Z</time>
      </trkpt>
      <trkpt lat="45.8185" lon="4.57896">
        <ele>287.09</ele>
        <time>2013-01-19T14:18:02Z</time>
      </trkpt>
      <trkpt lat="45.81851" lon="4.57903">
        <ele>286.61</ele>
        <time>2013-01-19T14:18:05Z</time>
      </trkpt>
      <trkpt lat="45.81861" lon="4.57941">
        <ele>288.05</ele>
        <time>2013-01-19T14:18:21Z</time>
      </trkpt>
      <trkpt lat="45.81866" lon="4.5796">
        <ele>289.01</ele>
        <time>2013-01-19T14:18:31Z</time>
      </trkpt>
      <trkpt lat="45.81871" lon="4.57983">
        <ele>289.49</ele>
        <time>2013-01-19T14:18:47Z</time>
      </trkpt>
      <trkpt lat="45.81879" lon="4.58018">
        <ele>290.46</ele>
        <time>2013-01-19T14:19:05Z</time>
      </trkpt>
      <trkpt lat="45.81884" lon="4.58053">
        <ele>295.26</ele>
        <time>2013-01-19T14:19:25Z</time>
      </trkpt>
      <trkpt lat="45.81889" lon="4.58069">
        <ele>300.07</ele>
        <time>2013-01-19T14:19:41Z</time>
      </trkpt>
      <trkpt lat="45.81893" lon="4.58087">
        <ele>304.88</ele>
        <time>2013-01-19T14:19:56Z</time>
      </trkpt>
      <trkpt lat="45.81898" lon="4.58113">
        <ele>312.09</ele>
        <time>2013-01-19T14:20:13Z</time>
      </trkpt>
      <trkpt lat="45.81912" lon="4.58148">
        <ele>319.3</ele>
        <time>2013-01-19T14:20:34Z</time>
      </trkpt>
      <trkpt lat="45.81922" lon="4.58177">
        <ele>321.22</ele>
        <time>2013-01-19T14:20:51Z</time>
      </trkpt>
      <trkpt lat="45.81929" lon="4.58193">
        <ele>322.18</ele>
        <time>2013-01-19T14:21:03Z</time>
      </trkpt>
      <trkpt lat="45.8193" lon="4.58205">
        <ele>323.14</ele>
        <time>2013-01-19T14:21:09Z</time>
      </trkpt>
      <trkpt lat="45.81945" lon="4.58239">
        <ele>323.62</ele>
        <time>2013-01-19T14:21:25Z</time>
      </trkpt>
      <trkpt lat="45.81948" lon="4.58263">
        <ele>325.06</ele>
        <time>2013-01-19T14:21:39Z</time>
      </trkpt>
      <trkpt lat="45.81946" lon="4.58265">
        <ele>325.54</ele>
        <time>2013-01-19T14:21:44Z</time>
      </trkpt>
      <trkpt lat="45.81954" lon="4.58264">
        <ele>326.5</ele>
        <time>2013-01-19T14:21:51Z</time>
      </trkpt>
      <trkpt lat="45.81956" lon="4.58274">
        <ele>325.54</ele>
        <time>2013-01-19T14:21:55Z</time>
      </trkpt>
      <trkpt lat="45.81945" lon="4.58325">
        <ele>324.58</ele>
        <time>2013-01-19T14:22:11Z</time>
      </trkpt>
      <trkpt lat="45.81939" lon="4.58363">
        <ele>325.06</ele>
        <time>2013-01-19T14:22:22Z</time>
      </trkpt>
      <trkpt lat="45.81932" lon="4.58409">
        <ele>325.54</ele>
        <time>2013-01-19T14:22:36Z</time>
      </trkpt>
      <trkpt lat="45.81921" lon="4.58456">
        <ele>325.06</ele>
        <time>2013-01-19T14:22:49Z</time>
      </trkpt>
      <trkpt lat="45.81902" lon="4.585">
        <ele>322.18</ele>
        <time>2013-01-19T14:23:06Z</time>
      </trkpt>
      <trkpt lat="45.81879" lon="4.58556">
        <ele>319.3</ele>
        <time>2013-01-19T14:23:21Z</time>
      </trkpt>
      <trkpt lat="45.81863" lon="4.58594">
        <ele>319.3</ele>
        <time>2013-01-19T14:23:32Z</time>
      </trkpt>
      <trkpt lat="45.81843" lon="4.5864">
        <ele>317.85</ele>
        <time>2013-01-19T14:23:45Z</time>
      </trkpt>
      <trkpt lat="45.81824" lon="4.58679">
        <ele>314.97</ele>
        <time>2013-01-19T14:23:58Z</time>
      </trkpt>
      <trkpt lat="45.81802" lon="4.58726">
        <ele>314.49</ele>
        <time>2013-01-19T14:24:13Z</time>
      </trkpt>
      <trkpt lat="45.81787" lon="4.58761">
        <ele>311.6</ele>
        <time>2013-01-19T14:24:25Z</time>
      </trkpt>
      <trkpt lat="45.81767" lon="4.58805">
        <ele>308.72</ele>
        <time>2013-01-19T14:24:39Z</time>
      </trkpt>
      <trkpt lat="45.81744" lon="4.58846">
        <ele>305.84</ele>
        <time>2013-01-19T14:24:55Z</time>
      </trkpt>
      <trkpt lat="45.81719" lon="4.58896">
        <ele>305.36</ele>
        <time>2013-01-19T14:25:11Z</time>
      </trkpt>
      <trkpt lat="45.8169" lon="4.58944">
        <ele>304.39</ele>
        <time>2013-01-19T14:25:28Z</time>
      </trkpt>
      <trkpt lat="45.81666" lon="4.58983">
        <ele>303.43</ele>
        <time>2013-01-19T14:25:42Z</time>
      </trkpt>
      <trkpt lat="45.81649" lon="4.59016">
        <ele>302.47</ele>
        <time>2013-01-19T14:25:54Z</time>
      </trkpt>
      <trkpt lat="45.81632" lon="4.59059">
        <ele>302.95</ele>
        <time>2013-01-19T14:26:09Z</time>
      </trkpt>
      <trkpt lat="45.81611" lon="4.59097">
        <ele>302.47</ele>
        <time>2013-01-19T14:26:23Z</time>
      </trkpt>
      <trkpt lat="45.81581" lon="4.59143">
        <ele>302.95</ele>
        <time>2013-01-19T14:26:41Z</time>
      </trkpt>
      <trkpt lat="45.81548" lon="4.59187">
        <ele>301.51</ele>
        <time>2013-01-19T14:26:59Z</time>
      </trkpt>
      <trkpt lat="45.81524" lon="4.59234">
        <ele>299.59</ele>
        <time>2013-01-19T14:27:15Z</time>
      </trkpt>
      <trkpt lat="45.81518" lon="4.59249">
        <ele>299.59</ele>
        <time>2013-01-19T14:27:27Z</time>
      </trkpt>
      <trkpt lat="45.81517" lon="4.5925">
        <ele>299.59</ele>
        <time>2013-01-19T14:27:37Z</time>
      </trkpt>
      <trkpt lat="45.81489" lon="4.5929">
        <ele>299.59</ele>
        <time>2013-01-19T14:27:54Z</time>
      </trkpt>
      <trkpt lat="45.81466" lon="4.59342">
        <ele>301.51</ele>
        <time>2013-01-19T14:28:11Z</time>
      </trkpt>
      <trkpt lat="45.81458" lon="4.59395">
        <ele>302.95</ele>
        <time>2013-01-19T14:28:26Z</time>
      </trkpt>
      <trkpt lat="45.81449" lon="4.59443">
        <ele>304.39</ele>
        <time>2013-01-19T14:28:40Z</time>
      </trkpt>
      <trkpt lat="45.81434" lon="4.59474">
        <ele>302.47</ele>
        <time>2013-01-19T14:28:52Z</time>
      </trkpt>
      <trkpt lat="45.81421" lon="4.59509">
        <ele>300.07</ele>
        <time>2013-01-19T14:29:05Z</time>
      </trkpt>
      <trkpt lat="45.81408" lon="4.59548">
        <ele>296.22</ele>
        <time>2013-01-19T14:29:18Z</time>
      </trkpt>
      <trkpt lat="45.81387" lon="4.59593">
        <ele>290.94</ele>
        <time>2013-01-19T14:29:34Z</time>
      </trkpt>
      <trkpt lat="45.81368" lon="4.59638">
        <ele>288.05</ele>
        <time>2013-01-19T14:29:49Z</time>
      </trkpt>
      <trkpt lat="45.8135" lon="4.59687">
        <ele>287.09</ele>
        <time>2013-01-19T14:30:04Z</time>
      </trkpt>
      <trkpt lat="45.81337" lon="4.59734">
        <ele>288.53</ele>
        <time>2013-01-19T14:30:17Z</time>
      </trkpt>
      <trkpt lat="45.81331" lon="4.59782">
        <ele>288.05</ele>
        <time>2013-01-19T14:30:30Z</time>
      </trkpt>
      <trkpt lat="45.81324" lon="4.59834">
        <ele>287.09</ele>
        <time>2013-01-19T14:30:46Z</time>
      </trkpt>
      <trkpt lat="45.8131" lon="4.59846">
        <ele>285.65</ele>
        <time>2013-01-19T14:30:58Z</time>
      </trkpt>
      <trkpt lat="45.81306" lon="4.59846">
        <ele>285.17</ele>
        <time>2013-01-19T14:31:00Z</time>
      </trkpt>
      <trkpt lat="45.81297" lon="4.59832">
        <ele>283.25</ele>
        <time>2013-01-19T14:31:07Z</time>
      </trkpt>
      <trkpt lat="45.81289" lon="4.598">
        <ele>280.84</ele>
        <time>2013-01-19T14:31:17Z</time>
      </trkpt>
      <trkpt lat="45.81274" lon="4.598">
        <ele>279.88</ele>
        <time>2013-01-19T14:31:23Z</time>
      </trkpt>
      <trkpt lat="45.81241" lon="4.59821">
        <ele>275.07</ele>
        <time>2013-01-19T14:31:39Z</time>
      </trkpt>
      <trkpt lat="45.81207" lon="4.59815">
        <ele>270.27</ele>
        <time>2013-01-19T14:31:54Z</time>
      </trkpt>
      <trkpt lat="45.81177" lon="4.59811">
        <ele>267.38</ele>
        <time>2013-01-19T14:32:07Z</time>
      </trkpt>
      <trkpt lat="45.81143" lon="4.59834">
        <ele>264.02</ele>
        <time>2013-01-19T14:32:24Z</time>
      </trkpt>
      <trkpt lat="45.81139" lon="4.59842">
        <ele>262.58</ele>
        <time>2013-01-19T14:32:29Z</time>
      </trkpt>
      <trkpt lat="45.81113" lon="4.59816">
        <ele>258.73</ele>
        <time>2013-01-19T14:32:47Z</time>
      </trkpt>
      <trkpt lat="45.81111" lon="4.59814">
        <ele>258.73</ele>
        <time>2013-01-19T14:32:49Z</time>
      </trkpt>
      <trkpt lat="45.81107" lon="4.59813">
        <ele>258.73</ele>
        <time>2013-01-19T14:32:52Z</time>
      </trkpt>
      <trkpt lat="45.81105" lon="4.59824">
        <ele>256.81</ele>
        <time>2013-01-19T14:32:58Z</time>
      </trkpt>
      <trkpt lat="45.81108" lon="4.59842">
        <ele>254.41</ele>
        <time>2013-01-19T14:33:04Z</time>
      </trkpt>
      <trkpt lat="45.81097" lon="4.59841">
        <ele>252.48</ele>
        <time>2013-01-19T14:33:11Z</time>
      </trkpt>
      <trkpt lat="45.81077" lon="4.59796">
        <ele>247.68</ele>
        <time>2013-01-19T14:33:27Z</time>
      </trkpt>
      <trkpt lat="45.81069" lon="4.59776">
        <ele>245.27</ele>
        <time>2013-01-19T14:33:34Z</time>
      </trkpt>
      <trkpt lat="45.81062" lon="4.5977">
        <ele>243.83</ele>
        <time>2013-01-19T14:33:39Z</time>
      </trkpt>
      <trkpt lat="45.81057" lon="4.59763">
        <ele>244.79</ele>
        <time>2013-01-19T14:33:48Z</time>
      </trkpt>
      <trkpt lat="45.81051" lon="4.59767">
        <ele>244.31</ele>
        <time>2013-01-19T14:34:01Z</time>
      </trkpt>
      <trkpt lat="45.8105" lon="4.59769">
        <ele>244.79</ele>
        <time>2013-01-19T14:34:12Z</time>
      </trkpt>
      <trkpt lat="45.81046" lon="4.59796">
        <ele>239.51</ele>
        <time>2013-01-19T14:34:27Z</time>
      </trkpt>
      <trkpt lat="45.81046" lon="4.59797">
        <ele>239.02</ele>
        <time>2013-01-19T14:34:28Z</time>
      </trkpt>
      <trkpt lat="45.81044" lon="4.59818">
        <ele>238.54</ele>
        <time>2013-01-19T14:34:38Z</time>
      </trkpt>
      <trkpt lat="45.81043" lon="4.59824">
        <ele>238.54</ele>
        <time>2013-01-19T14:34:41Z</time>
      </trkpt>
      <trkpt lat="45.81046" lon="4.59836">
        <ele>238.54</ele>
        <time>2013-01-19T14:34:46Z</time>
      </trkpt>
      <trkpt lat="45.8105" lon="4.59843">
        <ele>239.51</ele>
        <time>2013-01-19T14:34:50Z</time>
      </trkpt>
      <trkpt lat="45.81053" lon="4.59855">
        <ele>239.51</ele>
        <time>2013-01-19T14:34:56Z</time>
      </trkpt>
      <trkpt lat="45.81053" lon="4.59861">
        <ele>239.99</ele>
        <time>2013-01-19T14:34:59Z</time>
      </trkpt>
      <trkpt lat="45.81058" lon="4.59872">
        <ele>239.99</ele>
        <time>2013-01-19T14:35:04Z</time>
      </trkpt>
      <trkpt lat="45.81069" lon="4.59891">
        <ele>240.47</ele>
        <time>2013-01-19T14:35:13Z</time>
      </trkpt>
      <trkpt lat="45.81098" lon="4.5994">
        <ele>238.54</ele>
        <time>2013-01-19T14:35:29Z</time>
      </trkpt>
      <trkpt lat="45.81104" lon="4.59955">
        <ele>235.66</ele>
        <time>2013-01-19T14:35:36Z</time>
      </trkpt>
      <trkpt lat="45.81112" lon="4.59956">
        <ele>235.66</ele>
        <time>2013-01-19T14:35:41Z</time>
      </trkpt>
      <trkpt lat="45.81135" lon="4.59964">
        <ele>233.26</ele>
        <time>2013-01-19T14:35:57Z</time>
      </trkpt>
      <trkpt lat="45.81137" lon="4.59969">
        <ele>231.81</ele>
        <time>2013-01-19T14:36:02Z</time>
      </trkpt>
      <trkpt lat="45.81121" lon="4.59982">
        <ele>231.81</ele>
        <time>2013-01-19T14:36:10Z</time>
      </trkpt>
      <trkpt lat="45.81119" lon="4.60011">
        <ele>232.3</ele>
        <time>2013-01-19T14:36:17Z</time>
      </trkpt>
      <trkpt lat="45.81126" lon="4.6002">
        <ele>232.3</ele>
        <time>2013-01-19T14:36:21Z</time>
      </trkpt>
      <trkpt lat="45.81157" lon="4.60048">
        <ele>228.93</ele>
        <time>2013-01-19T14:36:36Z</time>
      </trkpt>
      <trkpt lat="45.81195" lon="4.60083">
        <ele>226.05</ele>
        <time>2013-01-19T14:36:53Z</time>
      </trkpt>
      <trkpt lat="45.81227" lon="4.6012">
        <ele>224.61</ele>
        <time>2013-01-19T14:37:10Z</time>
      </trkpt>
      <trkpt lat="45.81245" lon="4.60162">
        <ele>225.57</ele>
        <time>2013-01-19T14:37:23Z</time>
      </trkpt>
      <trkpt lat="45.81268" lon="4.60202">
        <ele>227.49</ele>
        <time>2013-01-19T14:37:37Z</time>
      </trkpt>
      <trkpt lat="45.81297" lon="4.60236">
        <ele>224.61</ele>
        <time>2013-01-19T14:37:52Z</time>
      </trkpt>
      <trkpt lat="45.81322" lon="4.6027">
        <ele>222.68</ele>
        <time>2013-01-19T14:38:06Z</time>
      </trkpt>
      <trkpt lat="45.81351" lon="4.60313">
        <ele>221.24</ele>
        <time>2013-01-19T14:38:23Z</time>
      </trkpt>
      <trkpt lat="45.81378" lon="4.60351">
        <ele>222.2</ele>
        <time>2013-01-19T14:38:38Z</time>
      </trkpt>
      <trkpt lat="45.81399" lon="4.60391">
        <ele>222.2</ele>
        <time>2013-01-19T14:38:54Z</time>
      </trkpt>
      <trkpt lat="45.81408" lon="4.60411">
        <ele>225.57</ele>
        <time>2013-01-19T14:39:08Z</time>
      </trkpt>
      <trkpt lat="45.81408" lon="4.60411">
        <ele>225.57</ele>
        <time>2013-01-19T14:39:09Z</time>
      </trkpt>
      <trkpt lat="45.81396" lon="4.60384">
        <ele>230.37</ele>
        <time>2013-01-19T14:39:23Z</time>
      </trkpt>
      <trkpt lat="45.81387" lon="4.60363">
        <ele>231.81</ele>
        <time>2013-01-19T14:39:35Z</time>
      </trkpt>
      <trkpt lat="45.81375" lon="4.6034">
        <ele>233.26</ele>
        <time>2013-01-19T14:39:48Z</time>
      </trkpt>
      <trkpt lat="45.81366" lon="4.60322">
        <ele>236.14</ele>
        <time>2013-01-19T14:40:00Z</time>
      </trkpt>
      <trkpt lat="45.81356" lon="4.60302">
        <ele>239.99</ele>
        <time>2013-01-19T14:40:14Z</time>
      </trkpt>
      <trkpt lat="45.81339" lon="4.60276">
        <ele>243.35</ele>
        <time>2013-01-19T14:40:29Z</time>
      </trkpt>
      <trkpt lat="45.81318" lon="4.6025">
        <ele>244.79</ele>
        <time>2013-01-19T14:40:42Z</time>
      </trkpt>
      <trkpt lat="45.81296" lon="4.60231">
        <ele>245.27</ele>
        <time>2013-01-19T14:40:55Z</time>
      </trkpt>
      <trkpt lat="45.81294" lon="4.60232">
        <ele>244.79</ele>
        <time>2013-01-19T14:41:19Z</time>
      </trkpt>
      <trkpt lat="45.8129" lon="4.60229">
        <ele>242.39</ele>
        <time>2013-01-19T14:41:41Z</time>
      </trkpt>
      <trkpt lat="45.81287" lon="4.60222">
        <ele>241.43</ele>
        <time>2013-01-19T14:41:45Z</time>
      </trkpt>
      <trkpt lat="45.81282" lon="4.60215">
        <ele>240.95</ele>
        <time>2013-01-19T14:41:49Z</time>
      </trkpt>
      <trkpt lat="45.81255" lon="4.60185">
        <ele>239.99</ele>
        <time>2013-01-19T14:42:03Z</time>
      </trkpt>
      <trkpt lat="45.81249" lon="4.6018">
        <ele>241.43</ele>
        <time>2013-01-19T14:42:17Z</time>
      </trkpt>
      <trkpt lat="45.81249" lon="4.6018">
        <ele>241.91</ele>
        <time>2013-01-19T14:42:26Z</time>
      </trkpt>
      <trkpt lat="45.81241" lon="4.6016">
        <ele>240.47</ele>
        <time>2013-01-19T14:42:37Z</time>
      </trkpt>
      <trkpt lat="45.81228" lon="4.60134">
        <ele>240.95</ele>
        <time>2013-01-19T14:42:51Z</time>
      </trkpt>
      <trkpt lat="45.81211" lon="4.60108">
        <ele>241.91</ele>
        <time>2013-01-19T14:43:06Z</time>
      </trkpt>
      <trkpt lat="45.81182" lon="4.60077">
        <ele>239.02</ele>
        <time>2013-01-19T14:43:20Z</time>
      </trkpt>
      <trkpt lat="45.81153" lon="4.60043">
        <ele>238.54</ele>
        <time>2013-01-19T14:43:36Z</time>
      </trkpt>
      <trkpt lat="45.81127" lon="4.60033">
        <ele>239.02</ele>
        <time>2013-01-19T14:43:48Z</time>
      </trkpt>
      <trkpt lat="45.81125" lon="4.60032">
        <ele>239.02</ele>
        <time>2013-01-19T14:43:50Z</time>
      </trkpt>
      <trkpt lat="45.81121" lon="4.6004">
        <ele>239.51</ele>
        <time>2013-01-19T14:43:55Z</time>
      </trkpt>
      <trkpt lat="45.81103" lon="4.60066">
        <ele>239.02</ele>
        <time>2013-01-19T14:44:12Z</time>
      </trkpt>
      <trkpt lat="45.81095" lon="4.60075">
        <ele>238.06</ele>
        <time>2013-01-19T14:44:29Z</time>
      </trkpt>
      <trkpt lat="45.81095" lon="4.60075">
        <ele>239.02</ele>
        <time>2013-01-19T14:44:55Z</time>
      </trkpt>
      <trkpt lat="45.81088" lon="4.60088">
        <ele>238.06</ele>
        <time>2013-01-19T14:45:15Z</time>
      </trkpt>
      <trkpt lat="45.81077" lon="4.60102">
        <ele>237.58</ele>
        <time>2013-01-19T14:45:25Z</time>
      </trkpt>
      <trkpt lat="45.81071" lon="4.6011">
        <ele>237.1</ele>
        <time>2013-01-19T14:45:29Z</time>
      </trkpt>
      <trkpt lat="45.81061" lon="4.60123">
        <ele>237.58</ele>
        <time>2013-01-19T14:45:37Z</time>
      </trkpt>
      <trkpt lat="45.81056" lon="4.60122">
        <ele>238.06</ele>
        <time>2013-01-19T14:45:42Z</time>
      </trkpt>
      <trkpt lat="45.81053" lon="4.60122">
        <ele>238.06</ele>
        <time>2013-01-19T14:45:44Z</time>
      </trkpt>
      <trkpt lat="45.81051" lon="4.60124">
        <ele>238.54</ele>
        <time>2013-01-19T14:45:46Z</time>
      </trkpt>
      <trkpt lat="45.81035" lon="4.60147">
        <ele>242.87</ele>
        <time>2013-01-19T14:46:00Z</time>
      </trkpt>
      <trkpt lat="45.81018" lon="4.60159">
        <ele>245.75</ele>
        <time>2013-01-19T14:46:14Z</time>
      </trkpt>
      <trkpt lat="45.80994" lon="4.60175">
        <ele>249.6</ele>
        <time>2013-01-19T14:46:30Z</time>
      </trkpt>
      <trkpt lat="45.80978" lon="4.6018">
        <ele>251.52</ele>
        <time>2013-01-19T14:46:40Z</time>
      </trkpt>
      <trkpt lat="45.8097" lon="4.60184">
        <ele>252.48</ele>
        <time>2013-01-19T14:46:45Z</time>
      </trkpt>
      <trkpt lat="45.80945" lon="4.60199">
        <ele>255.85</ele>
        <time>2013-01-19T14:47:01Z</time>
      </trkpt>
      <trkpt lat="45.80944" lon="4.602">
        <ele>255.85</ele>
        <time>2013-01-19T14:47:02Z</time>
      </trkpt>
      <trkpt lat="45.80916" lon="4.60215">
        <ele>255.85</ele>
        <time>2013-01-19T14:47:20Z</time>
      </trkpt>
      <trkpt lat="45.80893" lon="4.60225">
        <ele>257.77</ele>
        <time>2013-01-19T14:47:35Z</time>
      </trkpt>
      <trkpt lat="45.80895" lon="4.60234">
        <ele>257.29</ele>
        <time>2013-01-19T14:47:39Z</time>
      </trkpt>
      <trkpt lat="45.80925" lon="4.6023">
        <ele>255.85</ele>
        <time>2013-01-19T14:47:55Z</time>
      </trkpt>
      <trkpt lat="45.80933" lon="4.60228">
        <ele>256.33</ele>
        <time>2013-01-19T14:48:00Z</time>
      </trkpt>
      <trkpt lat="45.80958" lon="4.60241">
        <ele>256.81</ele>
        <time>2013-01-19T14:48:17Z</time>
      </trkpt>
      <trkpt lat="45.80964" lon="4.60252">
        <ele>257.77</ele>
        <time>2013-01-19T14:48:24Z</time>
      </trkpt>
      <trkpt lat="45.80972" lon="4.60274">
        <ele>262.58</ele>
        <time>2013-01-19T14:48:36Z</time>
      </trkpt>
      <trkpt lat="45.80971" lon="4.60289">
        <ele>264.5</ele>
        <time>2013-01-19T14:48:43Z</time>
      </trkpt>
      <trkpt lat="45.80951" lon="4.60313">
        <ele>267.86</ele>
        <time>2013-01-19T14:49:00Z</time>
      </trkpt>
      <trkpt lat="45.80934" lon="4.60325">
        <ele>268.83</ele>
        <time>2013-01-19T14:49:13Z</time>
      </trkpt>
      <trkpt lat="45.80912" lon="4.60336">
        <ele>271.23</ele>
        <time>2013-01-19T14:49:30Z</time>
      </trkpt>
      <trkpt lat="45.80883" lon="4.60347">
        <ele>274.59</ele>
        <time>2013-01-19T14:49:48Z</time>
      </trkpt>
      <trkpt lat="45.80855" lon="4.60362">
        <ele>276.52</ele>
        <time>2013-01-19T14:50:06Z</time>
      </trkpt>
      <trkpt lat="45.80829" lon="4.60374">
        <ele>279.4</ele>
        <time>2013-01-19T14:50:23Z</time>
      </trkpt>
      <trkpt lat="45.80802" lon="4.60378">
        <ele>282.28</ele>
        <time>2013-01-19T14:50:41Z</time>
      </trkpt>
      <trkpt lat="45.80778" lon="4.60393">
        <ele>286.13</ele>
        <time>2013-01-19T14:50:58Z</time>
      </trkpt>
      <trkpt lat="45.80757" lon="4.60412">
        <ele>289.97</ele>
        <time>2013-01-19T14:51:15Z</time>
      </trkpt>
      <trkpt lat="45.80736" lon="4.60431">
        <ele>292.86</ele>
        <time>2013-01-19T14:51:32Z</time>
      </trkpt>
      <trkpt lat="45.80711" lon="4.60451">
        <ele>296.22</ele>
        <time>2013-01-19T14:51:50Z</time>
      </trkpt>
      <trkpt lat="45.80693" lon="4.60479">
        <ele>296.7</ele>
        <time>2013-01-19T14:52:05Z</time>
      </trkpt>
      <trkpt lat="45.80674" lon="4.60505">
        <ele>297.67</ele>
        <time>2013-01-19T14:52:21Z</time>
      </trkpt>
      <trkpt lat="45.80661" lon="4.60538">
        <ele>301.51</ele>
        <time>2013-01-19T14:52:39Z</time>
      </trkpt>
      <trkpt lat="45.80655" lon="4.60573">
        <ele>303.43</ele>
        <time>2013-01-19T14:52:56Z</time>
      </trkpt>
      <trkpt lat="45.80645" lon="4.60611">
        <ele>305.36</ele>
        <time>2013-01-19T14:53:16Z</time>
      </trkpt>
      <trkpt lat="45.80638" lon="4.60647">
        <ele>308.24</ele>
        <time>2013-01-19T14:53:36Z</time>
      </trkpt>
      <trkpt lat="45.80628" lon="4.60676">
        <ele>306.8</ele>
        <time>2013-01-19T14:53:52Z</time>
      </trkpt>
      <trkpt lat="45.80616" lon="4.60715">
        <ele>307.76</ele>
        <time>2013-01-19T14:54:08Z</time>
      </trkpt>
      <trkpt lat="45.80601" lon="4.60746">
        <ele>308.72</ele>
        <time>2013-01-19T14:54:21Z</time>
      </trkpt>
      <trkpt lat="45.80576" lon="4.60779">
        <ele>308.72</ele>
        <time>2013-01-19T14:54:35Z</time>
      </trkpt>
      <trkpt lat="45.80544" lon="4.60791">
        <ele>307.76</ele>
        <time>2013-01-19T14:54:51Z</time>
      </trkpt>
      <trkpt lat="45.80517" lon="4.60806">
        <ele>306.32</ele>
        <time>2013-01-19T14:55:05Z</time>
      </trkpt>
      <trkpt lat="45.80497" lon="4.60855">
        <ele>305.84</ele>
        <time>2013-01-19T14:55:21Z</time>
      </trkpt>
      <trkpt lat="45.80482" lon="4.60907">
        <ele>307.28</ele>
        <time>2013-01-19T14:55:36Z</time>
      </trkpt>
      <trkpt lat="45.80462" lon="4.60949">
        <ele>308.24</ele>
        <time>2013-01-19T14:55:51Z</time>
      </trkpt>
      <trkpt lat="45.80436" lon="4.60986">
        <ele>309.2</ele>
        <time>2013-01-19T14:56:06Z</time>
      </trkpt>
      <trkpt lat="45.80405" lon="4.61031">
        <ele>309.2</ele>
        <time>2013-01-19T14:56:23Z</time>
      </trkpt>
      <trkpt lat="45.80375" lon="4.61067">
        <ele>306.8</ele>
        <time>2013-01-19T14:56:39Z</time>
      </trkpt>
      <trkpt lat="45.80341" lon="4.61106">
        <ele>306.32</ele>
        <time>2013-01-19T14:56:54Z</time>
      </trkpt>
      <trkpt lat="45.80315" lon="4.61136">
        <ele>304.39</ele>
        <time>2013-01-19T14:57:09Z</time>
      </trkpt>
      <trkpt lat="45.80279" lon="4.61174">
        <ele>302.47</ele>
        <time>2013-01-19T14:57:26Z</time>
      </trkpt>
      <trkpt lat="45.80255" lon="4.61219">
        <ele>302.47</ele>
        <time>2013-01-19T14:57:41Z</time>
      </trkpt>
      <trkpt lat="45.80222" lon="4.61265">
        <ele>301.03</ele>
        <time>2013-01-19T14:57:58Z</time>
      </trkpt>
      <trkpt lat="45.80198" lon="4.61306">
        <ele>300.07</ele>
        <time>2013-01-19T14:58:13Z</time>
      </trkpt>
      <trkpt lat="45.80175" lon="4.61345">
        <ele>299.11</ele>
        <time>2013-01-19T14:58:28Z</time>
      </trkpt>
      <trkpt lat="45.80175" lon="4.6137">
        <ele>300.07</ele>
        <time>2013-01-19T14:58:36Z</time>
      </trkpt>
      <trkpt lat="45.8017" lon="4.61374">
        <ele>300.55</ele>
        <time>2013-01-19T14:58:40Z</time>
      </trkpt>
      <trkpt lat="45.80151" lon="4.6139">
        <ele>299.59</ele>
        <time>2013-01-19T14:58:55Z</time>
      </trkpt>
      <trkpt lat="45.80133" lon="4.61416">
        <ele>300.07</ele>
        <time>2013-01-19T14:59:09Z</time>
      </trkpt>
      <trkpt lat="45.8013" lon="4.61421">
        <ele>301.51</ele>
        <time>2013-01-19T14:59:12Z</time>
      </trkpt>
      <trkpt lat="45.80119" lon="4.61434">
        <ele>301.03</ele>
        <time>2013-01-19T14:59:24Z</time>
      </trkpt>
      <trkpt lat="45.80118" lon="4.61435">
        <ele>301.03</ele>
        <time>2013-01-19T14:59:25Z</time>
      </trkpt>
      <trkpt lat="45.80112" lon="4.61443">
        <ele>301.03</ele>
        <time>2013-01-19T14:59:31Z</time>
      </trkpt>
      <trkpt lat="45.80105" lon="4.61454">
        <ele>301.03</ele>
        <time>2013-01-19T14:59:37Z</time>
      </trkpt>
      <trkpt lat="45.80105" lon="4.61466">
        <ele>301.51</ele>
        <time>2013-01-19T14:59:45Z</time>
      </trkpt>
      <trkpt lat="45.80102" lon="4.61476">
        <ele>301.51</ele>
        <time>2013-01-19T14:59:50Z</time>
      </trkpt>
      <trkpt lat="45.80102" lon="4.61493">
        <ele>301.51</ele>
        <time>2013-01-19T14:59:57Z</time>
      </trkpt>
      <trkpt lat="45.80105" lon="4.61503">
        <ele>302.47</ele>
        <time>2013-01-19T15:00:02Z</time>
      </trkpt>
      <trkpt lat="45.80114" lon="4.61521">
        <ele>302.95</ele>
        <time>2013-01-19T15:00:13Z</time>
      </trkpt>
      <trkpt lat="45.80132" lon="4.61556">
        <ele>302.47</ele>
        <time>2013-01-19T15:00:31Z</time>
      </trkpt>
      <trkpt lat="45.80149" lon="4.6157">
        <ele>303.91</ele>
        <time>2013-01-19T15:00:48Z</time>
      </trkpt>
      <trkpt lat="45.8015" lon="4.61571">
        <ele>303.91</ele>
        <time>2013-01-19T15:00:49Z</time>
      </trkpt>
      <trkpt lat="45.80166" lon="4.61589">
        <ele>305.84</ele>
        <time>2013-01-19T15:01:04Z</time>
      </trkpt>
      <trkpt lat="45.80167" lon="4.61593">
        <ele>305.84</ele>
        <time>2013-01-19T15:01:07Z</time>
      </trkpt>
      <trkpt lat="45.80163" lon="4.61603">
        <ele>306.8</ele>
        <time>2013-01-19T15:01:17Z</time>
      </trkpt>
      <trkpt lat="45.80163" lon="4.61621">
        <ele>310.16</ele>
        <time>2013-01-19T15:01:34Z</time>
      </trkpt>
      <trkpt lat="45.80163" lon="4.61628">
        <ele>311.12</ele>
        <time>2013-01-19T15:01:38Z</time>
      </trkpt>
      <trkpt lat="45.80157" lon="4.61658">
        <ele>313.53</ele>
        <time>2013-01-19T15:01:56Z</time>
      </trkpt>
      <trkpt lat="45.80157" lon="4.61661">
        <ele>313.53</ele>
        <time>2013-01-19T15:01:58Z</time>
      </trkpt>
      <trkpt lat="45.80158" lon="4.61678">
        <ele>315.93</ele>
        <time>2013-01-19T15:02:09Z</time>
      </trkpt>
      <trkpt lat="45.80186" lon="4.6169">
        <ele>318.81</ele>
        <time>2013-01-19T15:02:26Z</time>
      </trkpt>
      <trkpt lat="45.80186" lon="4.61696">
        <ele>319.78</ele>
        <time>2013-01-19T15:02:29Z</time>
      </trkpt>
      <trkpt lat="45.80186" lon="4.61702">
        <ele>322.66</ele>
        <time>2013-01-19T15:02:35Z</time>
      </trkpt>
      <trkpt lat="45.80182" lon="4.61707">
        <ele>324.1</ele>
        <time>2013-01-19T15:02:39Z</time>
      </trkpt>
      <trkpt lat="45.80167" lon="4.61718">
        <ele>325.54</ele>
        <time>2013-01-19T15:02:51Z</time>
      </trkpt>
      <trkpt lat="45.80163" lon="4.61724">
        <ele>328.43</ele>
        <time>2013-01-19T15:03:04Z</time>
      </trkpt>
      <trkpt lat="45.80161" lon="4.61725">
        <ele>329.39</ele>
        <time>2013-01-19T15:03:06Z</time>
      </trkpt>
      <trkpt lat="45.8014" lon="4.61755">
        <ele>329.87</ele>
        <time>2013-01-19T15:03:19Z</time>
      </trkpt>
      <trkpt lat="45.80122" lon="4.61787">
        <ele>325.54</ele>
        <time>2013-01-19T15:03:31Z</time>
      </trkpt>
      <trkpt lat="45.80099" lon="4.61808">
        <ele>322.66</ele>
        <time>2013-01-19T15:03:43Z</time>
      </trkpt>
      <trkpt lat="45.8007" lon="4.61831">
        <ele>326.5</ele>
        <time>2013-01-19T15:03:54Z</time>
      </trkpt>
      <trkpt lat="45.80041" lon="4.61849">
        <ele>332.75</ele>
        <time>2013-01-19T15:04:06Z</time>
      </trkpt>
      <trkpt lat="45.80032" lon="4.61857">
        <ele>333.71</ele>
        <time>2013-01-19T15:04:10Z</time>
      </trkpt>
      <trkpt lat="45.80029" lon="4.6186">
        <ele>334.2</ele>
        <time>2013-01-19T15:04:12Z</time>
      </trkpt>
      <trkpt lat="45.80012" lon="4.61886">
        <ele>336.12</ele>
        <time>2013-01-19T15:04:22Z</time>
      </trkpt>
      <trkpt lat="45.79999" lon="4.61917">
        <ele>334.2</ele>
        <time>2013-01-19T15:04:33Z</time>
      </trkpt>
      <trkpt lat="45.79993" lon="4.61958">
        <ele>331.31</ele>
        <time>2013-01-19T15:04:47Z</time>
      </trkpt>
      <trkpt lat="45.79998" lon="4.61996">
        <ele>331.31</ele>
        <time>2013-01-19T15:04:58Z</time>
      </trkpt>
      <trkpt lat="45.79982" lon="4.62051">
        <ele>330.35</ele>
        <time>2013-01-19T15:05:13Z</time>
      </trkpt>
      <trkpt lat="45.79949" lon="4.62077">
        <ele>330.35</ele>
        <time>2013-01-19T15:05:27Z</time>
      </trkpt>
      <trkpt lat="45.79921" lon="4.62103">
        <ele>331.31</ele>
        <time>2013-01-19T15:05:40Z</time>
      </trkpt>
      <trkpt lat="45.79917" lon="4.62148">
        <ele>330.83</ele>
        <time>2013-01-19T15:05:53Z</time>
      </trkpt>
      <trkpt lat="45.79922" lon="4.62184">
        <ele>329.87</ele>
        <time>2013-01-19T15:06:06Z</time>
      </trkpt>
      <trkpt lat="45.79928" lon="4.62209">
        <ele>328.43</ele>
        <time>2013-01-19T15:06:18Z</time>
      </trkpt>
      <trkpt lat="45.79934" lon="4.6223">
        <ele>329.39</ele>
        <time>2013-01-19T15:06:31Z</time>
      </trkpt>
      <trkpt lat="45.79938" lon="4.62236">
        <ele>330.35</ele>
        <time>2013-01-19T15:06:35Z</time>
      </trkpt>
      <trkpt lat="45.79942" lon="4.6226">
        <ele>332.27</ele>
        <time>2013-01-19T15:06:49Z</time>
      </trkpt>
      <trkpt lat="45.7994" lon="4.62275">
        <ele>334.68</ele>
        <time>2013-01-19T15:06:58Z</time>
      </trkpt>
      <trkpt lat="45.79928" lon="4.623">
        <ele>336.12</ele>
        <time>2013-01-19T15:07:08Z</time>
      </trkpt>
      <trkpt lat="45.79907" lon="4.6234">
        <ele>336.12</ele>
        <time>2013-01-19T15:07:22Z</time>
      </trkpt>
      <trkpt lat="45.79897" lon="4.62384">
        <ele>334.68</ele>
        <time>2013-01-19T15:07:35Z</time>
      </trkpt>
      <trkpt lat="45.79894" lon="4.62438">
        <ele>333.23</ele>
        <time>2013-01-19T15:07:51Z</time>
      </trkpt>
      <trkpt lat="45.79897" lon="4.62487">
        <ele>331.79</ele>
        <time>2013-01-19T15:08:05Z</time>
      </trkpt>
      <trkpt lat="45.79875" lon="4.62518">
        <ele>333.23</ele>
        <time>2013-01-19T15:08:20Z</time>
      </trkpt>
      <trkpt lat="45.79875" lon="4.62518">
        <ele>334.2</ele>
        <time>2013-01-19T15:08:27Z</time>
      </trkpt>
      <trkpt lat="45.79871" lon="4.62519">
        <ele>332.27</ele>
        <time>2013-01-19T15:08:32Z</time>
      </trkpt>
      <trkpt lat="45.79869" lon="4.62512">
        <ele>329.39</ele>
        <time>2013-01-19T15:08:40Z</time>
      </trkpt>
      <trkpt lat="45.79871" lon="4.62524">
        <ele>330.35</ele>
        <time>2013-01-19T15:08:54Z</time>
      </trkpt>
      <trkpt lat="45.79871" lon="4.62526">
        <ele>331.79</ele>
        <time>2013-01-19T15:09:09Z</time>
      </trkpt>
      <trkpt lat="45.79869" lon="4.62545">
        <ele>333.23</ele>
        <time>2013-01-19T15:09:20Z</time>
      </trkpt>
      <trkpt lat="45.79868" lon="4.62595">
        <ele>333.23</ele>
        <time>2013-01-19T15:09:33Z</time>
      </trkpt>
      <trkpt lat="45.79875" lon="4.62656">
        <ele>330.83</ele>
        <time>2013-01-19T15:09:51Z</time>
      </trkpt>
      <trkpt lat="45.79875" lon="4.62692">
        <ele>329.39</ele>
        <time>2013-01-19T15:10:05Z</time>
      </trkpt>
      <trkpt lat="45.7986" lon="4.62725">
        <ele>327.95</ele>
        <time>2013-01-19T15:10:21Z</time>
      </trkpt>
      <trkpt lat="45.79827" lon="4.62755">
        <ele>324.58</ele>
        <time>2013-01-19T15:10:35Z</time>
      </trkpt>
      <trkpt lat="45.79802" lon="4.62789">
        <ele>320.74</ele>
        <time>2013-01-19T15:10:50Z</time>
      </trkpt>
      <trkpt lat="45.79775" lon="4.62802">
        <ele>318.81</ele>
        <time>2013-01-19T15:11:03Z</time>
      </trkpt>
      <trkpt lat="45.79769" lon="4.62805">
        <ele>319.78</ele>
        <time>2013-01-19T15:11:06Z</time>
      </trkpt>
      <trkpt lat="45.79769" lon="4.62821">
        <ele>319.78</ele>
        <time>2013-01-19T15:11:13Z</time>
      </trkpt>
      <trkpt lat="45.79769" lon="4.62856">
        <ele>320.74</ele>
        <time>2013-01-19T15:11:31Z</time>
      </trkpt>
      <trkpt lat="45.79768" lon="4.62858">
        <ele>320.74</ele>
        <time>2013-01-19T15:11:32Z</time>
      </trkpt>
      <trkpt lat="45.79759" lon="4.62886">
        <ele>321.7</ele>
        <time>2013-01-19T15:11:47Z</time>
      </trkpt>
      <trkpt lat="45.79753" lon="4.62927">
        <ele>320.74</ele>
        <time>2013-01-19T15:12:07Z</time>
      </trkpt>
      <trkpt lat="45.79739" lon="4.62967">
        <ele>320.74</ele>
        <time>2013-01-19T15:12:27Z</time>
      </trkpt>
      <trkpt lat="45.7973" lon="4.6299">
        <ele>326.02</ele>
        <time>2013-01-19T15:12:45Z</time>
      </trkpt>
      <trkpt lat="45.7972" lon="4.63011">
        <ele>332.75</ele>
        <time>2013-01-19T15:12:59Z</time>
      </trkpt>
      <trkpt lat="45.79711" lon="4.63035">
        <ele>337.08</ele>
        <time>2013-01-19T15:13:17Z</time>
      </trkpt>
      <trkpt lat="45.79696" lon="4.63059">
        <ele>338.52</ele>
        <time>2013-01-19T15:13:34Z</time>
      </trkpt>
      <trkpt lat="45.79682" lon="4.63079">
        <ele>341.89</ele>
        <time>2013-01-19T15:13:52Z</time>
      </trkpt>
      <trkpt lat="45.79666" lon="4.63103">
        <ele>344.77</ele>
        <time>2013-01-19T15:14:11Z</time>
      </trkpt>
      <trkpt lat="45.79661" lon="4.63132">
        <ele>350.54</ele>
        <time>2013-01-19T15:14:25Z</time>
      </trkpt>
      <trkpt lat="45.79655" lon="4.63152">
        <ele>353.9</ele>
        <time>2013-01-19T15:14:37Z</time>
      </trkpt>
      <trkpt lat="45.79649" lon="4.63167">
        <ele>355.34</ele>
        <time>2013-01-19T15:14:49Z</time>
      </trkpt>
      <trkpt lat="45.79636" lon="4.6318">
        <ele>357.27</ele>
        <time>2013-01-19T15:15:02Z</time>
      </trkpt>
      <trkpt lat="45.79619" lon="4.63196">
        <ele>359.19</ele>
        <time>2013-01-19T15:15:20Z</time>
      </trkpt>
      <trkpt lat="45.79608" lon="4.63216">
        <ele>362.07</ele>
        <time>2013-01-19T15:15:35Z</time>
      </trkpt>
      <trkpt lat="45.796" lon="4.63245">
        <ele>364.96</ele>
        <time>2013-01-19T15:15:54Z</time>
      </trkpt>
      <trkpt lat="45.79595" lon="4.63268">
        <ele>367.84</ele>
        <time>2013-01-19T15:16:09Z</time>
      </trkpt>
      <trkpt lat="45.79592" lon="4.63276">
        <ele>369.28</ele>
        <time>2013-01-19T15:16:15Z</time>
      </trkpt>
      <trkpt lat="45.79582" lon="4.63291">
        <ele>371.21</ele>
        <time>2013-01-19T15:16:32Z</time>
      </trkpt>
      <trkpt lat="45.7958" lon="4.63299">
        <ele>372.17</ele>
        <time>2013-01-19T15:16:37Z</time>
      </trkpt>
      <trkpt lat="45.79563" lon="4.6331">
        <ele>372.65</ele>
        <time>2013-01-19T15:16:52Z</time>
      </trkpt>
      <trkpt lat="45.79556" lon="4.6332">
        <ele>374.09</ele>
        <time>2013-01-19T15:17:00Z</time>
      </trkpt>
      <trkpt lat="45.7954" lon="4.6334">
        <ele>379.38</ele>
        <time>2013-01-19T15:17:19Z</time>
      </trkpt>
      <trkpt lat="45.79535" lon="4.63363">
        <ele>382.74</ele>
        <time>2013-01-19T15:17:36Z</time>
      </trkpt>
      <trkpt lat="45.79531" lon="4.63387">
        <ele>386.11</ele>
        <time>2013-01-19T15:17:54Z</time>
      </trkpt>
      <trkpt lat="45.79527" lon="4.63402">
        <ele>388.51</ele>
        <time>2013-01-19T15:18:11Z</time>
      </trkpt>
      <trkpt lat="45.7952" lon="4.63421">
        <ele>392.84</ele>
        <time>2013-01-19T15:18:28Z</time>
      </trkpt>
      <trkpt lat="45.7952" lon="4.63422">
        <ele>392.84</ele>
        <time>2013-01-19T15:18:29Z</time>
      </trkpt>
      <trkpt lat="45.79515" lon="4.63445">
        <ele>396.68</ele>
        <time>2013-01-19T15:18:48Z</time>
      </trkpt>
      <trkpt lat="45.79515" lon="4.63446">
        <ele>395.72</ele>
        <time>2013-01-19T15:19:03Z</time>
      </trkpt>
      <trkpt lat="45.7951" lon="4.63464">
        <ele>400.05</ele>
        <time>2013-01-19T15:19:16Z</time>
      </trkpt>
      <trkpt lat="45.79503" lon="4.63484">
        <ele>401.49</ele>
        <time>2013-01-19T15:19:33Z</time>
      </trkpt>
      <trkpt lat="45.79497" lon="4.63509">
        <ele>402.93</ele>
        <time>2013-01-19T15:19:49Z</time>
      </trkpt>
      <trkpt lat="45.79494" lon="4.6352">
        <ele>404.37</ele>
        <time>2013-01-19T15:20:01Z</time>
      </trkpt>
      <trkpt lat="45.79503" lon="4.63523">
        <ele>404.85</ele>
        <time>2013-01-19T15:20:19Z</time>
      </trkpt>
      <trkpt lat="45.79503" lon="4.63526">
        <ele>406.77</ele>
        <time>2013-01-19T15:20:40Z</time>
      </trkpt>
      <trkpt lat="45.79515" lon="4.63533">
        <ele>408.7</ele>
        <time>2013-01-19T15:20:55Z</time>
      </trkpt>
      <trkpt lat="45.79516" lon="4.6355">
        <ele>412.54</ele>
        <time>2013-01-19T15:21:09Z</time>
      </trkpt>
      <trkpt lat="45.79516" lon="4.63559">
        <ele>414.47</ele>
        <time>2013-01-19T15:21:17Z</time>
      </trkpt>
      <trkpt lat="45.79515" lon="4.6358">
        <ele>418.79</ele>
        <time>2013-01-19T15:21:32Z</time>
      </trkpt>
      <trkpt lat="45.79521" lon="4.63605">
        <ele>420.71</ele>
        <time>2013-01-19T15:21:50Z</time>
      </trkpt>
      <trkpt lat="45.79525" lon="4.63613">
        <ele>421.68</ele>
        <time>2013-01-19T15:21:56Z</time>
      </trkpt>
      <trkpt lat="45.79544" lon="4.63634">
        <ele>426.96</ele>
        <time>2013-01-19T15:22:16Z</time>
      </trkpt>
      <trkpt lat="45.79556" lon="4.63647">
        <ele>430.33</ele>
        <time>2013-01-19T15:22:30Z</time>
      </trkpt>
      <trkpt lat="45.79572" lon="4.63668">
        <ele>434.17</ele>
        <time>2013-01-19T15:22:48Z</time>
      </trkpt>
      <trkpt lat="45.79584" lon="4.63686">
        <ele>435.61</ele>
        <time>2013-01-19T15:23:03Z</time>
      </trkpt>
      <trkpt lat="45.79595" lon="4.63706">
        <ele>438.02</ele>
        <time>2013-01-19T15:23:18Z</time>
      </trkpt>
      <trkpt lat="45.79607" lon="4.63727">
        <ele>440.42</ele>
        <time>2013-01-19T15:23:34Z</time>
      </trkpt>
      <trkpt lat="45.79615" lon="4.63746">
        <ele>441.86</ele>
        <time>2013-01-19T15:23:48Z</time>
      </trkpt>
      <trkpt lat="45.79624" lon="4.63765">
        <ele>443.31</ele>
        <time>2013-01-19T15:24:03Z</time>
      </trkpt>
      <trkpt lat="45.79633" lon="4.63785">
        <ele>444.75</ele>
        <time>2013-01-19T15:24:17Z</time>
      </trkpt>
      <trkpt lat="45.79642" lon="4.63806">
        <ele>448.11</ele>
        <time>2013-01-19T15:24:33Z</time>
      </trkpt>
      <trkpt lat="45.79654" lon="4.63827">
        <ele>450.03</ele>
        <time>2013-01-19T15:24:50Z</time>
      </trkpt>
      <trkpt lat="45.79662" lon="4.63847">
        <ele>451.48</ele>
        <time>2013-01-19T15:25:04Z</time>
      </trkpt>
      <trkpt lat="45.7967" lon="4.63869">
        <ele>454.84</ele>
        <time>2013-01-19T15:25:21Z</time>
      </trkpt>
      <trkpt lat="45.7968" lon="4.63888">
        <ele>458.21</ele>
        <time>2013-01-19T15:25:36Z</time>
      </trkpt>
      <trkpt lat="45.79685" lon="4.63906">
        <ele>460.13</ele>
        <time>2013-01-19T15:25:50Z</time>
      </trkpt>
      <trkpt lat="45.79686" lon="4.63912">
        <ele>460.61</ele>
        <time>2013-01-19T15:25:54Z</time>
      </trkpt>
      <trkpt lat="45.79688" lon="4.63914">
        <ele>460.61</ele>
        <time>2013-01-19T15:25:56Z</time>
      </trkpt>
      <trkpt lat="45.79688" lon="4.63921">
        <ele>460.61</ele>
        <time>2013-01-19T15:26:01Z</time>
      </trkpt>
      <trkpt lat="45.79693" lon="4.63948">
        <ele>463.01</ele>
        <time>2013-01-19T15:26:19Z</time>
      </trkpt>
      <trkpt lat="45.79694" lon="4.6397">
        <ele>464.93</ele>
        <time>2013-01-19T15:26:33Z</time>
      </trkpt>
      <trkpt lat="45.79694" lon="4.63989">
        <ele>468.78</ele>
        <time>2013-01-19T15:26:47Z</time>
      </trkpt>
      <trkpt lat="45.79694" lon="4.63998">
        <ele>469.74</ele>
        <time>2013-01-19T15:26:53Z</time>
      </trkpt>
      <trkpt lat="45.79688" lon="4.64031">
        <ele>471.18</ele>
        <time>2013-01-19T15:27:10Z</time>
      </trkpt>
      <trkpt lat="45.79681" lon="4.64057">
        <ele>471.66</ele>
        <time>2013-01-19T15:27:24Z</time>
      </trkpt>
      <trkpt lat="45.79678" lon="4.64067">
        <ele>472.63</ele>
        <time>2013-01-19T15:27:31Z</time>
      </trkpt>
      <trkpt lat="45.79667" lon="4.64079">
        <ele>472.63</ele>
        <time>2013-01-19T15:27:45Z</time>
      </trkpt>
      <trkpt lat="45.79659" lon="4.64088">
        <ele>472.63</ele>
        <time>2013-01-19T15:27:54Z</time>
      </trkpt>
      <trkpt lat="45.79639" lon="4.64105">
        <ele>474.55</ele>
        <time>2013-01-19T15:28:08Z</time>
      </trkpt>
      <trkpt lat="45.79621" lon="4.64146">
        <ele>474.07</ele>
        <time>2013-01-19T15:28:23Z</time>
      </trkpt>
      <trkpt lat="45.79606" lon="4.64197">
        <ele>475.03</ele>
        <time>2013-01-19T15:28:39Z</time>
      </trkpt>
      <trkpt lat="45.79594" lon="4.64243">
        <ele>474.07</ele>
        <time>2013-01-19T15:28:53Z</time>
      </trkpt>
      <trkpt lat="45.79584" lon="4.64286">
        <ele>473.59</ele>
        <time>2013-01-19T15:29:06Z</time>
      </trkpt>
      <trkpt lat="45.79572" lon="4.64321">
        <ele>472.63</ele>
        <time>2013-01-19T15:29:17Z</time>
      </trkpt>
      <trkpt lat="45.79547" lon="4.64354">
        <ele>469.74</ele>
        <time>2013-01-19T15:29:31Z</time>
      </trkpt>
      <trkpt lat="45.79511" lon="4.64377">
        <ele>465.42</ele>
        <time>2013-01-19T15:29:48Z</time>
      </trkpt>
      <trkpt lat="45.79487" lon="4.64406">
        <ele>460.13</ele>
        <time>2013-01-19T15:30:03Z</time>
      </trkpt>
      <trkpt lat="45.79482" lon="4.64461">
        <ele>460.61</ele>
        <time>2013-01-19T15:30:17Z</time>
      </trkpt>
      <trkpt lat="45.79478" lon="4.64518">
        <ele>460.61</ele>
        <time>2013-01-19T15:30:34Z</time>
      </trkpt>
      <trkpt lat="45.79471" lon="4.64546">
        <ele>461.09</ele>
        <time>2013-01-19T15:30:44Z</time>
      </trkpt>
      <trkpt lat="45.79467" lon="4.6459">
        <ele>462.53</ele>
        <time>2013-01-19T15:30:59Z</time>
      </trkpt>
      <trkpt lat="45.79461" lon="4.64632">
        <ele>463.49</ele>
        <time>2013-01-19T15:31:13Z</time>
      </trkpt>
      <trkpt lat="45.79451" lon="4.64672">
        <ele>462.05</ele>
        <time>2013-01-19T15:31:27Z</time>
      </trkpt>
      <trkpt lat="45.79449" lon="4.64677">
        <ele>463.97</ele>
        <time>2013-01-19T15:31:42Z</time>
      </trkpt>
      <trkpt lat="45.79449" lon="4.64678">
        <ele>464.93</ele>
        <time>2013-01-19T15:31:50Z</time>
      </trkpt>
      <trkpt lat="45.79434" lon="4.64687">
        <ele>463.97</ele>
        <time>2013-01-19T15:31:59Z</time>
      </trkpt>
      <trkpt lat="45.79404" lon="4.64696">
        <ele>460.61</ele>
        <time>2013-01-19T15:32:13Z</time>
      </trkpt>
      <trkpt lat="45.7937" lon="4.64698">
        <ele>456.76</ele>
        <time>2013-01-19T15:32:27Z</time>
      </trkpt>
      <trkpt lat="45.79354" lon="4.64716">
        <ele>453.4</ele>
        <time>2013-01-19T15:32:37Z</time>
      </trkpt>
      <trkpt lat="45.79337" lon="4.64751">
        <ele>447.15</ele>
        <time>2013-01-19T15:32:51Z</time>
      </trkpt>
      <trkpt lat="45.7933" lon="4.64764">
        <ele>442.34</ele>
        <time>2013-01-19T15:33:02Z</time>
      </trkpt>
      <trkpt lat="45.79329" lon="4.6477">
        <ele>439.46</ele>
        <time>2013-01-19T15:33:09Z</time>
      </trkpt>
      <trkpt lat="45.79327" lon="4.64774">
        <ele>438.98</ele>
        <time>2013-01-19T15:33:12Z</time>
      </trkpt>
      <trkpt lat="45.7932" lon="4.64799">
        <ele>434.17</ele>
        <time>2013-01-19T15:33:27Z</time>
      </trkpt>
      <trkpt lat="45.79315" lon="4.64838">
        <ele>430.33</ele>
        <time>2013-01-19T15:33:42Z</time>
      </trkpt>
      <trkpt lat="45.79323" lon="4.64862">
        <ele>431.77</ele>
        <time>2013-01-19T15:33:57Z</time>
      </trkpt>
      <trkpt lat="45.79328" lon="4.64873">
        <ele>430.81</ele>
        <time>2013-01-19T15:34:15Z</time>
      </trkpt>
      <trkpt lat="45.79331" lon="4.64886">
        <ele>429.37</ele>
        <time>2013-01-19T15:34:26Z</time>
      </trkpt>
      <trkpt lat="45.79338" lon="4.64931">
        <ele>428.89</ele>
        <time>2013-01-19T15:34:42Z</time>
      </trkpt>
      <trkpt lat="45.79341" lon="4.64962">
        <ele>426.96</ele>
        <time>2013-01-19T15:34:58Z</time>
      </trkpt>
      <trkpt lat="45.79339" lon="4.64979">
        <ele>428.4</ele>
        <time>2013-01-19T15:35:17Z</time>
      </trkpt>
      <trkpt lat="45.79342" lon="4.64989">
        <ele>429.85</ele>
        <time>2013-01-19T15:35:27Z</time>
      </trkpt>
      <trkpt lat="45.79349" lon="4.64995">
        <ele>435.61</ele>
        <time>2013-01-19T15:35:38Z</time>
      </trkpt>
      <trkpt lat="45.79362" lon="4.6502">
        <ele>443.31</ele>
        <time>2013-01-19T15:35:57Z</time>
      </trkpt>
      <trkpt lat="45.79375" lon="4.6504">
        <ele>448.59</ele>
        <time>2013-01-19T15:36:15Z</time>
      </trkpt>
      <trkpt lat="45.79416" lon="4.65054">
        <ele>449.55</ele>
        <time>2013-01-19T15:36:39Z</time>
      </trkpt>
      <trkpt lat="45.79437" lon="4.65079">
        <ele>450.03</ele>
        <time>2013-01-19T15:37:01Z</time>
      </trkpt>
      <trkpt lat="45.79449" lon="4.65105">
        <ele>447.63</ele>
        <time>2013-01-19T15:37:20Z</time>
      </trkpt>
      <trkpt lat="45.79461" lon="4.65124">
        <ele>447.15</ele>
        <time>2013-01-19T15:37:36Z</time>
      </trkpt>
      <trkpt lat="45.79466" lon="4.6514">
        <ele>451.48</ele>
        <time>2013-01-19T15:37:52Z</time>
      </trkpt>
      <trkpt lat="45.79474" lon="4.65162">
        <ele>453.88</ele>
        <time>2013-01-19T15:38:09Z</time>
      </trkpt>
      <trkpt lat="45.79486" lon="4.65165">
        <ele>456.76</ele>
        <time>2013-01-19T15:38:24Z</time>
      </trkpt>
      <trkpt lat="45.79488" lon="4.65177">
        <ele>461.09</ele>
        <time>2013-01-19T15:38:36Z</time>
      </trkpt>
      <trkpt lat="45.79488" lon="4.65178">
        <ele>462.05</ele>
        <time>2013-01-19T15:38:37Z</time>
      </trkpt>
      <trkpt lat="45.79486" lon="4.65181">
        <ele>463.49</ele>
        <time>2013-01-19T15:38:40Z</time>
      </trkpt>
      <trkpt lat="45.7948" lon="4.65192">
        <ele>463.97</ele>
        <time>2013-01-19T15:38:53Z</time>
      </trkpt>
      <trkpt lat="45.79477" lon="4.65214">
        <ele>465.42</ele>
        <time>2013-01-19T15:39:07Z</time>
      </trkpt>
      <trkpt lat="45.79469" lon="4.65246">
        <ele>467.82</ele>
        <time>2013-01-19T15:39:27Z</time>
      </trkpt>
      <trkpt lat="45.79466" lon="4.65258">
        <ele>468.78</ele>
        <time>2013-01-19T15:39:33Z</time>
      </trkpt>
      <trkpt lat="45.79459" lon="4.6528">
        <ele>469.74</ele>
        <time>2013-01-19T15:39:49Z</time>
      </trkpt>
      <trkpt lat="45.79442" lon="4.653">
        <ele>471.66</ele>
        <time>2013-01-19T15:40:07Z</time>
      </trkpt>
      <trkpt lat="45.79439" lon="4.65305">
        <ele>472.63</ele>
        <time>2013-01-19T15:40:11Z</time>
      </trkpt>
      <trkpt lat="45.79425" lon="4.65315">
        <ele>473.11</ele>
        <time>2013-01-19T15:40:24Z</time>
      </trkpt>
      <trkpt lat="45.7941" lon="4.65323">
        <ele>471.66</ele>
        <time>2013-01-19T15:40:39Z</time>
      </trkpt>
      <trkpt lat="45.79391" lon="4.65334">
        <ele>471.18</ele>
        <time>2013-01-19T15:40:57Z</time>
      </trkpt>
      <trkpt lat="45.79387" lon="4.65334">
        <ele>471.18</ele>
        <time>2013-01-19T15:41:00Z</time>
      </trkpt>
      <trkpt lat="45.7937" lon="4.65339">
        <ele>470.7</ele>
        <time>2013-01-19T15:41:15Z</time>
      </trkpt>
      <trkpt lat="45.79368" lon="4.65341">
        <ele>470.7</ele>
        <time>2013-01-19T15:41:17Z</time>
      </trkpt>
      <trkpt lat="45.79365" lon="4.65342">
        <ele>470.7</ele>
        <time>2013-01-19T15:41:20Z</time>
      </trkpt>
      <trkpt lat="45.79352" lon="4.65349">
        <ele>470.7</ele>
        <time>2013-01-19T15:41:36Z</time>
      </trkpt>
      <trkpt lat="45.79349" lon="4.6535">
        <ele>471.66</ele>
        <time>2013-01-19T15:41:40Z</time>
      </trkpt>
      <trkpt lat="45.79344" lon="4.65352">
        <ele>473.11</ele>
        <time>2013-01-19T15:41:44Z</time>
      </trkpt>
      <trkpt lat="45.79341" lon="4.65354">
        <ele>473.11</ele>
        <time>2013-01-19T15:41:46Z</time>
      </trkpt>
      <trkpt lat="45.79326" lon="4.6537">
        <ele>483.2</ele>
        <time>2013-01-19T15:42:01Z</time>
      </trkpt>
      <trkpt lat="45.79316" lon="4.65384">
        <ele>488.01</ele>
        <time>2013-01-19T15:42:12Z</time>
      </trkpt>
      <trkpt lat="45.7931" lon="4.6539">
        <ele>487.53</ele>
        <time>2013-01-19T15:42:20Z</time>
      </trkpt>
      <trkpt lat="45.79292" lon="4.6541">
        <ele>487.05</ele>
        <time>2013-01-19T15:42:33Z</time>
      </trkpt>
      <trkpt lat="45.79272" lon="4.65461">
        <ele>491.85</ele>
        <time>2013-01-19T15:42:51Z</time>
      </trkpt>
      <trkpt lat="45.79262" lon="4.65507">
        <ele>493.77</ele>
        <time>2013-01-19T15:43:08Z</time>
      </trkpt>
      <trkpt lat="45.79246" lon="4.65553">
        <ele>498.1</ele>
        <time>2013-01-19T15:43:27Z</time>
      </trkpt>
      <trkpt lat="45.79224" lon="4.65603">
        <ele>501.46</ele>
        <time>2013-01-19T15:43:44Z</time>
      </trkpt>
      <trkpt lat="45.79197" lon="4.65639">
        <ele>502.91</ele>
        <time>2013-01-19T15:43:58Z</time>
      </trkpt>
      <trkpt lat="45.79151" lon="4.65678">
        <ele>503.87</ele>
        <time>2013-01-19T15:44:20Z</time>
      </trkpt>
      <trkpt lat="45.79118" lon="4.65716">
        <ele>506.27</ele>
        <time>2013-01-19T15:44:36Z</time>
      </trkpt>
      <trkpt lat="45.79106" lon="4.65716">
        <ele>506.75</ele>
        <time>2013-01-19T15:44:50Z</time>
      </trkpt>
      <trkpt lat="45.7909" lon="4.65706">
        <ele>500.5</ele>
        <time>2013-01-19T15:45:02Z</time>
      </trkpt>
      <trkpt lat="45.79083" lon="4.65698">
        <ele>499.06</ele>
        <time>2013-01-19T15:45:15Z</time>
      </trkpt>
      <trkpt lat="45.79071" lon="4.65687">
        <ele>498.58</ele>
        <time>2013-01-19T15:45:27Z</time>
      </trkpt>
      <trkpt lat="45.7905" lon="4.65667">
        <ele>498.1</ele>
        <time>2013-01-19T15:45:40Z</time>
      </trkpt>
      <trkpt lat="45.79044" lon="4.65658">
        <ele>496.66</ele>
        <time>2013-01-19T15:45:47Z</time>
      </trkpt>
      <trkpt lat="45.79029" lon="4.65637">
        <ele>495.7</ele>
        <time>2013-01-19T15:46:01Z</time>
      </trkpt>
      <trkpt lat="45.79025" lon="4.6563">
        <ele>496.66</ele>
        <time>2013-01-19T15:46:05Z</time>
      </trkpt>
      <trkpt lat="45.79019" lon="4.65619">
        <ele>496.66</ele>
        <time>2013-01-19T15:46:12Z</time>
      </trkpt>
      <trkpt lat="45.79016" lon="4.65615">
        <ele>496.66</ele>
        <time>2013-01-19T15:46:15Z</time>
      </trkpt>
      <trkpt lat="45.79013" lon="4.65607">
        <ele>496.66</ele>
        <time>2013-01-19T15:46:19Z</time>
      </trkpt>
      <trkpt lat="45.7901" lon="4.65574">
        <ele>499.54</ele>
        <time>2013-01-19T15:46:36Z</time>
      </trkpt>
      <trkpt lat="45.79005" lon="4.65552">
        <ele>500.5</ele>
        <time>2013-01-19T15:46:50Z</time>
      </trkpt>
      <trkpt lat="45.78999" lon="4.65534">
        <ele>501.46</ele>
        <time>2013-01-19T15:46:58Z</time>
      </trkpt>
      <trkpt lat="45.78997" lon="4.65526">
        <ele>501.95</ele>
        <time>2013-01-19T15:47:02Z</time>
      </trkpt>
      <trkpt lat="45.78993" lon="4.65495">
        <ele>503.87</ele>
        <time>2013-01-19T15:47:16Z</time>
      </trkpt>
      <trkpt lat="45.7899" lon="4.65469">
        <ele>507.23</ele>
        <time>2013-01-19T15:47:31Z</time>
      </trkpt>
      <trkpt lat="45.78988" lon="4.65446">
        <ele>507.71</ele>
        <time>2013-01-19T15:47:45Z</time>
      </trkpt>
      <trkpt lat="45.78986" lon="4.65418">
        <ele>511.56</ele>
        <time>2013-01-19T15:48:00Z</time>
      </trkpt>
      <trkpt lat="45.78986" lon="4.65409">
        <ele>513.96</ele>
        <time>2013-01-19T15:48:05Z</time>
      </trkpt>
      <trkpt lat="45.78985" lon="4.654">
        <ele>514.92</ele>
        <time>2013-01-19T15:48:09Z</time>
      </trkpt>
      <trkpt lat="45.78977" lon="4.65376">
        <ele>516.85</ele>
        <time>2013-01-19T15:48:23Z</time>
      </trkpt>
      <trkpt lat="45.78967" lon="4.65351">
        <ele>517.81</ele>
        <time>2013-01-19T15:48:38Z</time>
      </trkpt>
      <trkpt lat="45.78965" lon="4.65348">
        <ele>517.33</ele>
        <time>2013-01-19T15:48:40Z</time>
      </trkpt>
      <trkpt lat="45.78963" lon="4.65344">
        <ele>516.85</ele>
        <time>2013-01-19T15:48:42Z</time>
      </trkpt>
      <trkpt lat="45.78951" lon="4.65323">
        <ele>515.88</ele>
        <time>2013-01-19T15:48:57Z</time>
      </trkpt>
      <trkpt lat="45.78944" lon="4.653">
        <ele>516.37</ele>
        <time>2013-01-19T15:49:11Z</time>
      </trkpt>
      <trkpt lat="45.78934" lon="4.65271">
        <ele>517.33</ele>
        <time>2013-01-19T15:49:28Z</time>
      </trkpt>
      <trkpt lat="45.78932" lon="4.65264">
        <ele>517.33</ele>
        <time>2013-01-19T15:49:32Z</time>
      </trkpt>
      <trkpt lat="45.78927" lon="4.65255">
        <ele>519.25</ele>
        <time>2013-01-19T15:49:37Z</time>
      </trkpt>
      <trkpt lat="45.78924" lon="4.65246">
        <ele>520.69</ele>
        <time>2013-01-19T15:49:42Z</time>
      </trkpt>
      <trkpt lat="45.7892" lon="4.65239">
        <ele>521.65</ele>
        <time>2013-01-19T15:49:47Z</time>
      </trkpt>
      <trkpt lat="45.78916" lon="4.65235">
        <ele>522.61</ele>
        <time>2013-01-19T15:49:50Z</time>
      </trkpt>
      <trkpt lat="45.78913" lon="4.65229">
        <ele>523.58</ele>
        <time>2013-01-19T15:49:54Z</time>
      </trkpt>
      <trkpt lat="45.78904" lon="4.65213">
        <ele>525.98</ele>
        <time>2013-01-19T15:50:07Z</time>
      </trkpt>
      <trkpt lat="45.78897" lon="4.65206">
        <ele>526.46</ele>
        <time>2013-01-19T15:50:13Z</time>
      </trkpt>
      <trkpt lat="45.78872" lon="4.6519">
        <ele>525.5</ele>
        <time>2013-01-19T15:50:29Z</time>
      </trkpt>
      <trkpt lat="45.78857" lon="4.65181">
        <ele>524.54</ele>
        <time>2013-01-19T15:50:42Z</time>
      </trkpt>
      <trkpt lat="45.78844" lon="4.65174">
        <ele>523.09</ele>
        <time>2013-01-19T15:50:57Z</time>
      </trkpt>
      <trkpt lat="45.78836" lon="4.65166">
        <ele>523.09</ele>
        <time>2013-01-19T15:51:10Z</time>
      </trkpt>
      <trkpt lat="45.78827" lon="4.65151">
        <ele>522.61</ele>
        <time>2013-01-19T15:51:25Z</time>
      </trkpt>
      <trkpt lat="45.78818" lon="4.65144">
        <ele>528.38</ele>
        <time>2013-01-19T15:51:43Z</time>
      </trkpt>
      <trkpt lat="45.78807" lon="4.6513">
        <ele>534.63</ele>
        <time>2013-01-19T15:52:00Z</time>
      </trkpt>
      <trkpt lat="45.78799" lon="4.65121">
        <ele>540.4</ele>
        <time>2013-01-19T15:52:13Z</time>
      </trkpt>
      <trkpt lat="45.78794" lon="4.65109">
        <ele>544.24</ele>
        <time>2013-01-19T15:52:29Z</time>
      </trkpt>
      <trkpt lat="45.78789" lon="4.6509">
        <ele>546.65</ele>
        <time>2013-01-19T15:52:48Z</time>
      </trkpt>
      <trkpt lat="45.78777" lon="4.65069">
        <ele>550.01</ele>
        <time>2013-01-19T15:53:05Z</time>
      </trkpt>
      <trkpt lat="45.7877" lon="4.65051">
        <ele>552.9</ele>
        <time>2013-01-19T15:53:23Z</time>
      </trkpt>
      <trkpt lat="45.78751" lon="4.65039">
        <ele>555.3</ele>
        <time>2013-01-19T15:53:42Z</time>
      </trkpt>
      <trkpt lat="45.78734" lon="4.65024">
        <ele>557.22</ele>
        <time>2013-01-19T15:54:02Z</time>
      </trkpt>
      <trkpt lat="45.78719" lon="4.65019">
        <ele>559.14</ele>
        <time>2013-01-19T15:54:18Z</time>
      </trkpt>
      <trkpt lat="45.78716" lon="4.6502">
        <ele>559.14</ele>
        <time>2013-01-19T15:54:20Z</time>
      </trkpt>
      <trkpt lat="45.78688" lon="4.65027">
        <ele>558.18</ele>
        <time>2013-01-19T15:54:35Z</time>
      </trkpt>
      <trkpt lat="45.78649" lon="4.65022">
        <ele>557.7</ele>
        <time>2013-01-19T15:54:52Z</time>
      </trkpt>
      <trkpt lat="45.78615" lon="4.65011">
        <ele>559.14</ele>
        <time>2013-01-19T15:55:09Z</time>
      </trkpt>
      <trkpt lat="45.78591" lon="4.64992">
        <ele>554.82</ele>
        <time>2013-01-19T15:55:29Z</time>
      </trkpt>
      <trkpt lat="45.78572" lon="4.64982">
        <ele>552.9</ele>
        <time>2013-01-19T15:55:49Z</time>
      </trkpt>
      <trkpt lat="45.78545" lon="4.64971">
        <ele>559.62</ele>
        <time>2013-01-19T15:56:09Z</time>
      </trkpt>
      <trkpt lat="45.78526" lon="4.64972">
        <ele>564.43</ele>
        <time>2013-01-19T15:56:22Z</time>
      </trkpt>
      <trkpt lat="45.78483" lon="4.6499">
        <ele>566.83</ele>
        <time>2013-01-19T15:56:42Z</time>
      </trkpt>
      <trkpt lat="45.78459" lon="4.64989">
        <ele>559.62</ele>
        <time>2013-01-19T15:57:01Z</time>
      </trkpt>
      <trkpt lat="45.78435" lon="4.64995">
        <ele>558.18</ele>
        <time>2013-01-19T15:57:19Z</time>
      </trkpt>
      <trkpt lat="45.78412" lon="4.64991">
        <ele>559.62</ele>
        <time>2013-01-19T15:57:37Z</time>
      </trkpt>
      <trkpt lat="45.78402" lon="4.64982">
        <ele>561.07</ele>
        <time>2013-01-19T15:57:51Z</time>
      </trkpt>
      <trkpt lat="45.78387" lon="4.64961">
        <ele>565.87</ele>
        <time>2013-01-19T15:58:11Z</time>
      </trkpt>
      <trkpt lat="45.78387" lon="4.64932">
        <ele>572.12</ele>
        <time>2013-01-19T15:58:29Z</time>
      </trkpt>
      <trkpt lat="45.78383" lon="4.64913">
        <ele>576.45</ele>
        <time>2013-01-19T15:58:43Z</time>
      </trkpt>
      <trkpt lat="45.78381" lon="4.64903">
        <ele>578.85</ele>
        <time>2013-01-19T15:58:51Z</time>
      </trkpt>
      <trkpt lat="45.78381" lon="4.64865">
        <ele>579.81</ele>
        <time>2013-01-19T15:59:07Z</time>
      </trkpt>
      <trkpt lat="45.7838" lon="4.6486">
        <ele>580.29</ele>
        <time>2013-01-19T15:59:09Z</time>
      </trkpt>
      <trkpt lat="45.78375" lon="4.64804">
        <ele>583.18</ele>
        <time>2013-01-19T15:59:25Z</time>
      </trkpt>
      <trkpt lat="45.78372" lon="4.64793">
        <ele>584.62</ele>
        <time>2013-01-19T15:59:29Z</time>
      </trkpt>
      <trkpt lat="45.78367" lon="4.64783">
        <ele>585.1</ele>
        <time>2013-01-19T15:59:33Z</time>
      </trkpt>
      <trkpt lat="45.78343" lon="4.64747">
        <ele>586.54</ele>
        <time>2013-01-19T15:59:51Z</time>
      </trkpt>
      <trkpt lat="45.78328" lon="4.64732">
        <ele>596.64</ele>
        <time>2013-01-19T16:00:04Z</time>
      </trkpt>
      <trkpt lat="45.78317" lon="4.64716">
        <ele>600</ele>
        <time>2013-01-19T16:00:18Z</time>
      </trkpt>
      <trkpt lat="45.78301" lon="4.64693">
        <ele>592.31</ele>
        <time>2013-01-19T16:00:39Z</time>
      </trkpt>
      <trkpt lat="45.78275" lon="4.64664">
        <ele>589.91</ele>
        <time>2013-01-19T16:00:59Z</time>
      </trkpt>
      <trkpt lat="45.78251" lon="4.6464">
        <ele>587.02</ele>
        <time>2013-01-19T16:01:16Z</time>
      </trkpt>
      <trkpt lat="45.78216" lon="4.64612">
        <ele>582.7</ele>
        <time>2013-01-19T16:01:34Z</time>
      </trkpt>
      <trkpt lat="45.78213" lon="4.64612">
        <ele>582.22</ele>
        <time>2013-01-19T16:01:36Z</time>
      </trkpt>
      <trkpt lat="45.78187" lon="4.64578">
        <ele>585.1</ele>
        <time>2013-01-19T16:01:52Z</time>
      </trkpt>
      <trkpt lat="45.7817" lon="4.6456">
        <ele>591.83</ele>
        <time>2013-01-19T16:02:12Z</time>
      </trkpt>
      <trkpt lat="45.78162" lon="4.64558">
        <ele>601.92</ele>
        <time>2013-01-19T16:02:27Z</time>
      </trkpt>
      <trkpt lat="45.78153" lon="4.64556">
        <ele>608.17</ele>
        <time>2013-01-19T16:02:44Z</time>
      </trkpt>
      <trkpt lat="45.78147" lon="4.64545">
        <ele>609.13</ele>
        <time>2013-01-19T16:03:04Z</time>
      </trkpt>
      <trkpt lat="45.78128" lon="4.6453">
        <ele>614.42</ele>
        <time>2013-01-19T16:03:24Z</time>
      </trkpt>
      <trkpt lat="45.78111" lon="4.64519">
        <ele>622.11</ele>
        <time>2013-01-19T16:03:46Z</time>
      </trkpt>
      <trkpt lat="45.78092" lon="4.64513">
        <ele>631.24</ele>
        <time>2013-01-19T16:04:08Z</time>
      </trkpt>
      <trkpt lat="45.78074" lon="4.64505">
        <ele>638.45</ele>
        <time>2013-01-19T16:04:30Z</time>
      </trkpt>
      <trkpt lat="45.78068" lon="4.64501">
        <ele>640.86</ele>
        <time>2013-01-19T16:04:53Z</time>
      </trkpt>
      <trkpt lat="45.78049" lon="4.64478">
        <ele>641.34</ele>
        <time>2013-01-19T16:05:14Z</time>
      </trkpt>
      <trkpt lat="45.78038" lon="4.64461">
        <ele>640.38</ele>
        <time>2013-01-19T16:05:28Z</time>
      </trkpt>
      <trkpt lat="45.78025" lon="4.6445">
        <ele>638.45</ele>
        <time>2013-01-19T16:05:36Z</time>
      </trkpt>
      <trkpt lat="45.78021" lon="4.64446">
        <ele>637.97</ele>
        <time>2013-01-19T16:05:39Z</time>
      </trkpt>
      <trkpt lat="45.78018" lon="4.64439">
        <ele>638.45</ele>
        <time>2013-01-19T16:05:44Z</time>
      </trkpt>
      <trkpt lat="45.78009" lon="4.64422">
        <ele>637.97</ele>
        <time>2013-01-19T16:05:52Z</time>
      </trkpt>
      <trkpt lat="45.77984" lon="4.64386">
        <ele>635.09</ele>
        <time>2013-01-19T16:06:07Z</time>
      </trkpt>
      <trkpt lat="45.77973" lon="4.64362">
        <ele>631.72</ele>
        <time>2013-01-19T16:06:16Z</time>
      </trkpt>
      <trkpt lat="45.77956" lon="4.64327">
        <ele>627.4</ele>
        <time>2013-01-19T16:06:29Z</time>
      </trkpt>
      <trkpt lat="45.77941" lon="4.64296">
        <ele>623.07</ele>
        <time>2013-01-19T16:06:40Z</time>
      </trkpt>
      <trkpt lat="45.77923" lon="4.64261">
        <ele>621.15</ele>
        <time>2013-01-19T16:06:53Z</time>
      </trkpt>
      <trkpt lat="45.77906" lon="4.64225">
        <ele>616.34</ele>
        <time>2013-01-19T16:07:07Z</time>
      </trkpt>
      <trkpt lat="45.77889" lon="4.64191">
        <ele>613.46</ele>
        <time>2013-01-19T16:07:20Z</time>
      </trkpt>
      <trkpt lat="45.7787" lon="4.64152">
        <ele>612.98</ele>
        <time>2013-01-19T16:07:33Z</time>
      </trkpt>
      <trkpt lat="45.77867" lon="4.64142">
        <ele>612.5</ele>
        <time>2013-01-19T16:07:36Z</time>
      </trkpt>
      <trkpt lat="45.77848" lon="4.64099">
        <ele>606.73</ele>
        <time>2013-01-19T16:07:51Z</time>
      </trkpt>
      <trkpt lat="45.77836" lon="4.64061">
        <ele>603.85</ele>
        <time>2013-01-19T16:08:02Z</time>
      </trkpt>
      <trkpt lat="45.77817" lon="4.64024">
        <ele>600.48</ele>
        <time>2013-01-19T16:08:15Z</time>
      </trkpt>
      <trkpt lat="45.77803" lon="4.64002">
        <ele>598.56</ele>
        <time>2013-01-19T16:08:23Z</time>
      </trkpt>
      <trkpt lat="45.77796" lon="4.63996">
        <ele>599.04</ele>
        <time>2013-01-19T16:08:34Z</time>
      </trkpt>
      <trkpt lat="45.77795" lon="4.63996">
        <ele>600</ele>
        <time>2013-01-19T16:08:56Z</time>
      </trkpt>
    </trkseg>
  </trk>
</gpx>